[[{"header":{"parameterUnit":"m.s-1","parameterCategory":1,"la1":30.6,"la2":29.2853,"lo1":-89.7004,"lo2":-87.6739,"dy":0.0162,"dx":0.0183,"nx":112,"ny":82,"refTime":"2024-08-20T18:00:00:Z","depth":0,"parameterNumber":2,"parameterNumberName":"U-component_of_WINDS"},"data":[0.0,0.0,0.0,0.0,0.0,0.0,0.0,0.0,0.0,0.0,0.0,0.0,0.0,0.0,0.0,0.0,0.0,0.0,0.0,0.0,0.0,0.0,0.0,0.0,0.0,0.0,0.0,0.0,0.0,0.0,0.0,0.0,0.0,0.0,0.0,0.0,0.0,0.0,0.0,0.0,0.0,0.0,0.0,0.0,0.0,0.0,0.0,0.0,0.0,0.0,0.0,0.0,0.0,0.0,0.0,0.0,0.0,0.0,0.0,0.0,0.0,0.0,0.0,0.0,0.0,0.0,0.0,0.0,0.0,0.0,0.0,0.0,0.0,0.0,0.0,0.0,0.0,0.0,0.0,0.0,0.0,0.0,0.0,0.0,0.0,0.0,0.0,0.0,0.0,0.0,-3.2522,-3.5301,-3.639,-3.682,-3.6626,-3.6135,-3.4529,-3.1396,0.0,0.0,0.0,0.0,0.0,0.0,0.0,0.0,0.0,0.0,0.0,0.0,0.0,0.0,0.0,0.0,0.0,0.0,0.0,0.0,0.0,0.0,0.0,0.0,0.0,0.0,0.0,0.0,0.0,0.0,0.0,0.0,0.0,0.0,0.0,0.0,0.0,0.0,0.0,0.0,0.0,0.0,0.0,0.0,0.0,0.0,0.0,0.0,0.0,0.0,0.0,0.0,0.0,0.0,0.0,0.0,0.0,0.0,0.0,0.0,0.0,0.0,0.0,0.0,0.0,0.0,0.0,0.0,0.0,0.0,0.0,0.0,0.0,0.0,0.0,0.0,0.0,0.0,0.0,0.0,0.0,0.0,0.0,0.0,0.0,0.0,0.0,0.0,0.0,0.0,0.0,0.0,0.0,0.0,0.0,0.0,0.0,0.0,0.0,0.0,0.0,0.0,0.0,0.0,-3.236,-3.5295,-3.6674,-3.6955,-3.5864,-3.6509,-3.5316,-3.1455,0.0,0.0,0.0,0.0,0.0,0.0,0.0,0.0,0.0,0.0,0.0,0.0,0.0,0.0,0.0,0.0,0.0,0.0,0.0,0.0,0.0,0.0,0.0,0.0,0.0,0.0,0.0,0.0,0.0,0.0,0.0,0.0,0.0,0.0,0.0,0.0,0.0,0.0,0.0,0.0,0.0,0.0,0.0,0.0,0.0,0.0,0.0,0.0,0.0,0.0,0.0,0.0,0.0,0.0,0.0,0.0,0.0,0.0,0.0,0.0,0.0,0.0,0.0,0.0,0.0,0.0,0.0,0.0,0.0,0.0,0.0,0.0,0.0,0.0,0.0,0.0,0.0,0.0,0.0,0.0,0.0,0.0,0.0,0.0,0.0,0.0,0.0,0.0,0.0,0.0,0.0,0.0,0.0,0.0,0.0,0.0,0.0,0.0,0.0,0.0,0.0,0.0,0.0,-3.2008,-3.3657,-3.581,-3.6814,-3.6916,-3.585,-3.6215,-3.4991,-3.148,-3.0144,0.0,0.0,0.0,0.0,0.0,0.0,0.0,0.0,0.0,0.0,0.0,0.0,0.0,0.0,0.0,0.0,0.0,0.0,0.0,0.0,0.0,0.0,0.0,0.0,0.0,0.0,0.0,0.0,0.0,0.0,0.0,0.0,0.0,0.0,0.0,0.0,0.0,0.0,0.0,0.0,0.0,0.0,0.0,0.0,0.0,0.0,0.0,0.0,0.0,0.0,0.0,0.0,0.0,0.0,0.0,0.0,0.0,0.0,0.0,0.0,0.0,0.0,0.0,0.0,0.0,0.0,0.0,0.0,0.0,0.0,0.0,0.0,0.0,0.0,0.0,0.0,0.0,0.0,0.0,0.0,0.0,0.0,0.0,0.0,0.0,0.0,0.0,0.0,0.0,0.0,0.0,0.0,0.0,0.0,0.0,0.0,0.0,0.0,0.0,0.0,0.0,0.0,-3.4034,-3.5194,-3.6441,-3.6881,-3.6753,-3.5967,-3.5599,-3.4228,-3.1458,-2.9603,0.0,0.0,0.0,0.0,0.0,0.0,0.0,0.0,0.0,0.0,0.0,0.0,0.0,0.0,0.0,0.0,0.0,0.0,0.0,0.0,0.0,0.0,0.0,0.0,0.0,0.0,0.0,0.0,0.0,0.0,0.0,0.0,0.0,0.0,0.0,0.0,0.0,0.0,0.0,0.0,0.0,0.0,0.0,0.0,0.0,0.0,0.0,0.0,0.0,0.0,0.0,0.0,0.0,0.0,0.0,0.0,0.0,0.0,0.0,0.0,0.0,0.0,0.0,0.0,0.0,0.0,0.0,0.0,0.0,0.0,0.0,0.0,0.0,0.0,0.0,0.0,0.0,0.0,0.0,0.0,0.0,0.0,0.0,0.0,0.0,0.0,0.0,0.0,0.0,0.0,0.0,0.0,0.0,0.0,0.0,0.0,0.0,0.0,0.0,0.0,0.0,0.0,-3.4493,-3.6478,-3.7078,-3.6898,-3.652,-3.5951,-3.4695,-3.3194,-3.1418,-2.8855,0.0,0.0,0.0,0.0,0.0,0.0,0.0,0.0,0.0,0.0,0.0,0.0,0.0,0.0,0.0,0.0,0.0,0.0,0.0,0.0,0.0,0.0,0.0,0.0,0.0,0.0,0.0,0.0,0.0,0.0,0.0,0.0,0.0,0.0,0.0,0.0,0.0,0.0,0.0,0.0,0.0,0.0,0.0,0.0,0.0,0.0,0.0,0.0,0.0,0.0,0.0,0.0,0.0,0.0,0.0,0.0,0.0,0.0,0.0,0.0,0.0,0.0,0.0,0.0,0.0,0.0,0.0,0.0,0.0,0.0,0.0,0.0,0.0,0.0,0.0,0.0,0.0,0.0,0.0,0.0,0.0,0.0,0.0,0.0,0.0,0.0,0.0,0.0,0.0,0.0,0.0,0.0,0.0,0.0,0.0,0.0,0.0,0.0,0.0,0.0,0.0,0.0,-3.409,-3.6061,-3.6358,-3.6868,-3.6698,-3.5439,-3.4838,-3.3428,-3.0781,0.0,0.0,0.0,0.0,0.0,0.0,0.0,0.0,0.0,0.0,0.0,0.0,0.0,0.0,0.0,0.0,0.0,0.0,0.0,0.0,0.0,0.0,0.0,0.0,0.0,0.0,0.0,0.0,0.0,0.0,0.0,0.0,0.0,0.0,0.0,0.0,0.0,0.0,0.0,0.0,0.0,0.0,0.0,0.0,0.0,0.0,0.0,0.0,0.0,0.0,0.0,0.0,0.0,0.0,0.0,0.0,0.0,0.0,0.0,0.0,0.0,0.0,0.0,0.0,0.0,0.0,0.0,0.0,0.0,0.0,0.0,0.0,0.0,0.0,0.0,0.0,0.0,0.0,0.0,0.0,0.0,0.0,0.0,0.0,0.0,0.0,0.0,0.0,0.0,0.0,0.0,0.0,0.0,0.0,0.0,0.0,0.0,0.0,0.0,0.0,0.0,0.0,-3.0932,-3.3806,-3.5771,-3.6114,-3.6499,-3.6248,-3.5096,-3.4069,-3.2546,-3.0338,0.0,0.0,0.0,0.0,0.0,0.0,0.0,0.0,0.0,0.0,0.0,0.0,0.0,0.0,0.0,0.0,0.0,0.0,0.0,0.0,0.0,0.0,0.0,0.0,0.0,0.0,0.0,0.0,0.0,0.0,0.0,0.0,0.0,0.0,0.0,0.0,0.0,0.0,0.0,0.0,0.0,0.0,0.0,0.0,0.0,0.0,0.0,0.0,0.0,0.0,0.0,0.0,0.0,0.0,0.0,0.0,0.0,0.0,0.0,0.0,0.0,0.0,0.0,0.0,0.0,0.0,0.0,0.0,0.0,0.0,0.0,0.0,0.0,0.0,0.0,0.0,0.0,0.0,0.0,0.0,0.0,0.0,0.0,0.0,0.0,0.0,0.0,0.0,0.0,0.0,0.0,0.0,0.0,0.0,0.0,0.0,0.0,0.0,0.0,0.0,0.0,0.0,-3.1057,-3.3749,-3.5804,-3.6597,-3.5672,-3.5004,-3.4986,-3.2051,-3.0228,0.0,0.0,0.0,0.0,0.0,0.0,0.0,0.0,0.0,0.0,0.0,0.0,0.0,0.0,0.0,0.0,0.0,0.0,0.0,0.0,0.0,0.0,0.0,0.0,0.0,0.0,0.0,0.0,0.0,0.0,0.0,0.0,0.0,0.0,0.0,0.0,0.0,0.0,0.0,0.0,0.0,0.0,0.0,0.0,0.0,0.0,0.0,0.0,0.0,0.0,0.0,0.0,0.0,0.0,0.0,0.0,0.0,0.0,0.0,0.0,0.0,0.0,0.0,0.0,0.0,0.0,0.0,0.0,0.0,0.0,0.0,0.0,0.0,0.0,0.0,0.0,0.0,0.0,0.0,0.0,0.0,0.0,0.0,0.0,0.0,0.0,0.0,0.0,0.0,0.0,0.0,0.0,0.0,0.0,0.0,0.0,0.0,0.0,0.0,0.0,0.0,0.0,0.0,-3.0364,-3.3743,-3.5788,-3.5081,-3.5001,-3.4766,-3.4197,-3.2748,-3.117,-2.9464,0.0,0.0,0.0,0.0,0.0,0.0,0.0,0.0,0.0,0.0,0.0,0.0,0.0,0.0,0.0,0.0,0.0,0.0,0.0,0.0,0.0,0.0,0.0,0.0,0.0,0.0,0.0,0.0,0.0,0.0,0.0,0.0,0.0,0.0,0.0,0.0,0.0,0.0,0.0,0.0,0.0,0.0,0.0,0.0,0.0,0.0,0.0,0.0,0.0,0.0,0.0,0.0,0.0,0.0,0.0,0.0,0.0,0.0,0.0,0.0,0.0,0.0,0.0,0.0,0.0,0.0,0.0,0.0,0.0,0.0,0.0,0.0,0.0,0.0,0.0,0.0,0.0,0.0,0.0,0.0,0.0,0.0,0.0,0.0,0.0,0.0,0.0,0.0,0.0,0.0,0.0,0.0,0.0,0.0,0.0,0.0,0.0,0.0,0.0,0.0,0.0,0.0,-2.9813,-3.3049,-3.5045,-3.4377,-3.4433,-3.4325,-3.3844,-3.3073,-3.1702,-2.961,0.0,0.0,0.0,0.0,0.0,0.0,0.0,0.0,0.0,0.0,0.0,0.0,0.0,0.0,0.0,0.0,0.0,0.0,0.0,0.0,0.0,0.0,0.0,0.0,0.0,0.0,0.0,0.0,0.0,0.0,0.0,0.0,0.0,0.0,0.0,0.0,0.0,0.0,0.0,0.0,0.0,0.0,0.0,0.0,0.0,0.0,0.0,0.0,0.0,0.0,0.0,0.0,0.0,0.0,0.0,0.0,0.0,0.0,0.0,0.0,0.0,0.0,0.0,0.0,0.0,0.0,0.0,0.0,0.0,0.0,0.0,0.0,0.0,0.0,0.0,0.0,0.0,0.0,0.0,0.0,0.0,0.0,0.0,0.0,0.0,0.0,0.0,0.0,0.0,0.0,0.0,0.0,0.0,0.0,0.0,0.0,0.0,0.0,0.0,0.0,0.0,0.0,-2.9485,-3.2001,-3.3885,-3.4225,-3.3988,-3.3807,-3.3807,-3.3073,-3.1904,-3.0301,0.0,0.0,0.0,0.0,0.0,0.0,0.0,0.0,0.0,0.0,0.0,0.0,0.0,0.0,0.0,0.0,0.0,0.0,0.0,0.0,0.0,0.0,0.0,0.0,0.0,0.0,0.0,0.0,0.0,0.0,0.0,0.0,0.0,0.0,0.0,0.0,0.0,0.0,0.0,0.0,0.0,0.0,0.0,0.0,0.0,0.0,0.0,0.0,0.0,0.0,0.0,0.0,0.0,0.0,0.0,0.0,0.0,0.0,0.0,0.0,-3.0613,-2.9531,0.0,0.0,0.0,0.0,0.0,0.0,0.0,0.0,0.0,0.0,0.0,0.0,0.0,0.0,0.0,0.0,0.0,0.0,0.0,0.0,0.0,0.0,0.0,0.0,0.0,0.0,0.0,0.0,0.0,0.0,0.0,0.0,0.0,0.0,0.0,0.0,0.0,0.0,0.0,0.0,-2.9983,-3.196,-3.3477,-3.3876,-3.3844,-3.3807,-3.3807,-3.3073,-3.1904,-3.0301,-2.928,0.0,0.0,0.0,0.0,0.0,0.0,0.0,0.0,0.0,0.0,0.0,0.0,0.0,0.0,0.0,0.0,0.0,0.0,0.0,0.0,0.0,0.0,0.0,0.0,0.0,0.0,0.0,0.0,0.0,0.0,0.0,0.0,0.0,0.0,0.0,0.0,0.0,0.0,0.0,0.0,0.0,0.0,0.0,0.0,0.0,0.0,0.0,0.0,0.0,0.0,0.0,0.0,0.0,0.0,0.0,0.0,0.0,0.0,0.0,-3.3348,-3.2155,0.0,0.0,0.0,0.0,0.0,0.0,0.0,0.0,0.0,0.0,0.0,0.0,0.0,0.0,0.0,0.0,0.0,0.0,0.0,0.0,0.0,0.0,0.0,0.0,0.0,0.0,0.0,0.0,0.0,0.0,0.0,0.0,0.0,0.0,0.0,0.0,0.0,0.0,0.0,0.0,-2.9839,-3.1614,-3.3029,-3.3465,-3.3508,-3.3578,-3.3775,-3.3241,-3.2365,-3.1133,-2.9776,0.0,0.0,0.0,0.0,0.0,0.0,0.0,0.0,0.0,0.0,0.0,0.0,0.0,0.0,0.0,0.0,0.0,0.0,0.0,0.0,0.0,0.0,0.0,0.0,0.0,0.0,0.0,0.0,0.0,0.0,0.0,0.0,0.0,0.0,0.0,0.0,0.0,0.0,0.0,0.0,0.0,0.0,0.0,0.0,0.0,0.0,0.0,0.0,0.0,0.0,0.0,0.0,0.0,-3.8097,-3.8791,-3.9316,-3.912,-3.9015,-3.8821,-3.5987,-3.5027,-3.5334,-3.3995,0.0,0.0,0.0,0.0,0.0,0.0,0.0,0.0,0.0,0.0,0.0,0.0,0.0,0.0,0.0,0.0,0.0,0.0,0.0,0.0,0.0,0.0,0.0,0.0,-3.4324,-3.3856,-3.2303,0.0,0.0,0.0,0.0,0.0,0.0,0.0,0.0,0.0,0.0,0.0,-2.9789,-3.1302,-3.2567,-3.3029,-3.3075,-3.3211,-3.355,-3.3273,-3.2718,-3.193,-3.033,-2.9009,0.0,0.0,0.0,0.0,0.0,0.0,0.0,0.0,0.0,0.0,0.0,0.0,0.0,0.0,0.0,0.0,0.0,0.0,0.0,0.0,0.0,0.0,0.0,0.0,0.0,0.0,0.0,0.0,0.0,0.0,0.0,0.0,-2.5901,-2.738,0.0,0.0,0.0,0.0,0.0,0.0,0.0,0.0,0.0,0.0,0.0,0.0,0.0,-3.5786,-3.6506,-3.8115,-3.919,-3.9734,-4.0784,-4.1456,-4.1794,-4.079,-4.0224,-3.995,-3.904,0.0,-3.7162,-3.6942,0.0,0.0,0.0,0.0,0.0,0.0,0.0,0.0,0.0,0.0,0.0,0.0,0.0,0.0,0.0,0.0,0.0,0.0,0.0,0.0,0.0,0.0,-3.5265,-3.5389,-3.5384,-3.5311,0.0,-3.3431,-3.2021,-3.2,-3.1399,0.0,0.0,0.0,0.0,0.0,0.0,0.0,-3.0926,-3.1566,-3.2074,-3.255,-3.2599,-3.2616,-3.2665,-3.2632,-3.2246,-3.145,-3.1154,-3.0488,-2.9311,-2.7806,0.0,0.0,0.0,0.0,0.0,0.0,0.0,0.0,0.0,0.0,0.0,0.0,0.0,0.0,0.0,0.0,0.0,0.0,0.0,0.0,0.0,0.0,0.0,0.0,0.0,0.0,0.0,0.0,0.0,-2.4591,-2.7063,-2.7644,-2.8885,-2.9679,0.0,0.0,0.0,0.0,0.0,0.0,0.0,0.0,0.0,-3.6162,-3.6928,-3.7585,-3.8119,-3.9232,-4.0228,-4.1089,-4.1579,-4.2207,-4.2948,-4.2133,-4.1722,-4.1572,-4.1007,-4.017,-3.9157,-3.8259,-3.7217,-3.6103,0.0,0.0,0.0,0.0,-3.3781,-3.352,-3.3825,-3.3919,-3.3759,-3.2731,0.0,0.0,0.0,0.0,0.0,0.0,0.0,0.0,0.0,0.0,-3.5098,-3.5498,-3.56,-3.56,-3.56,-3.4836,-3.4108,0.0,-3.3309,-3.258,-3.198,0.0,0.0,0.0,0.0,-3.0318,-3.0853,-3.1231,-3.1621,-3.2074,-3.2109,-3.2213,-3.2484,-3.2247,-3.1952,-3.1585,-3.0595,-2.9954,-2.9843,-2.8374,-2.7487,0.0,0.0,0.0,0.0,0.0,0.0,0.0,0.0,0.0,0.0,0.0,0.0,0.0,0.0,0.0,0.0,0.0,0.0,0.0,0.0,0.0,0.0,0.0,0.0,0.0,0.0,0.0,0.0,-2.5628,-2.7953,-2.8404,-3.0364,-3.1435,0.0,0.0,0.0,0.0,0.0,0.0,-3.6008,-3.6989,-3.7588,-3.7801,-3.8522,-3.904,-3.9283,-3.9842,-4.0594,-4.1578,-4.1424,-4.1961,-4.3051,-4.2362,-4.2101,-4.2221,-4.1617,-4.1038,-4.0403,-3.9268,-3.8384,-3.7609,-3.6811,-3.6036,-3.5312,-3.5183,-3.4987,-3.486,-3.5189,-3.5318,-3.5153,-3.4262,-3.3711,-3.3237,-3.2324,0.0,0.0,0.0,0.0,-3.3173,-3.4438,-3.4776,-3.4928,-3.5464,-3.56,-3.56,-3.56,-3.56,-3.5525,0.0,-3.4675,-3.381,-3.284,0.0,0.0,0.0,0.0,-3.0555,-3.0744,-3.1013,-3.1312,-3.1604,-3.1641,-3.1788,-3.2144,-3.1842,-3.1641,-3.1641,-3.0162,-2.96,-3.0362,-2.8906,-2.8196,-2.8382,0.0,0.0,0.0,0.0,0.0,0.0,0.0,0.0,0.0,0.0,0.0,0.0,0.0,0.0,0.0,0.0,0.0,0.0,0.0,0.0,0.0,0.0,0.0,0.0,0.0,0.0,0.0,0.0,0.0,-3.1063,-3.2533,0.0,0.0,0.0,0.0,-3.3359,-3.5396,-3.6689,-3.6746,-3.8119,-3.8909,-3.8918,-3.963,-4.0036,-4.0045,-4.0079,-4.0392,-4.0949,-4.0441,-4.0791,-4.1853,-4.0737,-4.0497,-4.0949,-4.0417,-4.0162,-4.0135,-4.0377,-3.9994,-3.9217,-3.8477,-3.7699,-3.6933,-3.6478,-3.5844,-3.5203,-3.5482,-3.5577,-3.5577,-3.5498,-3.4535,-3.3525,-3.4134,-3.3359,0.0,0.0,-3.4409,-3.4573,-3.5329,-3.5532,-3.5549,-3.5583,-3.56,-3.56,-3.56,-3.56,-3.5583,0.0,-3.4967,-3.4244,-3.3486,0.0,-3.1201,-3.115,-3.0552,-3.0383,-3.1077,-3.1193,-3.121,-3.123,-3.123,-3.1249,-3.1252,-3.1232,-3.123,-3.123,-3.0482,-3.0378,-3.1106,-2.9738,-2.9262,-2.9971,-2.7824,0.0,0.0,0.0,0.0,0.0,0.0,0.0,0.0,0.0,0.0,0.0,0.0,0.0,0.0,0.0,0.0,0.0,0.0,0.0,0.0,0.0,0.0,0.0,0.0,0.0,0.0,0.0,0.0,-3.1368,-3.3456,0.0,-3.3783,-3.5087,-3.6062,-3.6282,-3.7483,-3.8437,-3.8911,-3.9436,-3.9723,-3.9723,-3.996,-4.0096,-4.0096,-4.0096,-4.0368,-4.0903,-4.0703,-4.1036,-4.1771,-4.0967,-4.0726,-4.0856,-4.0336,-3.9842,-3.941,-3.9521,-3.9118,-3.8413,-3.8155,-3.7261,-3.6101,-3.5963,-3.5705,-3.5474,-3.5565,-3.56,-3.56,-3.56,-3.5245,-3.4856,-3.5126,-3.4844,-3.4539,-3.5064,-3.5216,-3.5261,-3.5532,-3.56,-3.56,-3.56,-3.56,-3.56,-3.56,-3.56,-3.56,-3.56,-3.538,-3.4805,-3.3609,-3.2966,-3.229,-3.1326,-3.097,-3.0903,-3.1157,-3.119,-3.119,-3.119,-3.119,-3.119,-3.119,-3.119,-3.1004,-3.0531,-2.9803,-2.9517,-2.9771,-2.8789,-2.8822,-3.0072,-2.8457,-2.7536,0.0,0.0,0.0,0.0,0.0,0.0,0.0,0.0,0.0,0.0,0.0,0.0,0.0,0.0,0.0,0.0,0.0,0.0,0.0,0.0,0.0,0.0,0.0,0.0,0.0,-2.9702,-3.1649,-3.2013,-3.4351,-3.5648,-3.4939,-3.6479,-3.7715,-3.822,-3.8954,-3.9588,-4.0079,-4.0096,-4.0096,-4.0096,-4.0096,-4.0096,-4.0096,-4.0096,-4.0286,-4.0631,-4.0631,-4.0844,-4.1218,-4.0821,-4.0631,-4.0625,-4.0237,-3.969,-3.8988,-3.8988,-3.8413,-3.7533,-3.7533,-3.6907,-3.5977,-3.5701,-3.56,-3.56,-3.56,-3.56,-3.56,-3.56,-3.56,-3.56,-3.56,-3.56,-3.56,-3.56,-3.56,-3.56,-3.56,-3.56,-3.56,-3.56,-3.56,-3.5532,-3.5278,-3.5414,-3.5447,-3.494,-3.5042,-3.4844,-3.3609,-3.3186,-3.2611,-3.1376,-3.119,-3.119,-3.119,-3.119,-3.119,-3.119,-3.119,-3.119,-3.119,-3.119,-3.0987,-3.0497,-2.977,-2.9291,-2.9106,-2.8512,-2.8598,-2.9441,-2.8555,-2.7907,-2.7526,0.0,0.0,0.0,0.0,0.0,0.0,0.0,0.0,0.0,0.0,0.0,0.0,0.0,0.0,0.0,0.0,0.0,0.0,0.0,0.0,0.0,0.0,0.0,-3.0507,-3.1122,-3.2042,-3.3295,-3.5317,-3.6342,-3.5689,-3.7584,-3.8884,-3.8999,-3.9656,-4.007,-4.0096,-4.0096,-4.0096,-4.0096,-4.0096,-4.0096,-4.0096,-4.0096,-4.0096,-4.0096,-4.0096,-4.0096,-4.0096,-4.0096,-4.0096,-4.0079,-4.0079,-3.9639,-3.892,-3.892,-3.8082,-3.6778,-3.6795,-3.6778,-3.6677,-3.5893,-3.56,-3.56,-3.56,-3.56,-3.56,-3.56,-3.56,-3.56,-3.56,-3.56,-3.56,-3.56,-3.56,-3.56,-3.5577,-3.5577,-3.5583,-3.5543,-3.5566,-3.5346,-3.4624,-3.503,-3.5109,-3.3694,-3.3964,-3.4201,-3.3491,-3.2763,-3.2056,-3.1309,-3.119,0.0,-3.119,-3.119,-3.119,-3.119,-3.119,-3.119,-3.119,-3.119,-3.1154,-3.1137,-3.0458,-2.9808,-2.925,-2.9049,-2.8699,-2.819,-2.8162,-2.7786,-2.7025,0.0,0.0,0.0,0.0,0.0,0.0,0.0,0.0,0.0,0.0,0.0,0.0,0.0,0.0,0.0,0.0,0.0,0.0,0.0,0.0,0.0,-2.9134,-3.0507,-3.0507,-3.2332,-3.3816,-3.4166,-3.5631,-3.6534,-3.6342,-3.738,-3.8332,-3.8901,-3.912,-3.9489,-4.007,-4.0096,-4.0096,-4.0096,-4.0096,-4.0096,-4.0096,-4.0096,-4.0096,-4.0096,-4.0096,-4.0096,-4.0096,-4.0096,-3.9808,-3.9317,-3.9317,-3.8589,-3.7405,-3.7405,-3.6806,-3.5994,-3.6552,-3.6434,-3.591,-3.5667,-3.56,-3.56,-3.56,-3.56,-3.56,-3.56,-3.56,-3.56,-3.56,-3.56,-3.56,-3.56,-3.56,-3.5492,-3.4988,-3.523,-3.5335,-3.4316,-3.4466,-3.4607,-3.3863,-3.3863,-3.3875,-3.3491,-3.3119,-3.2835,-3.2649,-3.2429,-3.2056,-3.1309,-3.119,0.0,-3.119,-3.119,-3.119,-3.119,-3.119,-3.119,-3.119,-3.0797,-3.0323,-2.9775,-2.914,-2.8487,-2.7819,-2.7733,-2.7676,-2.7611,-2.8509,-2.8653,0.0,0.0,0.0,0.0,0.0,0.0,0.0,0.0,0.0,0.0,0.0,0.0,0.0,0.0,0.0,0.0,0.0,0.0,0.0,0.0,0.0,0.0,-3.0071,-3.1499,-3.122,-3.2853,-3.4204,-3.4474,-3.5213,-3.5845,-3.6151,-3.6867,-3.7745,-3.8827,-3.8908,-3.9262,-4.0045,-4.0096,-4.0096,-4.0096,-4.0096,-4.0096,-4.0096,-4.0096,-4.0096,-4.0096,-4.0096,-4.0096,-4.0096,-4.0096,-3.9706,-3.8988,-3.8988,-3.8142,-3.6795,-3.6795,-3.6315,0.0,0.0,0.0,0.0,0.0,-3.5407,-3.5184,-3.5184,-3.5005,-3.4752,-3.4752,-3.4752,-3.4752,-3.4752,-3.4752,-3.4752,-3.4752,-3.4752,-3.4662,-3.4254,-3.4242,-3.4194,-3.3594,-3.3366,-3.315,-3.267,-3.2607,-3.253,-3.2168,-3.1807,0.0,-3.1466,-3.1658,-3.1701,-3.1258,-3.0995,-3.0821,-3.0821,-3.0601,-3.0456,-3.0456,-3.0456,-3.0456,-3.0456,-3.0123,0.0,0.0,0.0,-2.8562,-2.8092,-2.7573,0.0,0.0,0.0,0.0,0.0,0.0,0.0,0.0,-2.991,-3.0357,0.0,0.0,0.0,0.0,0.0,0.0,0.0,0.0,0.0,0.0,0.0,0.0,0.0,0.0,0.0,0.0,-3.0764,-3.2753,-3.2277,-3.2864,-3.3616,-3.4292,-3.4399,-3.468,-3.5428,-3.6029,-3.699,-3.8536,-3.8646,-3.9005,-3.9799,0.0,0.0,0.0,0.0,-4.0096,-4.0096,-4.0096,-4.0096,-4.0096,-4.0096,-4.0062,-3.9977,-3.9977,-3.9537,-3.8734,-3.8734,-3.7956,-3.666,-3.666,-3.6185,-3.5492,-3.5577,-3.5538,-3.5492,-3.5492,-3.5052,-3.4479,-3.4479,0.0,0.0,-3.3582,-3.3582,-3.3582,-3.3582,-3.3582,-3.3566,-3.3528,-3.3496,-3.3437,-3.3216,-3.2846,-3.2571,-3.2873,-3.2206,-3.1418,-3.1226,-3.1277,-3.1128,-3.0347,-3.0285,-3.0354,-3.0222,-3.0638,-3.0995,-3.0995,-3.0539,-3.0187,-3.0187,-2.9739,-2.9406,-2.9406,0.0,0.0,-2.9406,-2.9339,-2.9293,-2.9293,-2.9305,-2.9284,-2.9208,-2.8202,-2.8187,-2.9296,-2.9403,-2.9772,-3.0507,-3.0582,-3.127,-3.2452,-3.0806,-3.1315,0.0,0.0,0.0,0.0,0.0,0.0,0.0,0.0,0.0,0.0,0.0,0.0,0.0,0.0,0.0,-2.8877,-3.0713,-3.2128,-3.2815,-3.2583,-3.2691,-3.3602,-3.3679,-3.395,-3.4648,-3.4813,-3.5507,-3.6947,-3.7038,-3.7395,-3.8206,-3.8816,-3.9139,-3.9139,-3.9756,-4.0096,-4.0096,-4.0096,-4.0096,-4.0096,0.0,0.0,-3.9208,-3.9208,-3.8505,-3.7235,-3.7235,-3.6688,-3.5819,-3.5819,-3.5411,-3.4847,-3.5385,-3.5276,-3.4783,-3.4783,-3.4358,-3.3786,-3.3786,-3.371,-3.3582,-3.3582,-3.3582,-3.3582,-3.3582,-3.3582,0.0,-3.296,-3.2784,-3.2524,-3.1451,-3.1475,-3.1542,-3.0497,-3.0473,-3.0539,-2.9916,-2.9801,-2.9772,-2.9611,-2.9608,-2.9611,-2.9579,-2.9673,-2.9739,-2.9739,-2.9651,-2.9563,-2.9563,-2.9473,-2.9406,-2.9406,-2.9406,-2.9406,-2.9406,-2.895,-2.8662,-2.8662,-2.8734,-2.8753,-2.8743,-2.9007,-2.9301,-2.9557,-3.0027,-3.0348,-3.0507,-3.1032,-3.172,-3.2512,-3.2662,-3.329,0.0,0.0,0.0,0.0,0.0,0.0,0.0,0.0,0.0,0.0,0.0,-2.3816,-2.4644,0.0,-2.7859,-2.9014,-3.0209,-3.107,-3.1206,-3.149,-3.1995,-3.29,-3.3006,-3.3125,-3.3469,-3.4114,-3.4953,-3.6012,-3.6414,-3.6934,-3.7764,-3.8149,-3.8358,-3.8358,-3.8734,-3.8941,-3.8941,-3.8941,-3.9129,-3.9489,-3.8775,-3.8652,-3.8971,-3.8229,-3.7506,-3.6772,-3.6417,-3.5823,-3.5075,-3.4728,-3.4399,-3.4137,-3.4471,-3.4399,-3.4112,-3.4112,-3.3684,-3.3093,-3.3093,-3.2853,-3.2555,-3.2555,-3.2555,-3.2493,-3.2164,-3.2055,-3.1916,-3.129,-3.1104,-3.0933,-3.0225,-3.008,-2.9984,-2.9548,-2.9232,-2.9043,-2.8959,-2.8709,-2.8591,-2.8896,-2.8709,-2.8614,-2.8896,-2.8693,-2.8693,-2.9316,-2.9134,-2.8966,-2.8966,-2.8685,-2.8496,-2.8496,-2.8496,-2.8496,-2.8496,-2.8222,-2.8042,-2.8042,-2.8383,-2.8742,-2.9086,-2.9699,-3.0208,-3.0552,-3.0866,-3.0987,-3.0987,-3.1331,-3.1839,-3.2527,-3.3185,-3.3844,0.0,0.0,0.0,0.0,0.0,0.0,0.0,0.0,-2.2385,-2.3246,-2.4324,-2.5297,-2.5824,-2.7118,-2.8323,-2.8988,-2.9738,-3.0079,-2.9487,-3.0223,-3.1168,-3.199,-3.2199,-3.2348,-3.2497,-3.3469,-3.4483,-3.5323,-3.5876,-3.6537,-3.7308,-3.7485,-3.7573,-3.7573,-3.7719,-3.7793,-3.7793,-3.7793,-3.804,-3.8461,-3.7353,-3.7291,-3.8112,-3.6918,-3.6307,-3.6152,-3.5555,-3.4947,-3.4358,-3.3811,-3.3521,-3.3417,-3.3417,-3.3313,-3.3193,-3.3206,-3.2782,-3.2194,-3.2071,-3.1627,-3.1122,-3.1122,-3.1122,-3.1017,-3.0492,-3.0328,-3.0193,-2.9564,-2.9412,-2.9354,-2.9169,-2.8779,-2.8515,-2.8952,-2.8304,-2.7735,-2.8238,-2.7944,-2.7735,-2.8238,-2.7919,-2.776,-2.8222,-2.7919,-2.7944,-2.8904,-2.8638,-2.8334,-2.8334,-2.791,-2.76,-2.76,-2.76,-2.76,-2.76,-2.76,-2.76,-2.76,-2.8364,-2.9026,-2.9592,-3.0298,-3.0943,-3.1496,-3.1511,-3.1511,-3.1511,-3.1511,-3.178,-3.2303,-3.3125,-3.3844,-1.9939,-1.9521,-1.932,-2.0344,-2.0647,-2.1226,0.0,0.0,-2.4449,-2.4575,-2.5511,-2.6474,-2.7027,-2.7645,-2.8448,-2.9528,-2.9807,-2.9757,-2.9446,-2.9538,-2.9834,-3.0469,-3.1161,-3.1854,-3.2452,-3.2647,-3.3246,-3.4539,-3.4689,-3.5022,-3.5735,-3.6368,-3.6722,-3.6722,-3.7427,-3.7793,-3.7793,-3.7793,-3.7543,-3.7026,-3.6878,-3.6242,-3.5185,-3.5009,-3.4591,-3.3965,-3.3864,-3.379,-3.371,-3.3633,-3.3235,-3.2722,-3.2722,-3.2327,-3.1749,-3.1797,-3.1351,-3.0661,-3.012,-2.9871,-2.9804,-2.9804,-2.9804,-2.9789,-2.9726,-2.9711,-2.9549,-2.8891,-2.8712,-2.8573,-2.7961,-2.7755,-2.7715,-2.78,-2.771,-2.7625,-2.77,-2.765,-2.7625,-2.7685,-2.765,-2.7625,-2.7685,-2.7635,-2.765,-2.7785,-2.7735,-2.7685,-2.7685,-2.7635,-2.76,-2.76,-2.76,-2.76,-2.76,-2.76,-2.76,-2.76,-2.8798,-2.9532,-2.9606,-3.0761,-3.1421,-3.1511,-3.1511,-3.1511,-3.1511,-3.1511,-3.154,-3.1645,-3.2916,-3.3844,-1.9737,-1.9823,-2.004,0.0,-2.1267,-2.1851,-2.361,-2.4011,-2.4284,-2.5098,-2.5716,-2.6354,-2.716,-2.7533,-2.811,0.0,-2.9289,-2.9114,-2.8694,-2.8777,-2.8858,-2.878,-2.9535,-3.0535,-3.1796,-3.2258,-3.2901,-3.3844,-3.4294,-3.4771,-3.5474,-3.5782,-3.5943,-3.5943,-3.6274,-3.6461,-3.6461,-3.6461,-3.6335,-3.609,-3.5278,-3.4807,-3.4664,-3.3841,-3.3323,-3.3013,-3.3013,-3.2772,-3.2379,-3.2379,-3.2201,-3.1951,-3.1951,-3.1526,-3.0924,-3.0958,-3.0769,-3.0417,-2.9804,-2.9606,-2.9606,-2.9606,-2.9606,-2.9532,-2.9131,-2.9011,-2.8861,-2.8214,-2.8034,-2.7959,-2.7675,-2.76,-2.76,-2.76,-2.76,-2.76,-2.76,-2.76,-2.76,-2.76,-2.76,-2.76,-2.76,-2.76,-2.76,-2.76,-2.76,-2.76,-2.76,-2.76,-2.76,-2.76,-2.76,-2.76,-2.76,-2.76,-2.76,-2.76,-2.8858,-2.9606,-2.9606,-3.0808,-3.1511,-3.1511,-3.1511,-3.1278,-3.0807,-3.0807,-3.0554,-3.007,-3.102,-3.1765,-1.9068,-1.9422,0.0,-2.0802,-2.129,-2.1851,-2.3001,-2.3197,-2.343,-2.4451,-2.4835,-2.5253,-2.6164,-2.671,-2.7346,-2.836,-2.8724,-2.87,-2.8185,-2.828,-2.82,-2.7749,-2.8279,-2.9223,-3.0673,-3.1486,-3.2332,-3.344,-3.3933,-3.4592,-3.5459,-3.5504,-3.5504,-3.5504,-3.5325,-3.531,-3.5504,-3.513,-3.4982,-3.5001,-3.3804,-3.3419,-3.379,-3.2748,-3.2299,-3.2299,-3.2299,-3.1979,-3.1511,-3.1511,-3.1511,-3.1511,-3.1511,-3.1077,-3.0477,-3.0313,-3.0133,-2.9894,-2.9277,-2.9052,-2.9052,-2.9052,-2.9052,-2.8963,-2.8457,-2.8308,-2.8203,-2.7735,-2.76,-2.76,-2.76,-2.76,-2.76,-2.76,-2.76,-2.76,-2.76,-2.76,-2.76,-2.76,-2.76,-2.76,-2.76,-2.76,-2.76,-2.76,-2.76,-2.76,-2.76,-2.76,-2.76,-2.76,-2.76,-2.76,-2.76,-2.76,-2.7675,-2.7869,-2.8963,-2.9654,-2.9846,-3.0712,-3.1161,-3.1161,-3.0925,-3.0524,-2.995,-2.995,-2.9628,-2.9016,-2.9688,-3.0201,0.0,0.0,-1.8025,-1.9501,-2.0252,-2.0778,-2.135,-2.1868,-2.2264,-2.2275,-2.2658,-2.3167,-2.3725,-2.4923,-2.6208,-2.7361,-2.8333,-2.87,-2.8185,-2.8121,-2.8015,-2.7735,-2.7736,-2.8084,-2.9002,-2.9872,-3.1228,-3.3333,-3.3514,-3.4098,-3.5429,-3.5504,-3.5504,-3.5504,-3.4861,-3.4831,-3.5489,-3.4203,-3.3544,-3.3545,-3.2856,-3.2198,-3.1583,-3.1539,-3.1524,-3.1524,-3.1524,-3.1524,-3.1511,-3.1511,-3.1511,-3.1511,-3.1511,-3.1077,-3.0432,-2.9834,-2.9205,-2.8562,-2.7899,-2.766,-2.766,-2.766,-2.766,-2.766,-2.763,-2.763,-2.763,-2.76,-2.76,-2.76,-2.76,-2.76,-2.76,-2.76,-2.76,-2.76,-2.76,-2.76,-2.76,-2.76,-2.76,-2.76,-2.76,-2.76,-2.76,-2.76,-2.76,-2.76,-2.76,-2.76,-2.76,-2.76,-2.76,-2.76,-2.76,-2.76,-2.7884,-2.8532,-2.9232,-2.9849,-3.0447,-3.0368,-3.0329,-3.0329,-2.9504,-2.9066,-2.9034,-2.9034,-2.9034,-2.9016,-2.9688,-3.0012,-1.6948,0.0,-1.8094,-1.9085,-1.9547,-1.9922,-2.0706,-2.0853,-2.0967,-2.1531,-2.159,-2.174,-2.2564,-2.3103,-2.3824,-2.5169,-2.6833,-2.7865,-2.7595,-2.8175,-2.8483,-2.8,-2.7982,-2.832,-2.9179,-2.9375,0.0,-3.1574,-3.2283,-3.3171,-3.4437,-3.5133,-3.5295,-3.4846,-3.4638,-3.4382,-3.4173,-3.3724,-3.3275,-3.2841,-3.2153,-3.172,-3.1511,-3.1511,-3.1511,-3.1511,-3.1511,-3.1511,-3.1511,-3.1511,-3.1511,-3.1511,-3.1511,-3.0866,-2.9809,-2.9073,-2.8444,-2.7899,-2.7675,-2.76,-2.76,-2.76,-2.76,-2.76,-2.76,-2.76,-2.76,-2.76,-2.76,-2.76,-2.76,-2.76,-2.7484,-2.6982,-2.6878,-2.6747,-2.6242,-2.6135,-2.6135,-2.6135,-2.6135,-2.6135,-2.6135,-2.6135,-2.6135,-2.6135,-2.6967,-2.76,-2.76,-2.76,-2.76,-2.76,-2.76,-2.76,-2.76,-2.7494,-2.7484,-2.7717,-2.824,-2.8618,-2.8846,-2.9242,-2.9442,-2.9442,-2.916,-2.8716,-2.8149,-2.8149,-2.7855,-2.7364,-2.7579,-2.7879,-1.611,-1.6749,-1.7274,-1.8053,-1.8312,-1.8566,-1.9275,-1.9288,-1.9326,-2.0044,-1.9981,-2.0035,-2.0773,-2.1225,-2.195,-2.352,-2.5253,-2.6588,-2.7225,-2.7876,-2.8287,-2.8135,-2.8109,-2.8303,-2.8876,-2.8792,0.0,-3.0945,-3.1634,-3.242,-3.3441,-3.3941,-3.3984,-3.3547,-3.3382,-3.323,-3.3022,-3.2869,-3.2557,-3.2123,-3.1705,-3.1511,-3.1511,-3.1511,-3.1511,-3.1511,-3.1511,-3.1511,-3.1511,-3.1511,-3.1511,-3.1467,-3.119,-3.029,-2.9083,-2.8268,-2.7479,-2.6811,-2.6811,-2.6982,-2.7203,-2.7203,-2.7203,-2.7203,-2.7203,-2.7203,-2.7137,-2.689,-2.6811,-2.6811,-2.6811,-2.6811,-2.6692,-2.6229,-2.6122,-2.5987,-2.5508,-2.5398,-2.5398,-2.5398,-2.5398,-2.5398,-2.5398,-2.5398,-2.5398,-2.5398,-2.6215,-2.6811,-2.6811,-2.7265,-2.7484,-2.7229,-2.7203,-2.7203,-2.7203,-2.7016,-2.7018,-2.7244,-2.7718,-2.8109,-2.8346,-2.8479,-2.8524,-2.8524,-2.8247,-2.7835,-2.7263,-2.7263,-2.7007,-2.6499,-2.6499,-2.6688,-1.5128,-1.541,-1.5615,-1.6453,-1.6687,-1.6814,-1.722,-1.7307,-1.7424,-1.7823,-1.7901,-1.8018,-1.8432,-1.9351,-2.0646,-2.2461,-2.3618,-2.4963,-2.6882,-2.723,-2.745,0.0,0.0,0.0,0.0,0.0,0.0,-3.1326,0.0,-3.1832,-3.2494,-3.2062,-3.1785,-3.1757,-3.1346,-3.1449,-3.204,-3.1603,-3.138,-3.138,-3.138,-3.138,-3.138,-3.138,-3.138,-3.138,-3.138,-3.138,-3.138,-3.138,-3.138,-3.1307,-3.0524,-2.9447,-2.8254,-2.7429,-2.6405,-2.5398,-2.5315,-2.5783,-2.6457,-2.6457,-2.6457,-2.6457,-2.6457,-2.6457,-2.6283,-2.5591,-2.5398,-2.5398,-2.5398,-2.5398,-2.5398,-2.5342,-2.5342,-2.5315,-2.5287,-2.5287,-2.5287,-2.5287,-2.5287,-2.5287,-2.5287,-2.5287,-2.5287,-2.5287,-2.5342,-2.5384,-2.5412,-2.6613,-2.7229,-2.6553,-2.6474,-2.6488,-2.6517,-2.6358,-2.6495,-2.7118,-2.7663,-2.8222,-2.8848,-2.8084,-2.7637,-2.7637,-2.6871,-2.6499,-2.6499,-2.6499,-2.6499,-2.6499,-2.6499,-2.6499,-1.4883,-1.5439,-1.5977,-1.6212,-1.6484,-1.6645,-1.6331,-1.6281,-1.6309,-1.641,-1.6438,-1.6593,-1.7083,-1.8458,0.0,-2.0524,-2.2671,0.0,-2.5306,-2.6188,0.0,-2.6892,0.0,-2.8108,-2.8108,-2.8855,0.0,0.0,-3.0526,-3.0949,-3.1546,-3.1711,-3.1557,-3.108,-3.055,-3.0135,-2.9809,-2.969,-2.9628,-2.9628,-2.9628,-2.9628,-2.9628,-2.9628,-2.9628,-2.9628,-2.9628,-2.9628,-2.9628,-2.9628,-2.9628,-2.9628,-2.9411,-2.8594,-2.7415,-2.6668,-2.5968,-2.5231,-2.4063,-2.4553,-2.5673,-2.5673,-2.5673,-2.5673,-2.5673,-2.5673,-2.5646,-2.5453,-2.5398,-2.5398,-2.5398,-2.5398,-2.5259,-2.4709,-2.4567,-2.4423,-2.3813,-2.3708,-2.3708,-2.3708,-2.3708,-2.3708,-2.3708,-2.3708,-2.3708,-2.3708,-2.4531,-2.5235,-2.537,-2.5728,-2.6033,-2.6245,-2.6273,-2.644,-2.6842,-2.6691,-2.6645,-2.6822,-2.687,-2.6953,-2.7129,-2.6905,-2.6816,-2.6816,-2.6589,-2.6499,-2.6499,-2.6499,-2.6499,-2.6499,-2.6499,-2.6499,-1.501,-1.541,-1.5781,-1.5781,-1.5967,-1.6096,-1.6017,-1.5716,-1.5609,-1.616,-1.5542,-1.5245,-1.6475,-1.7355,-1.8349,0.0,0.0,0.0,-2.4629,-2.5336,-2.5922,0.0,-2.7046,0.0,-2.8044,-2.847,-2.8917,0.0,-2.9857,-3.0272,-3.057,-3.0329,-2.9993,-2.964,-2.9208,-2.8993,-2.9002,-2.9002,-2.9002,-2.9002,-2.9002,-2.9002,-2.9002,-2.9002,-2.9002,-2.9002,0.0,-2.9002,-2.9002,-2.9002,-2.9002,-2.8943,-2.8334,-2.7511,-2.6597,-2.5559,-2.4848,-2.4266,-2.3382,-2.3679,-2.4439,-2.4809,-2.4922,-2.4922,-2.4922,-2.4922,-2.4838,-2.4496,-2.4381,-2.4381,-2.4381,-2.4381,-2.4295,-2.3884,-2.3767,-2.3662,-2.3198,-2.3108,-2.3108,-2.3108,-2.3108,-2.3108,-2.3108,-2.3108,-2.3108,-2.3108,-2.3968,-2.4667,-2.4773,-2.5561,-2.6094,-2.6083,-2.6064,-2.6185,-2.6496,-2.6338,-2.6206,-2.6206,-2.6396,-2.6499,-2.6499,-2.6499,-2.6499,-2.6499,-2.6499,-2.6499,-2.6499,-2.6499,-2.6499,-2.6499,-2.6499,-2.6499,-1.5215,-1.5322,-1.5342,-1.54,-1.541,-1.5498,-1.5836,-1.5272,-1.5032,-1.6207,0.0,-1.4081,-1.6207,-1.6393,-1.7017,-1.949,0.0,-2.2056,-2.4281,-2.4585,-2.4957,-2.5933,-2.6182,-2.6603,-2.7509,-2.7297,-2.7531,-2.8499,-2.9074,-2.9438,-2.9566,-2.8574,-2.7959,-2.7896,-2.7679,-2.7887,-2.8652,-2.8684,-2.8684,-2.8684,-2.8684,-2.8684,-2.8684,-2.8684,-2.8684,-2.8684,-2.8684,-2.8684,-2.8684,-2.8684,-2.8684,-2.8534,-2.725,-2.6396,-2.5769,-2.4462,-2.364,-2.3108,-2.3108,-2.3108,-2.3215,-2.3914,-2.4147,-2.4147,-2.4147,-2.4147,-2.4002,-2.3305,-2.3108,-2.3108,-2.3108,-2.3108,-2.3108,-2.3108,-2.3108,-2.3108,-2.3108,-2.3108,-2.3108,-2.3108,-2.3108,-2.3108,-2.3108,-2.3108,-2.3108,-2.3108,-2.3659,-2.4104,-2.4104,-2.5616,-2.6502,-2.5918,-2.5869,-2.5895,-2.5986,-2.5837,-2.5711,-2.5711,-2.6223,-2.6499,-2.6499,-2.6499,-2.6499,-2.6499,-2.6499,-2.6499,-2.6499,-2.6499,-2.6499,-2.6499,-2.6499,-2.6499,-1.4775,-1.4893,-1.498,-1.5322,-1.541,-1.5312,-1.4995,-1.427,0.0,0.0,-1.3673,-1.3219,-1.5744,-1.6449,-1.7404,-1.9538,-2.0967,-2.2173,-2.3258,-2.3387,-2.3464,0.0,-2.45,-2.5061,-2.4871,-2.5576,0.0,0.0,-2.7105,-2.7517,-2.8361,-2.7783,-2.7253,-2.6788,-2.6725,-2.6782,-2.6939,-2.6939,-2.6939,-2.6939,-2.6939,-2.6939,-2.6939,-2.6939,-2.6939,-2.6939,-2.6939,0.0,-2.6939,-2.6939,-2.6939,-2.6841,-2.6113,-2.5501,-2.4925,-2.4255,-2.364,-2.3108,-2.3108,-2.3108,-2.3138,-2.3245,-2.3305,-2.3305,-2.3305,-2.3305,-2.3275,-2.3125,-2.3108,-2.3108,-2.3108,-2.3108,-2.3108,-2.3108,-2.3108,-2.3108,-2.3108,-2.3108,-2.3108,-2.3108,-2.3108,-2.3108,-2.3108,-2.3108,-2.3108,-2.3108,-2.3985,-2.465,-2.465,-2.4969,-2.5301,-2.5628,-2.5633,-2.5869,-2.635,-2.6354,-2.6348,-2.6348,-2.6436,-2.6499,-2.6499,-2.6499,-2.6499,-2.6499,-2.6499,-2.6499,-2.6499,-2.6499,-2.6499,-2.6499,-2.6499,-2.6499,-1.4358,-1.4609,-1.4862,-1.5039,-1.4917,-1.4832,-1.5029,0.0,0.0,0.0,-1.2893,-1.2193,-1.4324,-1.5442,0.0,-1.822,-1.9841,-2.124,-2.2334,-2.249,-2.2646,-2.3042,-2.3594,-2.3994,-2.4157,-2.4373,-2.4735,-2.5358,-2.5145,-2.5882,-2.7999,-2.7582,-2.7065,-2.6512,-2.6499,-2.6499,-2.6499,-2.6499,-2.6499,-2.6499,-2.6499,-2.6499,-2.6499,-2.6499,-2.6499,-2.6499,-2.6499,-2.6499,-2.6499,-2.6499,-2.6311,-2.5996,-2.541,-2.487,-2.4255,-2.3274,-2.2997,-2.2975,-2.2082,-2.2094,-2.2414,-2.1959,-2.2402,-2.3108,-2.3108,-2.3108,-2.3108,-2.3108,-2.3108,-2.3108,-2.3108,-2.3108,-2.3108,-2.3108,-2.2793,-2.2341,-2.1896,-2.1803,-2.1803,-2.1803,-2.1803,-2.1803,-2.1803,-2.1803,-2.1803,-2.1803,-2.2894,-2.3608,-2.3354,-2.4451,-2.5435,-2.6021,-2.6084,-2.6197,-2.6474,-2.6499,-2.6499,-2.6499,-2.6499,-2.6499,-2.6499,-2.6499,-2.6499,-2.6499,-2.599,-2.5734,-2.5734,-2.5205,-2.4945,-2.4945,-2.5476,-2.5441,-1.3948,-1.4289,-1.4668,-1.4756,-1.4629,-1.4628,-1.5264,-1.3807,0.0,0.0,-1.2625,-1.1743,-1.326,-1.4319,-1.539,0.0,-1.8462,-2.0053,-2.1392,-2.1829,-2.2295,0.0,-2.3091,0.0,-2.3805,-2.334,0.0,-2.3908,-2.3683,-2.4563,-2.6968,-2.6721,-2.6387,-2.6188,-2.6176,-2.628,-2.6499,-2.6499,-2.6499,-2.6499,-2.6499,-2.6499,-2.6499,-2.6499,-2.6499,-2.6499,-2.6499,-2.6499,-2.6499,-2.6499,-2.6045,-2.5257,-2.4747,-2.4072,-2.3296,-2.2079,-2.2032,-2.2372,-2.1069,-2.1037,-2.1522,-2.0814,-2.1479,-2.2567,-2.2567,-2.2567,-2.2567,-2.2567,-2.2567,-2.2567,-2.2567,-2.2567,-2.2567,-2.2567,-2.2094,-2.1428,-2.0751,-2.059,-2.059,-2.059,-2.059,-2.059,-2.059,-2.059,-2.059,-2.059,-2.1634,-2.2306,-2.2048,-2.3761,-2.5247,-2.5812,-2.606,-2.6176,-2.6176,-2.5978,-2.5873,-2.5873,-2.5873,-2.5943,-2.6164,-2.5978,-2.5943,-2.6164,-2.5182,-2.4671,-2.4671,-2.3891,-2.3514,-2.3514,-2.4301,-2.4264,-1.3467,-1.3851,-1.426,-1.4687,-1.5041,-1.5323,-1.5381,0.0,-1.4025,-1.4174,-1.3055,-1.2477,-1.3811,-1.3753,-1.4166,-1.6163,0.0,-1.9091,-2.0375,-2.1631,-2.2627,-2.3042,0.0,0.0,-2.2676,-2.2296,-2.2241,-2.2811,-2.3235,-2.3632,-2.3906,-2.3872,-2.4238,-2.5123,-2.5158,-2.5594,-2.6499,-2.6499,-2.6499,-2.6499,-2.6499,-2.6499,-2.6499,-2.6499,-2.6499,-2.6499,-2.6499,-2.6499,0.0,-2.6499,-2.5679,-2.4364,-2.3838,-2.2805,-2.156,-2.0963,-2.0782,-2.0814,-2.0655,-2.0655,-2.0719,-2.0623,-2.0719,-2.0846,-2.0846,-2.0846,-2.0846,-2.0846,-2.0846,-2.0846,-2.0846,-2.0846,-2.0846,-2.0846,-2.0782,-2.0687,-2.0623,-2.059,-2.059,-2.059,-2.059,-2.059,-2.059,-2.059,-2.059,-2.059,-2.1103,-2.1632,-2.1945,-2.2658,-2.3309,-2.3725,-2.4588,-2.5158,-2.5158,-2.4301,-2.3781,-2.3781,-2.3781,-2.4181,-2.5111,-2.4253,-2.4217,-2.5123,-2.4145,-2.3635,-2.3635,-2.3562,-2.3514,-2.3514,-2.3588,-2.3588,-1.3111,-1.3623,-1.4143,-1.4319,-1.4525,-1.4805,-1.5294,0.0,-1.3819,-1.3726,-1.3267,-1.2833,-1.2794,-1.3186,-1.389,-1.4922,-1.5893,-1.6989,-1.8359,-1.9684,-2.0837,-2.1695,-2.2567,0.0,0.0,0.0,-2.1786,-2.1477,-2.163,-2.1745,-2.1745,-2.285,-2.3672,-2.4072,-2.4108,-2.4289,-2.4696,-2.4684,-2.4684,-2.4696,-2.5323,-2.5594,-2.5594,-2.5594,-2.5594,-2.5534,-2.4706,-2.4484,0.0,-2.413,-2.3535,-2.2857,-2.2407,-2.1682,-2.0827,-2.0085,-2.0139,-2.0462,-1.9398,-1.9365,-1.9716,-1.921,-1.9044,-1.9243,-2.0268,-2.059,-2.059,-2.059,-2.059,-2.059,-2.059,-2.059,-2.0462,-1.9944,-1.9814,-1.965,-1.9144,-1.9044,-1.9044,-1.9044,-1.9044,-1.9044,-1.9044,-1.9044,-1.9044,-1.9044,-1.9889,-2.0482,-2.0398,-2.1778,-2.2725,-2.261,-2.3514,-2.4108,-2.4108,-2.3745,-2.3514,-2.3514,-2.3514,-2.3672,-2.4072,-2.3708,-2.3697,-2.4084,-2.311,-2.259,-2.259,-2.2048,-2.1745,-2.1783,-2.2328,-2.2301,-1.3062,-1.3584,-1.4133,-1.427,-1.444,-1.4754,0.0,-1.4723,-1.3855,-1.3645,-1.3395,-1.2987,-1.2077,-1.2676,-1.3345,0.0,-1.4458,-1.5504,-1.6718,-1.8096,-1.9324,-2.0368,0.0,-2.2475,-2.2179,-2.1987,-2.1572,-2.082,-2.0674,-2.0605,-2.0605,-2.1897,-2.2776,-2.3036,-2.3073,-2.3184,-2.3514,-2.3514,-2.3514,-2.3514,-2.4228,-2.4564,-2.4552,-2.4448,-2.4377,-2.4319,-2.3186,-2.2846,0.0,-2.2442,-2.19,-2.1414,-2.1118,-2.0533,-1.9748,-1.9144,-1.9299,-1.9661,-1.8438,-1.8395,-1.8821,-1.8202,-1.8008,-1.8236,-1.9464,-1.9814,-1.9814,-1.9814,-1.9814,-1.9814,-1.9814,-1.9814,-1.9694,-1.9044,-1.8921,-1.8754,-1.8144,-1.8008,-1.8008,-1.8008,-1.8008,-1.8008,-1.8008,-1.8008,-1.8008,-1.8008,-1.8857,-1.9474,-1.9337,-2.0829,-2.1781,-2.1618,-2.2226,-2.2739,-2.3036,-2.2813,-2.2638,-2.2638,-2.2638,-2.2776,-2.3036,-2.2787,-2.2776,-2.3036,-2.2075,-2.1593,-2.1593,-2.0934,-2.0605,-2.0605,-2.126,-2.1221,-1.3389,-1.3782,-1.4211,-1.4678,-1.5098,-1.5498,-1.5987,-1.5364,-1.4572,-1.4171,-1.3567,-1.2846,-1.2048,-1.2141,-1.2305,-1.2305,-1.3724,-1.5051,-1.5804,-1.7355,-1.8671,0.0,-2.0567,-2.1337,-2.1328,-2.1655,-2.1699,-2.122,-2.081,0.0,-2.0605,-2.0605,-2.1049,-2.1989,-2.2027,-2.2478,-2.3478,-2.3514,-2.3514,-2.3514,-2.3514,-2.3514,-2.3503,-2.3093,-2.2915,-2.2893,-2.2421,-2.2207,0.0,-2.2195,-2.1392,-2.0128,-2.0128,-1.9243,-1.8042,-1.8008,-1.8008,-1.8008,-1.8008,-1.8008,-1.8008,-1.8008,-1.8008,-1.8008,-1.8008,-1.8042,-1.8042,-1.8042,-1.8042,-1.8042,-1.8042,-1.8042,-1.8008,-1.8008,-1.8008,-1.8008,-1.8008,-1.8008,-1.8008,-1.8008,-1.8008,-1.8008,-1.8008,-1.8008,-1.8008,-1.8008,-1.8369,-1.8789,-1.9228,-1.9648,-2.0126,-2.0556,-2.0644,-2.1011,-2.1924,-2.1155,-2.0644,-2.0644,-2.0644,-2.1039,-2.2,-2.1116,-2.1088,-2.1989,-2.1078,-2.0605,-2.0605,-2.0605,-2.0605,-2.0605,-2.0605,-2.0605,-1.387,-1.4248,-1.4609,-1.4746,-1.5351,-1.5738,-1.5244,-1.5342,-1.5103,-1.3724,-1.347,-1.331,-1.2655,-1.2583,-1.2844,-1.342,-1.3783,0.0,0.0,0.0,0.0,-1.7892,-1.9196,-2.03,0.0,0.0,-2.0786,-2.1179,-2.082,-2.0605,-2.0605,-2.0605,-2.075,-2.1039,-2.1039,-2.1193,-2.1527,-2.1527,-2.1527,-2.1527,-2.2188,-2.2478,-2.2478,-2.2328,-2.2118,-2.1807,-2.0704,-2.0232,-2.018,-1.9565,-1.9239,-1.9049,-1.8783,-1.8388,-1.8008,-1.8008,-1.8008,-1.8008,-1.8008,-1.8008,-1.8008,-1.8008,-1.8008,-1.8008,-1.8008,-1.8008,-1.8008,-1.8008,-1.8008,-1.8008,-1.8008,-1.8008,-1.8008,-1.8008,-1.8008,-1.8008,-1.8008,-1.8008,-1.8008,-1.8008,-1.8008,-1.8008,-1.8008,-1.8008,-1.8008,-1.8008,-1.8623,-1.9131,-1.9268,-1.9912,-2.0449,-2.0586,-2.0605,-2.0712,-2.1011,-2.0789,-2.0605,-2.0605,-2.0605,-2.075,-2.1039,-2.075,-2.075,-2.1049,-2.075,-2.0605,-2.0605,-2.0605,-2.0605,-2.0605,-2.0605,-2.0605,0.0,-1.458,-1.4852,-1.498,-1.5576,-1.588,-1.5114,-1.5153,-1.4993,-1.3628,-1.3346,-1.3266,-1.2864,-1.2878,-1.3146,-1.3667,-1.3788,0.0,0.0,0.0,0.0,-1.7318,-1.8225,0.0,0.0,-1.9748,-1.96,-2.0095,-1.9635,-1.9353,-1.9353,-1.9756,-2.0001,-2.0001,-2.0401,-2.0605,-2.0605,-2.0605,-2.0605,-2.0605,-2.1193,-2.1479,-2.1479,-2.1305,-2.0988,-2.0549,-1.9508,-1.8955,0.0,-1.8232,-1.8164,-1.8344,-1.8115,-1.8008,-1.8008,-1.8008,-1.8008,-1.8008,-1.8008,-1.8008,-1.794,-1.7579,-1.7226,-1.6941,-1.6941,-1.7442,-1.8008,-1.8008,-1.8008,-1.8008,-1.8008,-1.7759,-1.7467,-1.7467,-1.7182,-1.6941,-1.6941,-1.6941,-1.6941,-1.6941,-1.6941,-1.6941,-1.6941,-1.6941,-1.7044,-1.7432,-1.7837,-1.8249,-1.8645,-1.9449,-2.0001,-2.0001,-2.0362,-2.0605,-2.0605,-2.0605,-2.0605,-2.0605,-2.0605,-2.0605,-2.0605,-2.0605,-2.0605,-2.0605,-2.0605,-2.0605,-2.0605,-2.0605,-2.0605,-2.0605,-2.0605,-2.0605,0.0,-1.4825,-1.4932,-1.5352,-1.5791,-1.5965,-1.5373,-1.4865,0.0,-1.3714,-1.3161,-1.2797,-1.2844,-1.3046,-1.3267,-1.3353,-1.3808,0.0,0.0,-1.5084,0.0,0.0,-1.7552,-1.8048,-1.9268,-1.8704,-1.8329,-1.8372,-1.7705,-1.7302,-1.7302,-1.831,-1.8877,-1.8877,-1.9835,-2.0401,-2.0489,-2.0489,-2.0489,-2.0489,-2.0566,-2.0605,-2.0586,-2.0117,-1.9687,0.0,-1.8792,-1.8329,-1.7906,-1.7974,-1.7974,-1.7906,-1.7974,-1.7974,-1.7896,-1.7896,-1.7862,-1.7794,-1.7794,-1.7794,-1.7647,-1.6784,-1.5895,-1.5199,-1.5199,-1.6402,-1.7794,-1.7794,-1.7794,-1.7794,-1.7794,-1.7139,-1.6498,-1.6498,-1.5825,-1.5199,-1.5199,-1.5199,-1.5199,-1.5199,-1.5199,-1.5199,-1.5199,-1.5199,-1.5517,-1.6358,-1.6317,-1.6539,-1.7468,-1.8354,-1.8877,-1.8877,-1.9756,-2.0362,-2.0362,-2.0518,-2.0605,-2.0605,-2.0605,-2.0605,-2.0605,-2.0605,-2.0605,-2.0605,-2.0605,-2.0605,-2.0605,-2.0605,-2.0605,-2.0605,-2.0605,-2.0605,-1.4626,0.0,-1.5371,-1.5831,-1.624,-1.6218,0.0,-1.487,-1.4561,-1.2967,0.0,-1.2924,-1.3347,-1.3453,-1.3793,-1.4736,-1.481,-1.4937,-1.5451,-1.5638,-1.5846,-1.619,-1.6244,-1.6756,-1.8002,-1.7475,-1.7419,-1.8329,-1.7705,-1.7302,-1.7302,-1.7536,-1.7698,-1.7698,-1.794,-1.851,-1.9362,-1.9362,-1.9362,-1.9402,-2.0206,-2.0605,-2.0586,-2.0117,-1.9687,-1.9268,-1.8792,-1.7951,-1.7001,-1.7681,-1.7579,-1.7001,-1.7716,-1.7579,-1.6922,-1.6922,-1.6472,-1.5869,-1.5869,-1.5869,-1.5834,-1.5587,-1.5376,-1.5199,-1.5199,-1.5517,-1.5869,-1.5869,-1.5869,-1.5869,-1.5869,-1.5693,-1.5517,-1.5517,-1.5376,-1.5199,-1.5199,-1.5199,-1.5199,-1.5199,-1.5199,-1.5199,-1.5199,-1.5199,-1.5269,-1.5517,-1.5913,-1.6304,-1.6531,-1.7234,-1.7698,-1.7698,-1.7948,-1.806,-1.806,-1.9638,-2.0605,-2.0605,-2.0605,-2.0605,-2.0605,-2.0605,-2.0605,-2.0605,-2.0605,-2.0605,-2.0605,-2.0605,-2.0605,-2.0605,-2.0605,-2.0605,-1.4546,-1.5152,-1.5666,-1.649,-1.667,-1.6318,-1.5101,0.0,0.0,0.0,0.0,-1.306,-1.3347,-1.3733,-1.4213,-1.489,-1.509,0.0,-1.5718,-1.5784,-1.5784,-1.5784,-1.5784,-1.6008,0.0,-1.615,-1.6066,-1.656,-1.6129,-1.5835,-1.5835,-1.6322,-1.656,-1.656,-1.656,-1.709,-1.823,-1.823,-1.823,-1.823,-1.8829,-1.9006,-1.8893,-1.8636,-1.8217,-1.7697,-1.7442,-1.6795,-1.6,-1.6515,-1.6437,-1.6009,-1.6507,-1.6402,-1.5965,-1.5965,-1.5658,-1.5199,-1.5199,-1.4914,-1.4522,-1.4522,-1.4199,-1.3875,-1.3875,-1.3875,-1.4055,-1.495,-1.5199,-1.5199,-1.5199,-1.4843,-1.4522,-1.4522,-1.4163,-1.3875,-1.3875,-1.3875,-1.3875,-1.3875,-1.3875,-1.3875,-1.3875,-1.3875,-1.4019,-1.445,-1.4704,-1.4988,-1.5396,-1.6126,-1.656,-1.656,-1.7009,-1.7302,-1.7302,-1.839,-1.9107,-1.9107,-1.9107,-1.9107,-1.9107,-1.9107,-1.9107,-1.9107,-1.9107,-1.9107,-1.9107,-1.9107,-1.9107,-1.9107,-1.9107,-1.9353,-1.4282,-1.4947,-1.5564,-1.6849,-1.6859,-1.6306,-1.5234,0.0,0.0,0.0,0.0,0.0,0.0,-1.4015,0.0,0.0,0.0,-1.5311,-1.5744,-1.5784,-1.5784,-1.5784,-1.5784,0.0,-1.5424,-1.5182,-1.4843,-1.4543,-1.4249,-1.4088,-1.4088,-1.4977,-1.5455,-1.5455,-1.5455,-1.5887,-1.6733,-1.6944,-1.705,-1.705,-1.7212,-1.7176,-1.689,-1.6824,-1.6433,-1.5801,0.0,0.0,-1.4985,-1.5128,-1.5128,-1.4985,-1.5128,-1.5128,-1.4985,-1.4985,-1.4879,-1.4772,-1.4772,-1.4207,-1.3491,-1.3491,-1.2952,-1.2305,-1.2305,-1.2305,-1.2622,-1.4307,-1.4772,-1.4772,-1.4772,-1.4127,-1.3491,-1.3491,-1.2879,-1.2305,-1.2305,-1.2305,-1.2305,-1.2305,-1.2305,-1.2305,-1.2305,-1.2305,-1.2556,-1.3382,-1.331,-1.3476,-1.4265,-1.5017,-1.5455,-1.5455,-1.6281,-1.6813,-1.6813,-1.6813,-1.6813,-1.6813,-1.7131,-1.7302,-1.7302,-1.7302,-1.7302,-1.7302,-1.7302,-1.7302,-1.7302,-1.7302,-1.7302,-1.7302,-1.7302,-1.7827,-1.3066,-1.3832,-1.4476,-1.5799,-1.6381,-1.6149,-1.435,0.0,0.0,0.0,0.0,0.0,0.0,-1.4429,-1.4395,0.0,0.0,-1.4512,-1.5629,-1.5784,-1.5784,-1.5784,-1.5784,-1.5712,-1.5424,-1.5182,-1.4843,-1.4543,-1.4249,-1.4088,-1.4088,-1.425,-1.4334,-1.4334,-1.4334,-1.4289,-1.4192,-1.5364,-1.5944,-1.5944,-1.6887,-1.7176,-1.6874,-1.6489,-1.6117,-1.5785,0.0,-1.4784,-1.3991,-1.4843,-1.47,-1.4027,-1.4879,-1.4665,-1.3918,-1.3918,-1.3419,-1.2732,-1.2732,-1.2622,-1.2519,-1.2519,-1.2409,-1.2305,-1.2305,-1.2305,-1.2372,-1.2659,-1.2732,-1.2732,-1.2732,-1.2622,-1.2519,-1.2519,-1.2409,-1.2305,-1.2305,-1.2305,-1.2305,-1.2305,-1.2305,-1.2305,-1.2305,-1.2305,-1.2342,-1.2482,-1.2896,-1.3246,-1.3397,-1.396,-1.4334,-1.4334,-1.4496,-1.458,-1.458,-1.458,-1.458,-1.458,-1.6288,-1.7302,-1.7302,-1.7302,-1.7302,-1.7302,-1.7302,-1.7302,-1.7302,-1.7302,-1.7302,-1.7302,-1.7302,-1.7383,-1.2613,-1.3376,-1.3876,-1.4756,-1.5544,-1.5867,-1.4986,0.0,0.0,0.0,0.0,0.0,0.0,0.0,-1.3676,-1.2934,-1.2813,-1.3011,-1.3596,-1.3692,-1.3692,-1.3692,-1.3618,-1.3479,-1.3222,-1.3011,-1.3019,-1.3281,-1.3187,-1.3421,-1.4088,-1.4088,-1.4015,-1.3854,-1.3848,-1.3707,-1.3373,-1.4053,-1.4436,-1.4557,-1.509,-1.5149,-1.4902,-1.4528,-1.4193,-1.391,0.0,-1.3375,-1.2989,-1.3448,-1.3339,-1.2989,-1.3448,-1.3339,-1.2952,-1.2952,-1.2659,-1.2305,-1.2305,-1.2305,-1.2305,-1.2305,-1.2305,-1.2305,-1.2305,-1.2305,-1.2305,-1.2305,-1.2305,-1.2305,-1.2305,-1.2305,-1.2305,-1.2305,-1.2305,-1.2305,-1.2305,-1.2305,-1.2305,-1.2305,-1.2305,-1.2351,-1.2549,-1.2583,-1.2636,-1.2766,-1.3166,-1.3407,-1.3407,-1.3821,-1.4088,-1.4088,-1.4088,-1.4088,-1.4088,-1.4088,-1.4088,-1.4088,-1.5026,-1.5553,-1.5553,-1.5553,-1.5553,-1.5553,-1.5553,-1.5553,-1.5553,-1.5553,-1.5553,-1.5553,-1.5553,-1.5876,-1.2202,-1.2841,-1.3239,-1.3747,0.0,-1.5356,-1.5233,0.0,0.0,0.0,0.0,0.0,0.0,-1.3325,-1.2437,-1.1945,-1.1619,-1.1556,-1.1848,-1.1896,-1.1876,-1.1874,-1.1765,-1.1594,-1.1273,-1.118,-1.1333,-1.1875,-1.1895,-1.2291,-1.3215,-1.3237,-1.3104,-1.2848,-1.282,-1.2656,-1.2378,-1.2685,-1.3074,-1.35,-1.35,-1.3387,-1.3093,-1.2891,-1.2623,-1.2305,-1.2305,-1.2305,-1.2305,-1.2305,-1.2305,-1.2305,-1.2305,-1.2305,-1.2305,-1.2305,-1.2305,-1.2268,-1.2033,-1.1959,-1.1959,-1.1959,-1.1959,-1.1996,-1.2224,-1.2305,-1.2305,-1.2305,-1.2305,-1.2305,-1.2305,-1.2305,-1.2305,-1.2305,-1.2305,-1.2305,-1.2305,-1.2305,-1.2305,-1.2305,-1.2129,-1.2172,-1.2705,-1.2645,-1.2654,-1.3134,-1.3413,-1.36,-1.36,-1.3901,-1.4088,-1.4088,-1.4088,-1.4088,-1.4088,-1.4088,-1.4088,-1.4088,-1.4088,-1.4088,-1.4088,-1.4088,-1.4088,-1.4088,-1.4088,-1.4088,-1.4088,-1.4088,-1.4088,-1.4088,-1.4088,-1.4531,-1.1337,-1.1748,-1.2155,-1.275,0.0,0.0,-1.3858,-1.3674,0.0,0.0,0.0,0.0,0.0,-1.1705,-1.0555,-1.1567,-1.0844,-1.0534,-1.175,-1.1896,-1.1869,-1.1752,-1.1716,-1.1533,-1.1144,-1.1088,-1.0986,-1.0755,-1.074,-1.074,-1.0869,-1.0752,-1.0663,-1.0648,-1.0495,-1.0274,-0.9964,-1.1181,-1.2286,-1.324,-1.324,-1.308,-1.2817,-1.2797,-1.2623,-1.2305,-1.2305,-1.2305,-1.2305,-1.2305,-1.2305,-1.2305,-1.2305,-1.2305,-1.2305,-1.2305,-1.2305,-1.215,-1.1236,-1.0901,-1.0901,-1.0901,-1.0901,-1.1087,-1.204,-1.2305,-1.2305,-1.2305,-1.2305,-1.2305,-1.2305,-1.2305,-1.2305,-1.2305,-1.2305,-1.2305,-1.2305,-1.2305,-1.2305,-1.2305,-1.1639,-1.1467,-1.2586,-1.2134,-1.1951,-1.3041,-1.3413,-1.36,-1.36,-1.3901,-1.4088,-1.4088,-1.4088,-1.4088,-1.4088,-1.4088,-1.4088,-1.4088,-1.4088,-1.4088,-1.4088,-1.4088,-1.4088,-1.4088,-1.4088,-1.4088,-1.4088,-1.4088,-1.4088,-1.4088,-1.4088,-1.413,-1.0104,-1.0819,-1.1415,-1.163,0.0,0.0,0.0,0.0,0.0,0.0,-1.4756,0.0,0.0,0.0,-0.9836,-0.9364,-0.9002,-0.892,-0.941,-0.9413,-0.9312,-0.9292,-0.9141,-0.8954,-0.8816,-0.8698,-0.887,-0.9497,-0.9536,-0.9836,-1.0567,-1.0478,-1.0289,-1.0111,-0.9938,-0.9763,-0.9461,-0.9967,-1.0407,-1.0793,-1.2241,-1.2898,-1.2777,-1.2589,-1.2412,-1.2305,-1.2305,-1.2305,-1.2305,-1.2305,-1.2305,-1.2224,-1.162,-1.0981,-1.0421,-1.0421,-1.0421,-1.0383,-1.0008,-0.9857,-0.9857,-0.9857,-0.9857,-0.9933,-1.0308,-1.0421,-1.0421,-1.0421,-1.0421,-1.072,-1.1966,-1.2305,-1.2305,-1.2305,-1.2305,-1.2305,-1.2305,-1.1805,-1.1354,-1.1354,-1.0652,-1.0283,-1.0903,-1.0816,-1.0911,-1.148,-1.1666,-1.1728,-1.1728,-1.1849,-1.1912,-1.1912,-1.1912,-1.2211,-1.2899,-1.2984,-1.3294,-1.4039,-1.4088,-1.4088,-1.4088,-1.4088,-1.4088,-1.4088,-1.4088,-1.4088,-1.4088,-1.4088,-1.4088,-1.4088,-1.4088,-1.4088,-0.9068,-0.9865,-1.0482,0.0,0.0,0.0,0.0,0.0,0.0,0.0,-1.3527,0.0,0.0,0.0,0.0,-0.7973,-0.7891,-0.7971,-0.7924,-0.7879,-0.7777,-0.7682,-0.7495,-0.7398,-0.7302,-0.7204,-0.7445,-0.8277,-0.8321,-0.8667,-0.944,-0.932,-0.911,-0.8891,-0.8722,-0.8526,-0.8351,-0.8656,-0.8846,-0.8846,-1.0787,-1.1682,-1.1676,-1.1452,-1.136,-1.136,-1.136,-1.136,-1.136,-1.136,-1.136,-1.1285,-1.0608,-0.9895,-0.9296,-0.9296,-0.9296,-0.9258,-0.8922,-0.8846,-0.8846,-0.8846,-0.8846,-0.8879,-0.9188,-0.9296,-0.9296,-0.9296,-0.9296,-0.9636,-1.0987,-1.136,-1.136,-1.136,-1.136,-1.136,-1.136,-1.0795,-1.034,-1.034,-0.9674,-0.9249,-0.9792,-0.9859,-0.9975,-1.0499,-1.0611,-1.0611,-1.0611,-1.0611,-1.0611,-1.0611,-1.0611,-1.0913,-1.1681,-1.1766,-1.212,-1.2954,-1.2997,-1.3343,-1.4088,-1.4088,-1.4088,-1.4088,-1.4088,-1.4088,-1.4088,-1.4088,-1.4088,-1.4088,-1.4088,-1.4088,-0.8398,-0.8849,-0.932,0.0,0.0,0.0,0.0,0.0,0.0,0.0,0.0,-0.981,-0.9762,-0.8716,0.0,-0.7807,-0.7887,-0.7931,-0.7831,-0.7807,-0.7699,-0.7453,-0.7415,-0.7309,-0.7109,-0.7095,-0.7095,-0.7095,-0.7095,-0.7095,-0.7095,-0.6861,-0.6702,-0.6698,-0.6453,-0.63,-0.63,-0.7288,-0.7783,-0.7783,-0.8803,-0.9296,-0.9296,-0.9296,-0.9296,-0.9296,-0.9296,-0.9296,-0.9296,-0.9296,-0.9296,-0.9296,-0.9296,-0.9263,-0.9258,-0.9258,-0.9258,-0.915,-0.8122,-0.7783,-0.7783,-0.7783,-0.7783,-0.797,-0.8955,-0.9258,-0.9258,-0.9258,-0.9258,-0.9258,-0.9258,-0.9258,-0.9263,-0.9296,-0.9296,-0.9296,-0.9296,-0.9296,-0.9296,-0.9296,-0.8709,-0.8528,-0.966,-0.931,-0.9279,-1.0394,-1.0567,-1.0567,-1.0567,-1.0567,-1.0567,-1.0567,-1.0567,-1.0567,-1.0567,-1.0567,-1.0611,-1.0611,-1.0611,-1.1649,-1.3997,-1.4088,-1.4088,-1.4088,-1.4088,-1.4088,-1.4088,-1.4088,-1.4088,-1.4088,-1.4088,-1.4088,-0.719,-0.8001,0.0,-0.8476,0.0,0.0,0.0,0.0,0.0,0.0,-1.0245,-0.9595,-0.8452,-0.8027,0.0,-0.7536,-0.7631,-0.7712,-0.7668,-0.757,-0.7468,-0.7429,-0.7275,-0.7146,-0.7102,-0.7095,-0.7095,-0.7095,-0.7095,-0.7051,-0.6953,-0.6807,-0.6651,-0.6542,-0.6399,-0.63,-0.63,-0.6606,-0.6756,-0.6756,-0.7061,-0.7936,-0.9296,-0.9296,-0.9296,-0.9296,-0.9296,-0.9296,-0.9296,-0.9296,-0.8879,-0.8237,-0.8237,-0.7821,-0.7173,-0.7173,-0.7173,-0.7138,-0.6834,-0.6756,-0.6756,-0.6756,-0.6756,-0.6795,-0.7099,-0.7173,-0.7173,-0.7173,-0.7173,-0.7173,-0.7173,-0.7173,-0.7557,-0.8955,-0.9296,-0.9296,-0.9296,-0.8732,-0.8237,-0.8237,-0.7645,-0.727,-0.7593,-0.7621,-0.7753,-0.8097,-0.8137,-0.8137,-0.8137,-0.8137,-0.8137,-0.8137,-0.8137,-0.8492,-0.9323,-0.9405,-0.9749,-1.0567,-1.0611,-1.1257,-1.2766,-1.2077,-1.2431,-1.4088,-1.3252,-1.3252,-1.4088,-1.4088,-1.4088,-1.4088,-1.4088,-1.4088,-0.655,-0.7242,0.0,-0.7834,-0.8301,-0.8554,-0.7966,0.0,0.0,0.0,-0.9008,-0.8684,-0.7762,-0.7621,-0.7597,-0.7482,-0.7539,-0.758,-0.7516,-0.7431,-0.735,-0.7285,-0.7152,-0.7095,-0.7095,-0.7095,-0.7095,-0.7095,-0.7045,-0.6974,-0.6889,-0.6725,-0.6566,-0.6515,-0.6375,-0.63,-0.63,-0.63,-0.63,-0.63,-0.63,-0.6945,-0.8122,-0.8122,-0.8122,-0.8122,-0.8122,-0.8122,-0.8122,-0.8122,-0.7744,-0.7215,-0.7215,-0.6834,-0.63,-0.63,-0.63,-0.63,-0.63,-0.63,-0.63,-0.63,-0.63,-0.63,-0.63,-0.63,-0.63,-0.63,-0.63,-0.63,-0.63,-0.63,-0.6606,-0.7821,-0.8122,-0.8122,-0.8122,-0.7629,-0.7215,-0.7215,-0.6882,-0.6627,-0.6692,-0.6898,-0.7031,-0.7088,-0.7095,-0.7095,-0.7095,-0.7095,-0.7095,-0.7095,-0.7095,-0.7401,-0.8101,-0.8189,-0.8492,-0.9183,-0.9226,-0.9744,-1.0907,-1.074,-1.1262,-1.2693,-1.1992,-1.1992,-1.2693,-1.2693,-1.2693,-1.2693,-1.2693,-1.2693,-0.6234,0.0,0.0,-0.7306,-0.7342,0.0,-0.7404,-0.743,-0.7446,-0.7577,0.0,-0.7431,-0.7556,-0.7465,-0.7411,-0.7539,-0.7556,-0.7509,-0.737,-0.7395,-0.7299,-0.7112,-0.7095,-0.7095,-0.7095,-0.7095,-0.7092,-0.7078,-0.6957,-0.6873,-0.6846,-0.6624,-0.6508,-0.6494,-0.6368,-0.63,-0.63,-0.63,-0.63,-0.63,-0.63,-0.63,-0.63,-0.63,-0.63,-0.63,-0.63,-0.63,-0.63,-0.63,-0.63,-0.63,-0.63,-0.63,-0.63,-0.63,-0.63,-0.63,-0.63,-0.63,-0.63,-0.63,-0.63,-0.63,-0.63,-0.6219,-0.6141,-0.6141,-0.6103,-0.6022,-0.6022,-0.6022,-0.6022,-0.6022,-0.6141,-0.63,-0.63,-0.63,-0.63,-0.63,-0.6416,-0.6555,-0.6658,-0.6817,-0.6933,-0.7075,-0.7095,-0.7095,-0.7095,-0.7095,-0.7095,-0.7095,-0.7095,-0.7095,-0.7095,-0.7095,-0.7095,-0.7095,-0.7095,-0.7577,-0.8671,-0.9749,-1.0394,-1.0611,-1.0481,-1.0481,-1.0611,-1.0611,-1.0611,-1.0611,-1.0611,-1.0611,-0.5046,-0.5825,0.0,0.0,-0.5332,-0.4731,-0.4676,-0.4663,-0.5239,-0.7201,-0.7573,-0.7522,-0.7438,-0.7439,-0.7343,-0.721,-0.7193,-0.7183,-0.7149,-0.7146,-0.7132,-0.7098,-0.7095,-0.7095,-0.7095,-0.7095,-0.7051,-0.694,-0.6903,-0.6824,-0.6583,-0.6549,-0.646,-0.6351,-0.6317,-0.63,-0.63,-0.63,-0.63,-0.63,-0.63,-0.63,-0.63,-0.63,-0.63,-0.63,-0.63,-0.63,-0.63,-0.63,-0.63,-0.63,-0.63,-0.63,-0.63,-0.63,-0.63,-0.63,-0.63,-0.63,-0.63,-0.63,-0.63,-0.63,-0.63,-0.5709,-0.504,-0.504,-0.4453,-0.3787,-0.3787,-0.3787,-0.3787,-0.3787,-0.5079,-0.63,-0.63,-0.63,-0.63,-0.63,-0.6416,-0.6521,-0.6555,-0.6749,-0.6933,-0.7075,-0.7095,-0.7095,-0.7095,-0.7095,-0.7095,-0.7095,-0.7095,-0.7095,-0.7095,-0.7095,-0.7095,-0.7095,-0.7095,-0.7228,-0.7492,-0.7705,-0.8703,-1.0567,-0.971,-0.9705,-1.0611,-1.0611,-1.0611,-1.0611,-1.0611,-1.0611,-0.4009,0.0,0.0,-0.4716,0.0,-0.3873,-0.383,-0.3748,-0.4095,-0.5428,-0.567,-0.5651,-0.5589,-0.5578,-0.5557,-0.545,-0.5442,-0.5408,-0.5408,-0.5405,-0.5413,-0.5413,-0.5413,-0.5413,-0.5413,-0.5413,-0.5389,-0.5331,-0.5231,-0.5353,-0.5712,-0.5201,-0.53,-0.6264,-0.5315,-0.5002,-0.5512,-0.504,-0.4766,-0.4766,-0.4766,-0.4766,-0.4805,-0.5825,-0.63,-0.63,-0.63,-0.63,-0.63,-0.63,-0.63,-0.63,-0.63,-0.5983,-0.555,-0.555,-0.5198,-0.4766,-0.4766,-0.4766,-0.4766,-0.4766,-0.4766,-0.4766,-0.4766,-0.4373,-0.3943,-0.3943,-0.3513,-0.3085,-0.3085,-0.3085,-0.3085,-0.3085,-0.3943,-0.4766,-0.4766,-0.4766,-0.4766,-0.4766,-0.481,-0.4885,-0.4997,-0.5206,-0.5553,-0.6195,-0.6293,-0.6473,-0.7051,-0.7095,-0.7095,-0.7095,-0.7095,-0.7095,-0.7095,-0.7095,-0.7095,-0.7095,-0.7095,-0.7095,-0.7095,-0.7095,-0.7661,-0.8921,-0.836,-0.8317,-0.8921,-0.8921,-0.8921,-0.8921,-0.8921,-0.8921,0.0,0.0,-0.3195,-0.3401,-0.3292,0.0,-0.3162,-0.3067,-0.2975,-0.2975,-0.3295,-0.3611,-0.3599,-0.3595,-0.3592,-0.3578,-0.3615,-0.3619,-0.3619,-0.3604,-0.3604,-0.3604,-0.3604,-0.3604,-0.3604,-0.3604,-0.3597,-0.3543,-0.3396,-0.3676,-0.4546,-0.3632,-0.3904,-0.5709,-0.4021,-0.3513,-0.4414,-0.3552,-0.3085,-0.3085,-0.3085,-0.3085,-0.3163,-0.4924,-0.5747,-0.5747,-0.5747,-0.5747,-0.5747,-0.5747,-0.5747,-0.5747,-0.5747,-0.5198,-0.4414,-0.4414,-0.3865,-0.3085,-0.3085,-0.3085,-0.3085,-0.3085,-0.3085,-0.3085,-0.3085,-0.2968,-0.2851,-0.2851,-0.2695,-0.2578,-0.2578,-0.2578,-0.2578,-0.2578,-0.2578,-0.2656,-0.3007,-0.3085,-0.3085,-0.3085,-0.3095,-0.3147,-0.3369,-0.3506,-0.3911,-0.4952,-0.509,-0.5445,-0.6381,-0.6694,-0.6827,-0.6827,-0.6962,-0.7095,-0.7095,-0.7095,-0.7095,-0.7095,-0.7095,-0.7095,-0.7095,-0.7095,-0.7095,-0.7095,-0.7095,-0.7095,-0.7095,-0.7095,-0.7095,-0.7095,-0.7095,-0.7095,0.0,0.0,-0.2018,0.0,-0.1287,-0.0496,0.0,0.0,-0.048,0.0,-0.2163,-0.3595,-0.3622,-0.361,-0.3587,-0.3604,-0.3584,-0.3619,-0.3619,-0.361,-0.3604,-0.3604,-0.3604,-0.3604,-0.3604,-0.3604,-0.3532,-0.3339,-0.3366,-0.3369,-0.3338,-0.3207,-0.324,-0.3513,-0.324,-0.3163,-0.3318,-0.3163,-0.3085,-0.3085,-0.3085,-0.3085,-0.3124,-0.3396,-0.3513,-0.3513,-0.3513,-0.3513,-0.3513,-0.3513,-0.3513,-0.3513,-0.3513,-0.3435,-0.3318,-0.3318,-0.324,-0.3085,-0.3085,-0.3085,-0.3085,-0.3085,-0.3085,-0.3085,-0.3085,-0.2501,-0.1802,-0.1802,-0.1137,-0.0431,-0.0431,-0.0431,-0.0431,-0.0431,-0.0431,-0.0901,-0.2695,-0.3085,-0.3085,-0.3085,-0.3097,-0.3126,-0.3295,-0.3379,-0.3542,-0.3783,-0.3838,-0.3881,-0.4059,-0.4999,-0.5625,-0.5625,-0.6517,-0.7095,-0.7095,-0.7095,-0.7095,-0.7095,-0.7095,-0.7095,-0.7095,-0.7095,-0.7095,-0.7095,-0.7095,-0.7095,-0.7095,-0.7095,-0.7095,-0.7095,-0.7095,-0.7095,-0.0772,-0.0418,-0.0163,0.0,-0.0394,0.0,0.0,0.0,0.0,0.0,-0.0859,-0.1593,-0.1579,-0.1576,-0.1571,-0.1598,-0.1578,-0.1565,-0.1565,-0.1589,-0.1576,-0.1576,-0.1576,-0.1576,-0.1576,-0.1576,-0.1528,-0.1473,-0.1471,-0.1702,-0.2231,-0.1683,-0.1917,-0.3046,-0.1955,-0.1643,-0.2268,-0.1643,-0.137,-0.137,-0.137,-0.137,-0.137,-0.137,-0.1994,-0.3085,-0.3085,-0.3085,-0.3085,-0.3085,-0.3085,-0.3085,-0.3085,-0.2774,-0.2268,-0.2268,-0.1879,-0.137,-0.137,-0.137,-0.137,-0.137,-0.137,-0.137,-0.137,-0.1058,-0.0706,-0.0706,-0.0353,0.0,0.0,0.0,0.0,0.0,0.0,-0.0235,-0.1175,-0.137,-0.137,-0.137,-0.1357,-0.1384,-0.1439,-0.1469,-0.1751,-0.2497,-0.2587,-0.2858,-0.3505,-0.4083,-0.441,-0.4368,-0.4863,-0.5129,-0.5129,-0.5129,-0.5129,-0.5129,-0.5129,-0.5129,-0.5129,-0.5129,-0.5442,-0.6115,-0.6782,-0.7095,-0.7095,-0.7095,-0.7095,-0.7095,-0.7095,-0.7095,0.0,0.0,0.1396,0.0542,0.0342,0.0259,0.0,0.0,0.0,0.0,0.0,0.0,0.0,0.0,0.0,0.0,0.0,0.0,0.0,0.0,0.0,0.0,0.0,0.0,0.0,0.0,0.0,0.0,0.0,-0.0353,-0.1137,-0.0432,-0.0706,-0.2267,-0.0823,-0.0392,-0.1176,-0.0392,0.0,0.0,0.0,0.0,0.0,0.0,-0.0862,-0.2306,-0.2306,-0.2306,-0.2306,-0.2306,-0.2306,-0.2306,-0.2306,-0.1839,-0.1176,-0.1176,-0.0706,0.0,0.0,0.0,0.0,0.0,0.0,0.0,0.0,0.0,0.0,0.0,0.0,0.0,0.0,0.0,0.0,0.0,0.0,0.0,0.0,0.0,0.0,0.0,0.0,0.0,0.0,0.0,-0.0295,-0.1218,-0.1343,-0.1689,-0.2574,-0.2937,-0.3137,-0.314,-0.3426,-0.3614,-0.3614,-0.3614,-0.3614,-0.3614,-0.3614,-0.3614,-0.3614,-0.3614,-0.4016,-0.4912,-0.5755,-0.6514,-0.7095,-0.7095,-0.7095,-0.7095,-0.6782,-0.665,0.0,0.182,0.0,0.1431,0.1222,0.0,0.0,0.0,0.0,0.0,0.0,0.0,0.0,0.0,0.0,0.0,0.0,0.0,0.0,0.0,0.0,0.0,0.0,0.0,0.0,0.0,0.0,0.0,0.0,-0.0039,-0.0079,-0.0039,-0.0039,-0.0157,-0.0039,-0.0039,-0.0079,-0.0039,0.0,0.0,0.0,0.0,0.0,0.0,-0.0079,-0.0157,-0.0157,-0.0157,-0.0157,-0.0157,-0.0157,-0.0157,-0.0157,-0.0118,-0.0079,-0.0079,-0.0039,0.0,0.0,0.0,0.0,0.0,0.0,0.0,0.0,0.0,0.0,0.0,0.0,0.0,0.0,0.0,0.0,0.0,0.0,0.0,0.0,0.0,0.0,0.0,0.0,0.0,0.0,0.0,-0.0042,-0.0084,-0.0084,-0.0126,-0.0169,-0.1199,-0.1907,-0.191,-0.2912,-0.3614,-0.3614,-0.3614,-0.3614,-0.3614,-0.3614,-0.3614,-0.3614,-0.3614,-0.3614,-0.3703,-0.3748,-0.4861,-0.7095,-0.7095,-0.7095,-0.7095,-0.5983,-0.5492,0.0,0.0,0.0,0.2289,0.2209,0.2255,0.1949,0.1921,0.2001,0.1971,0.1978,0.18,0.1137,0.0474,0.0,0.0,0.0,0.0,0.0,0.0,0.0,0.0,0.0,0.0,0.0,0.0,0.0,0.0,0.0,0.0,0.0,0.0,0.0,0.0,0.0,0.0,0.0,0.0,0.0,0.0,0.0,0.0,0.0,0.0,0.0,0.0,0.0,0.0,0.0,0.0,0.0,0.0,0.0,0.0,0.0,0.0,0.0,0.0,0.0,0.0,0.0,0.0,0.0,0.0,0.0,0.0,0.0,0.0,0.0,0.0,0.0,0.0,0.0,0.0,0.0,0.0,0.0,0.0,0.0,0.0,0.0,0.0,0.0,0.0,0.0,0.0,0.0,0.0,0.0,-0.0378,-0.0642,-0.0651,-0.1018,-0.1299,-0.1299,-0.1299,-0.1299,-0.1299,-0.1299,-0.1299,-0.1299,-0.1299,-0.1657,-0.2413,-0.2458,-0.326,-0.4861,-0.4861,-0.4861,-0.4861,-0.4417,-0.4239,0.2787,0.0,0.0,0.0,0.0,0.3228,0.3031,0.2986,0.2954,0.2654,0.2866,0.2696,0.1332,0.0784,0.0432,0.0039,0.0,0.0,0.0,0.0,0.0,0.0,0.0,0.0,0.0,0.0,0.0,0.0,0.0,0.0,0.0,0.0,0.0,0.0,0.0,0.0,0.0,0.0,0.0,0.0,0.0,0.0,0.0,0.0,0.0,0.0,0.0,0.0,0.0,0.0,0.0,0.0,0.0,0.0,0.0,0.0,0.0,0.0,0.0,0.0,0.0,0.0,0.0,0.0,0.0,0.0,0.0,0.0,0.0,0.0,0.0,0.0,0.0,0.0,0.0,0.0,0.0,0.0,0.0,0.0,0.0,0.0,0.0,0.0,0.0,0.0,0.0,0.0,0.0,0.0,0.0,0.0,0.0,0.0,0.0,0.0,0.0,0.0,0.0,0.0,0.0,0.0,-0.0359,-0.1165,-0.121,-0.1612,-0.2413,-0.3213,-0.3614,-0.357,-0.317,-0.2769,0.0,0.0,0.0,0.0,0.0,0.0,0.3293,0.3092,0.2753,0.1895,0.2501,0.2499,0.0471,0.0902,0.1254,0.0157,0.0,0.0,0.0,0.0,0.0,0.0,0.0,0.0,0.0,0.0,0.0,0.0,0.0,0.0,0.0,0.0,0.0,0.0,0.0,0.0,0.0,0.0,0.0,0.0,0.0,0.0,0.0,0.0,0.0,0.0,0.0,0.0,0.0,0.0,0.0,0.0,0.0,0.0,0.0,0.0,0.0,0.0,0.0,0.0,0.0,0.0,0.0,0.0,0.0,0.0,0.0,0.0,0.0,0.0,0.0,0.0,0.0,0.0,0.0,0.0,0.0,0.0,0.0,0.0,0.0,0.0,0.0,0.0,0.0,0.0,0.0,0.0,0.0,0.0,0.0,0.0,0.0,0.0,0.0,0.0,0.0,0.0,0.0,0.0,0.0,0.0,0.0,0.0,0.0,0.0,0.0,-0.237,-0.3481,-0.3481,-0.2281,-0.1121,0.4347,0.0,0.0,0.0,0.0,0.0,0.0,0.4961,0.4961,0.482,0.4434,0.3747,0.2493,0.1879,0.1254,0.0157,0.0,0.0,0.0,0.0,0.0,0.0,0.0,0.0,0.0,0.0,0.0,0.0,0.0,0.0,0.0,0.0,0.0,0.0,0.0,0.0,0.0,0.0,0.0,0.0,0.0,0.0,0.0,0.0,0.0,0.0,0.0,0.0,0.0,0.0,0.0,0.0,0.0,0.0,0.0,0.0,0.0,0.0,0.0,0.0,0.0,0.0,0.0,0.0,0.0,0.0,0.0,0.0,0.0,0.0,0.0,0.0,0.0,0.0,0.0,0.0,0.0,0.0,0.0,0.0,0.0,0.0,0.0,0.0,0.0,0.0,0.0,0.0,0.0,0.0,0.0,0.0,0.0,0.0,0.0,0.0,0.0,0.0,0.0,0.0,0.0,0.0,0.0,0.0,0.0,0.0,0.0,-0.0673,-0.0986,-0.0986,-0.0673,-0.0314,0.0,0.0,0.0,0.0,0.0,0.0,0.565,0.5694,0.561,0.5316,0.5154,0.4503,0.2684,0.222,0.1659,0.0232,0.0,0.0,0.0,0.0,0.0,0.0,0.0,0.0,0.0,0.0,0.0,0.0,0.0,0.0,0.0,0.0,0.0,0.0,0.0,0.0,0.0,0.0,0.0,0.0,0.0,0.0,0.0,0.0,0.0,0.0,0.0,0.0,0.0,0.0,0.0,0.0,0.0,0.0,0.0,0.0,0.0,0.0,0.0,0.0,0.0,0.0,0.0,0.0,0.0,0.0,0.0,0.0,0.0,0.0,0.0,0.0,0.0,0.0,0.0,0.0,0.0,0.0353,0.0549,0.0079,0.0,0.0,0.0,0.0,0.0,0.0,0.0,0.0,0.0,0.0,0.0,0.0,0.0,0.0,0.0,0.0,0.0,0.0,0.0,0.0,0.0,0.0,0.0,0.0,0.0,0.0,0.0,0.0,0.0,0.0,0.0,0.0,0.5106,0.5257,0.0,0.0,0.5521,0.0,0.5677,0.5644,0.535,0.446,0.4977,0.4731,0.2094,0.2283,0.2284,0.0565,0.0231,0.0117,0.0,0.0,0.0,0.0,0.0,0.0,0.0,0.0,0.0,0.0,0.0,0.0,0.0,0.0,0.0,0.0,0.0,0.0,0.0,0.0,0.0,0.0,0.0,0.0,0.0,0.0,0.0,0.0,0.0,0.0,0.0,0.0,0.0,0.0,0.0,0.0,0.0,0.0,0.0,0.0,0.0,0.0,0.0,0.0,0.0,0.0,0.0,0.0,0.0,0.0,0.0079,0.0196,0.0196,0.0275,0.0353,0.0353,0.0353,0.0353,0.0353,0.1097,0.1489,0.051,0.0353,0.0353,0.0353,0.0353,0.0314,0.0196,0.0196,0.0118,0.0,0.0,0.0,0.0,0.0,0.0,0.0,0.0,0.0,0.0,0.0,0.0,0.0,0.0,0.0,0.0,0.0,0.0,0.0,0.0,0.0,0.0,0.0,0.0,0.5164,0.5335,0.5556,0.5463,0.5597,0.0,0.5295,0.5335,0.5346,0.4986,0.4442,0.3905,0.3557,0.3,0.2499,0.2223,0.1533,0.0805,0.0117,0.0,0.0,0.0,0.0,0.0,0.0,0.0,0.0,0.0,0.0,0.0,0.0,0.0,0.0,0.0,0.0,0.0,0.0,0.0,0.0,0.0,0.0,0.0,0.0,0.0,0.0,0.0,0.0,0.0,0.0,0.0,0.0,0.0,0.0,0.0,0.0,0.0,0.0,0.0,0.0,0.0,0.0,0.0,0.0,0.0,0.0,0.0,0.0,0.0,0.0628,0.1293,0.1293,0.1879,0.25,0.25,0.25,0.25,0.25,0.2656,0.2734,0.254,0.25,0.25,0.25,0.25,0.2228,0.141,0.1293,0.098,0.0118,0.0,0.0,0.0,0.0,0.0,0.0,0.0,0.0,0.0,0.0,0.0,0.0,0.0,0.0,0.0,0.0,0.0,0.0,0.0,0.0,0.0,0.0,0.0,0.5308,0.5359,0.5511,0.5511,0.0,0.0,0.0,0.5362,0.5395,0.5359,0.4815,0.431,0.4145,0.3586,0.3033,0.2764,0.193,0.1302,0.1357,0.0579,0.0,0.0,0.0,0.0,0.0,0.0,0.0236,0.0745,0.0314,0.0236,0.0784,0.0303,0.0,0.0,0.0,0.0,0.0,0.0,0.0,0.0,0.0,0.0,0.0,0.0,0.0,0.0,0.0,0.0,0.0,0.0,0.0,0.0,0.0,0.0,0.0,0.0,0.0,0.0,0.0,0.0,0.0,0.0,0.0,0.0118,0.0628,0.1136,0.1565,0.1565,0.1917,0.2347,0.2347,0.2735,0.3085,0.3085,0.3085,0.3085,0.3085,0.3513,0.3904,0.3904,0.4334,0.4373,0.3279,0.3085,0.2929,0.2425,0.2347,0.2151,0.1604,0.1109,0.0809,0.0795,0.034,0.0,0.0,0.0,0.0,0.0,0.0,0.0,0.0,0.0,0.0,0.0,0.0,0.0,0.0,0.0,0.0,0.0,0.0,0.0,0.0,0.5436,0.5494,0.5562,0.0,0.5525,0.0,0.0,0.0,0.5447,0.5264,0.4913,0.4459,0.4161,0.3827,0.3305,0.2397,0.2043,0.0,0.1539,0.0,0.0545,0.0235,0.0079,0.0275,0.0314,0.0667,0.1528,0.0784,0.0667,0.1568,0.0575,0.0,0.0,0.0,0.0,0.0,0.0,0.0,0.0,0.0,0.0,0.0,0.0,0.0,0.0,0.0,0.0,0.0,0.0,0.0,0.0,0.0,0.0,0.0039,0.0236,0.0196,0.0039,0.0471,0.0471,0.0353,0.0549,0.0588,0.0745,0.1645,0.2464,0.3085,0.3085,0.324,0.3396,0.3396,0.3552,0.3709,0.3709,0.3709,0.3709,0.3709,0.4414,0.5002,0.5002,0.5709,0.5747,0.4021,0.3709,0.3632,0.3435,0.3396,0.3318,0.3124,0.2436,0.1964,0.1965,0.1199,0.0702,0.0672,0.0494,0.0359,0.0359,0.0135,0.0,0.0,0.0,0.0,0.0,0.0,0.0,0.0,0.0,0.0,0.0,0.0,0.0,0.0,0.0,0.0,0.0,0.5674,0.0,0.0,0.0,0.5324,0.5047,0.0,0.4931,0.4992,0.0,0.0,0.0,0.0,0.0,0.3804,0.3018,0.2438,0.2569,0.1044,0.0392,0.1333,0.1411,0.145,0.1607,0.1489,0.1489,0.1607,0.0575,0.0,0.0,0.0,0.0,0.0,0.0,0.0,0.0,0.0,0.0,0.0,0.0,0.0,0.0,0.0,0.0,0.0,0.0,0.0,0.0,0.0,0.0,0.0118,0.1058,0.0824,0.0275,0.2111,0.2151,0.1567,0.2462,0.2734,0.2773,0.289,0.3007,0.3085,0.3085,0.3787,0.453,0.453,0.5237,0.5944,0.5944,0.5944,0.5944,0.5944,0.6025,0.6103,0.6103,0.6222,0.6219,0.5983,0.5944,0.5628,0.4647,0.453,0.4178,0.324,0.315,0.3185,0.3176,0.3207,0.3188,0.3209,0.2191,0.1612,0.1612,0.0583,0.0,0.0,0.0,0.0,0.0,0.0,0.0,0.0,0.0,0.0,0.0,0.0,0.0,0.0,0.0,0.0,0.0,0.0,0.0,0.5433,0.0,0.5385,0.0,0.0,0.0,0.0,0.0,0.0,0.0,0.4553,0.0,0.0,0.0,0.2724,0.2795,0.0,0.0,0.1604,0.1508,0.1736,0.2422,0.1816,0.2005,0.332,0.1241,0.0268,0.0894,0.0332,0.0,0.0,0.0,0.0,0.0,0.0,0.0,0.0,0.0,0.0,0.0,0.0,0.0278,0.0748,0.0878,0.1238,0.169,0.1751,0.1448,0.1058,0.2073,0.2189,0.1916,0.2812,0.2813,0.254,0.2968,0.3513,0.4021,0.4021,0.445,0.496,0.496,0.5276,0.5628,0.5628,0.5944,0.63,0.63,0.63,0.63,0.63,0.63,0.63,0.63,0.63,0.63,0.63,0.63,0.6141,0.5709,0.5628,0.5473,0.5002,0.4468,0.4166,0.4261,0.3803,0.3493,0.3607,0.3126,0.2858,0.2858,0.237,0.179,0.1076,0.1031,0.0718,0.0,0.0,0.0,0.0,0.0,0.0,0.0,0.0,0.0,0.5426,0.0,0.0,0.0,0.0,0.0,0.0,0.0,0.0,0.0,0.0,0.0,0.0,0.0,0.0,0.0,0.0,0.3916,0.0,0.3883,0.0,0.0,0.0,0.0,0.0,0.2104,0.2551,0.3468,0.2674,0.2781,0.4174,0.2112,0.093,0.1172,0.0681,0.0297,0.0,0.0,0.0,0.0,0.0,0.0,0.0,0.0,0.0,0.0,0.0,0.0478,0.133,0.151,0.2102,0.2949,0.3367,0.3086,0.2543,0.3281,0.3357,0.3202,0.3787,0.3984,0.3984,0.3984,0.4491,0.5157,0.5157,0.567,0.63,0.63,0.63,0.63,0.63,0.63,0.63,0.63,0.63,0.63,0.63,0.63,0.63,0.63,0.63,0.63,0.63,0.63,0.63,0.63,0.63,0.63,0.63,0.5665,0.5224,0.5391,0.4784,0.4407,0.4541,0.4283,0.3972,0.3614,0.3614,0.3213,0.2325,0.2281,0.1879,0.0986,0.0986,0.0807,0.0494,0.0494,0.0314,0.0,0.0,0.0,0.0,0.0,0.0,0.544,0.0,0.0,0.0,0.0,0.4256,0.0,0.0,0.0,0.0,0.0,0.0,0.0,0.0,0.0,0.0,0.0,0.0,0.0,0.0,0.0,0.0,0.3857,0.445,0.0,0.4505,0.4033,0.3198,0.3046,0.2088,0.0114,0.102,0.1045,0.0,0.0,0.0,0.0,0.0,0.0,0.0,0.0,0.0,0.0,0.0,0.0478,0.133,0.151,0.2102,0.3025,0.418,0.4649,0.4608,0.4647,0.3982,0.3396,0.5473,0.6183,0.6183,0.6183,0.6219,0.6261,0.6261,0.6261,0.63,0.63,0.63,0.63,0.63,0.63,0.63,0.63,0.63,0.63,0.63,0.63,0.63,0.63,0.63,0.63,0.63,0.63,0.63,0.63,0.63,0.63,0.63,0.6386,0.6488,0.664,0.671,0.6857,0.6993,0.5983,0.4865,0.3659,0.3614,0.357,0.3525,0.3525,0.3525,0.3481,0.3481,0.2903,0.1746,0.1746,0.1121,0.0,0.0,0.0,0.0,0.0,0.546,0.5405,0.0,0.0,0.0,0.0,0.0,0.0,0.0,0.0,0.0,0.0,0.0,0.0,0.0,0.0,0.0,0.0,0.0,0.0,0.0,0.0,0.0,0.0,0.0,0.4528,0.3217,0.0,0.5112,0.3254,0.21,0.2048,0.174,0.1071,0.0,0.0,0.0,0.0,0.0,0.0,0.0,0.0,0.0303,0.0873,0.0873,0.1718,0.3095,0.3252,0.3913,0.486,0.5364,0.5628,0.5747,0.5747,0.5512,0.5315,0.6064,0.63,0.63,0.63,0.63,0.63,0.63,0.63,0.63,0.63,0.63,0.63,0.63,0.63,0.63,0.63,0.63,0.63,0.63,0.63,0.63,0.63,0.63,0.63,0.63,0.63,0.63,0.63,0.63,0.63,0.63,0.634,0.6426,0.6532,0.6685,0.6837,0.6943,0.669,0.6337,0.5933,0.5933,0.5575,0.4821,0.4776,0.4419,0.3614,0.3614,0.3392,0.2992,0.2992,0.2769,0.237,0.237,0.1522,0.5235,0.5235,0.0,0.5235,0.4938,0.0,0.459,0.0,0.299,0.0,0.0,0.0,0.0,0.0,0.0,0.0,0.0,0.0,0.0,0.3245,0.0,0.0,0.0,0.0,0.0,0.0,0.412,0.4528,0.3627,0.0,0.0,0.4048,0.2961,0.2021,0.214,0.1529,0.0,0.0383,0.0374,0.0,0.0391,0.0384,0.0,0.0337,0.0772,0.1307,0.1641,0.2644,0.4025,0.414,0.4818,0.5817,0.5932,0.6125,0.63,0.63,0.63,0.63,0.63,0.63,0.63,0.63,0.63,0.63,0.63,0.63,0.63,0.63,0.63,0.63,0.63,0.63,0.63,0.63,0.63,0.63,0.63,0.63,0.63,0.63,0.63,0.63,0.63,0.63,0.63,0.63,0.63,0.63,0.63,0.6344,0.6429,0.6536,0.6692,0.6844,0.6947,0.7045,0.7095,0.7095,0.7095,0.6782,0.6027,0.6027,0.5622,0.4861,0.4861,0.4639,0.4239,0.4239,0.4016,0.3614,0.3614,0.2769]},{"header":{"parameterUnit":"m.s-1","parameterCategory":1,"la1":30.6,"la2":29.2853,"lo1":-89.7004,"lo2":-87.6739,"dy":0.0162,"dx":0.0183,"nx":112,"ny":82,"refTime":"2024-08-20T18:00:00:Z","depth":0,"parameterNumber":3,"parameterNumberName":"V-component_of_WINDS"},"data":[0.0,0.0,0.0,0.0,0.0,0.0,0.0,0.0,0.0,0.0,0.0,0.0,0.0,0.0,0.0,0.0,0.0,0.0,0.0,0.0,0.0,0.0,0.0,0.0,0.0,0.0,0.0,0.0,0.0,0.0,0.0,0.0,0.0,0.0,0.0,0.0,0.0,0.0,0.0,0.0,0.0,0.0,0.0,0.0,0.0,0.0,0.0,0.0,0.0,0.0,0.0,0.0,0.0,0.0,0.0,0.0,0.0,0.0,0.0,0.0,0.0,0.0,0.0,0.0,0.0,0.0,0.0,0.0,0.0,0.0,0.0,0.0,0.0,0.0,0.0,0.0,0.0,0.0,0.0,0.0,0.0,0.0,0.0,0.0,0.0,0.0,0.0,0.0,0.0,0.0,1.9783,2.0536,2.0798,2.0991,2.1093,2.0496,1.9486,1.8081,0.0,0.0,0.0,0.0,0.0,0.0,0.0,0.0,0.0,0.0,0.0,0.0,0.0,0.0,0.0,0.0,0.0,0.0,0.0,0.0,0.0,0.0,0.0,0.0,0.0,0.0,0.0,0.0,0.0,0.0,0.0,0.0,0.0,0.0,0.0,0.0,0.0,0.0,0.0,0.0,0.0,0.0,0.0,0.0,0.0,0.0,0.0,0.0,0.0,0.0,0.0,0.0,0.0,0.0,0.0,0.0,0.0,0.0,0.0,0.0,0.0,0.0,0.0,0.0,0.0,0.0,0.0,0.0,0.0,0.0,0.0,0.0,0.0,0.0,0.0,0.0,0.0,0.0,0.0,0.0,0.0,0.0,0.0,0.0,0.0,0.0,0.0,0.0,0.0,0.0,0.0,0.0,0.0,0.0,0.0,0.0,0.0,0.0,0.0,0.0,0.0,0.0,0.0,0.0,1.8872,2.0429,2.0172,2.0065,2.0654,1.8904,1.7849,1.7978,0.0,0.0,0.0,0.0,0.0,0.0,0.0,0.0,0.0,0.0,0.0,0.0,0.0,0.0,0.0,0.0,0.0,0.0,0.0,0.0,0.0,0.0,0.0,0.0,0.0,0.0,0.0,0.0,0.0,0.0,0.0,0.0,0.0,0.0,0.0,0.0,0.0,0.0,0.0,0.0,0.0,0.0,0.0,0.0,0.0,0.0,0.0,0.0,0.0,0.0,0.0,0.0,0.0,0.0,0.0,0.0,0.0,0.0,0.0,0.0,0.0,0.0,0.0,0.0,0.0,0.0,0.0,0.0,0.0,0.0,0.0,0.0,0.0,0.0,0.0,0.0,0.0,0.0,0.0,0.0,0.0,0.0,0.0,0.0,0.0,0.0,0.0,0.0,0.0,0.0,0.0,0.0,0.0,0.0,0.0,0.0,0.0,0.0,0.0,0.0,0.0,0.0,0.0,1.7834,1.8322,1.9595,1.891,1.8406,1.8563,1.7663,1.683,1.6257,1.565,0.0,0.0,0.0,0.0,0.0,0.0,0.0,0.0,0.0,0.0,0.0,0.0,0.0,0.0,0.0,0.0,0.0,0.0,0.0,0.0,0.0,0.0,0.0,0.0,0.0,0.0,0.0,0.0,0.0,0.0,0.0,0.0,0.0,0.0,0.0,0.0,0.0,0.0,0.0,0.0,0.0,0.0,0.0,0.0,0.0,0.0,0.0,0.0,0.0,0.0,0.0,0.0,0.0,0.0,0.0,0.0,0.0,0.0,0.0,0.0,0.0,0.0,0.0,0.0,0.0,0.0,0.0,0.0,0.0,0.0,0.0,0.0,0.0,0.0,0.0,0.0,0.0,0.0,0.0,0.0,0.0,0.0,0.0,0.0,0.0,0.0,0.0,0.0,0.0,0.0,0.0,0.0,0.0,0.0,0.0,0.0,0.0,0.0,0.0,0.0,0.0,0.0,1.8239,1.8174,1.8567,1.7542,1.6846,1.6915,1.6223,1.5509,1.4753,1.3647,0.0,0.0,0.0,0.0,0.0,0.0,0.0,0.0,0.0,0.0,0.0,0.0,0.0,0.0,0.0,0.0,0.0,0.0,0.0,0.0,0.0,0.0,0.0,0.0,0.0,0.0,0.0,0.0,0.0,0.0,0.0,0.0,0.0,0.0,0.0,0.0,0.0,0.0,0.0,0.0,0.0,0.0,0.0,0.0,0.0,0.0,0.0,0.0,0.0,0.0,0.0,0.0,0.0,0.0,0.0,0.0,0.0,0.0,0.0,0.0,0.0,0.0,0.0,0.0,0.0,0.0,0.0,0.0,0.0,0.0,0.0,0.0,0.0,0.0,0.0,0.0,0.0,0.0,0.0,0.0,0.0,0.0,0.0,0.0,0.0,0.0,0.0,0.0,0.0,0.0,0.0,0.0,0.0,0.0,0.0,0.0,0.0,0.0,0.0,0.0,0.0,0.0,1.7956,1.8537,1.7536,1.6236,1.5832,1.6812,1.4282,1.3201,1.4609,1.2547,0.0,0.0,0.0,0.0,0.0,0.0,0.0,0.0,0.0,0.0,0.0,0.0,0.0,0.0,0.0,0.0,0.0,0.0,0.0,0.0,0.0,0.0,0.0,0.0,0.0,0.0,0.0,0.0,0.0,0.0,0.0,0.0,0.0,0.0,0.0,0.0,0.0,0.0,0.0,0.0,0.0,0.0,0.0,0.0,0.0,0.0,0.0,0.0,0.0,0.0,0.0,0.0,0.0,0.0,0.0,0.0,0.0,0.0,0.0,0.0,0.0,0.0,0.0,0.0,0.0,0.0,0.0,0.0,0.0,0.0,0.0,0.0,0.0,0.0,0.0,0.0,0.0,0.0,0.0,0.0,0.0,0.0,0.0,0.0,0.0,0.0,0.0,0.0,0.0,0.0,0.0,0.0,0.0,0.0,0.0,0.0,0.0,0.0,0.0,0.0,0.0,0.0,1.6673,1.6386,1.7002,1.5365,1.4271,1.4318,1.3286,1.254,1.2397,0.0,0.0,0.0,0.0,0.0,0.0,0.0,0.0,0.0,0.0,0.0,0.0,0.0,0.0,0.0,0.0,0.0,0.0,0.0,0.0,0.0,0.0,0.0,0.0,0.0,0.0,0.0,0.0,0.0,0.0,0.0,0.0,0.0,0.0,0.0,0.0,0.0,0.0,0.0,0.0,0.0,0.0,0.0,0.0,0.0,0.0,0.0,0.0,0.0,0.0,0.0,0.0,0.0,0.0,0.0,0.0,0.0,0.0,0.0,0.0,0.0,0.0,0.0,0.0,0.0,0.0,0.0,0.0,0.0,0.0,0.0,0.0,0.0,0.0,0.0,0.0,0.0,0.0,0.0,0.0,0.0,0.0,0.0,0.0,0.0,0.0,0.0,0.0,0.0,0.0,0.0,0.0,0.0,0.0,0.0,0.0,0.0,0.0,0.0,0.0,0.0,0.0,1.6708,1.554,1.5,1.6268,1.4562,1.3193,1.2817,1.2442,1.1886,1.1042,0.0,0.0,0.0,0.0,0.0,0.0,0.0,0.0,0.0,0.0,0.0,0.0,0.0,0.0,0.0,0.0,0.0,0.0,0.0,0.0,0.0,0.0,0.0,0.0,0.0,0.0,0.0,0.0,0.0,0.0,0.0,0.0,0.0,0.0,0.0,0.0,0.0,0.0,0.0,0.0,0.0,0.0,0.0,0.0,0.0,0.0,0.0,0.0,0.0,0.0,0.0,0.0,0.0,0.0,0.0,0.0,0.0,0.0,0.0,0.0,0.0,0.0,0.0,0.0,0.0,0.0,0.0,0.0,0.0,0.0,0.0,0.0,0.0,0.0,0.0,0.0,0.0,0.0,0.0,0.0,0.0,0.0,0.0,0.0,0.0,0.0,0.0,0.0,0.0,0.0,0.0,0.0,0.0,0.0,0.0,0.0,0.0,0.0,0.0,0.0,0.0,0.0,1.4689,1.4762,1.4922,1.5253,1.3783,1.2784,1.2777,1.1705,1.1002,0.0,0.0,0.0,0.0,0.0,0.0,0.0,0.0,0.0,0.0,0.0,0.0,0.0,0.0,0.0,0.0,0.0,0.0,0.0,0.0,0.0,0.0,0.0,0.0,0.0,0.0,0.0,0.0,0.0,0.0,0.0,0.0,0.0,0.0,0.0,0.0,0.0,0.0,0.0,0.0,0.0,0.0,0.0,0.0,0.0,0.0,0.0,0.0,0.0,0.0,0.0,0.0,0.0,0.0,0.0,0.0,0.0,0.0,0.0,0.0,0.0,0.0,0.0,0.0,0.0,0.0,0.0,0.0,0.0,0.0,0.0,0.0,0.0,0.0,0.0,0.0,0.0,0.0,0.0,0.0,0.0,0.0,0.0,0.0,0.0,0.0,0.0,0.0,0.0,0.0,0.0,0.0,0.0,0.0,0.0,0.0,0.0,0.0,0.0,0.0,0.0,0.0,0.0,1.428,1.3977,1.3917,1.4576,1.3567,1.2697,1.2489,1.196,1.1383,1.076,0.0,0.0,0.0,0.0,0.0,0.0,0.0,0.0,0.0,0.0,0.0,0.0,0.0,0.0,0.0,0.0,0.0,0.0,0.0,0.0,0.0,0.0,0.0,0.0,0.0,0.0,0.0,0.0,0.0,0.0,0.0,0.0,0.0,0.0,0.0,0.0,0.0,0.0,0.0,0.0,0.0,0.0,0.0,0.0,0.0,0.0,0.0,0.0,0.0,0.0,0.0,0.0,0.0,0.0,0.0,0.0,0.0,0.0,0.0,0.0,0.0,0.0,0.0,0.0,0.0,0.0,0.0,0.0,0.0,0.0,0.0,0.0,0.0,0.0,0.0,0.0,0.0,0.0,0.0,0.0,0.0,0.0,0.0,0.0,0.0,0.0,0.0,0.0,0.0,0.0,0.0,0.0,0.0,0.0,0.0,0.0,0.0,0.0,0.0,0.0,0.0,0.0,1.3469,1.3143,1.3234,1.4283,1.3304,1.2536,1.2318,1.2037,1.1578,1.0814,0.0,0.0,0.0,0.0,0.0,0.0,0.0,0.0,0.0,0.0,0.0,0.0,0.0,0.0,0.0,0.0,0.0,0.0,0.0,0.0,0.0,0.0,0.0,0.0,0.0,0.0,0.0,0.0,0.0,0.0,0.0,0.0,0.0,0.0,0.0,0.0,0.0,0.0,0.0,0.0,0.0,0.0,0.0,0.0,0.0,0.0,0.0,0.0,0.0,0.0,0.0,0.0,0.0,0.0,0.0,0.0,0.0,0.0,0.0,0.0,0.0,0.0,0.0,0.0,0.0,0.0,0.0,0.0,0.0,0.0,0.0,0.0,0.0,0.0,0.0,0.0,0.0,0.0,0.0,0.0,0.0,0.0,0.0,0.0,0.0,0.0,0.0,0.0,0.0,0.0,0.0,0.0,0.0,0.0,0.0,0.0,0.0,0.0,0.0,0.0,0.0,0.0,1.2364,1.2445,1.288,1.4089,1.3047,1.2305,1.2305,1.2037,1.1651,1.1029,0.0,0.0,0.0,0.0,0.0,0.0,0.0,0.0,0.0,0.0,0.0,0.0,0.0,0.0,0.0,0.0,0.0,0.0,0.0,0.0,0.0,0.0,0.0,0.0,0.0,0.0,0.0,0.0,0.0,0.0,0.0,0.0,0.0,0.0,0.0,0.0,0.0,0.0,0.0,0.0,0.0,0.0,0.0,0.0,0.0,0.0,0.0,0.0,0.0,0.0,0.0,0.0,0.0,0.0,0.0,0.0,0.0,0.0,0.0,0.0,1.1142,1.0748,0.0,0.0,0.0,0.0,0.0,0.0,0.0,0.0,0.0,0.0,0.0,0.0,0.0,0.0,0.0,0.0,0.0,0.0,0.0,0.0,0.0,0.0,0.0,0.0,0.0,0.0,0.0,0.0,0.0,0.0,0.0,0.0,0.0,0.0,0.0,0.0,0.0,0.0,0.0,0.0,1.1435,1.2549,1.3229,1.2792,1.2486,1.2305,1.2305,1.2037,1.1651,1.1029,1.0693,0.0,0.0,0.0,0.0,0.0,0.0,0.0,0.0,0.0,0.0,0.0,0.0,0.0,0.0,0.0,0.0,0.0,0.0,0.0,0.0,0.0,0.0,0.0,0.0,0.0,0.0,0.0,0.0,0.0,0.0,0.0,0.0,0.0,0.0,0.0,0.0,0.0,0.0,0.0,0.0,0.0,0.0,0.0,0.0,0.0,0.0,0.0,0.0,0.0,0.0,0.0,0.0,0.0,0.0,0.0,0.0,0.0,0.0,0.0,1.2138,1.1703,0.0,0.0,0.0,0.0,0.0,0.0,0.0,0.0,0.0,0.0,0.0,0.0,0.0,0.0,0.0,0.0,0.0,0.0,0.0,0.0,0.0,0.0,0.0,0.0,0.0,0.0,0.0,0.0,0.0,0.0,0.0,0.0,0.0,0.0,0.0,0.0,0.0,0.0,0.0,0.0,1.1754,1.3297,1.4063,1.3098,1.2989,1.2806,1.2335,1.2594,1.2586,1.2146,1.2068,0.0,0.0,0.0,0.0,0.0,0.0,0.0,0.0,0.0,0.0,0.0,0.0,0.0,0.0,0.0,0.0,0.0,0.0,0.0,0.0,0.0,0.0,0.0,0.0,0.0,0.0,0.0,0.0,0.0,0.0,0.0,0.0,0.0,0.0,0.0,0.0,0.0,0.0,0.0,0.0,0.0,0.0,0.0,0.0,0.0,0.0,0.0,0.0,0.0,0.0,0.0,0.0,0.0,1.6269,1.5771,1.4358,1.4772,1.483,1.4514,1.3724,1.3227,1.2904,1.2415,0.0,0.0,0.0,0.0,0.0,0.0,0.0,0.0,0.0,0.0,0.0,0.0,0.0,0.0,0.0,0.0,0.0,0.0,0.0,0.0,0.0,0.0,0.0,0.0,1.8443,1.8526,1.8463,0.0,0.0,0.0,0.0,0.0,0.0,0.0,0.0,0.0,0.0,0.0,1.2798,1.4348,1.5057,1.4063,1.3954,1.3629,1.2879,1.3528,1.3846,1.3553,1.3702,1.372,0.0,0.0,0.0,0.0,0.0,0.0,0.0,0.0,0.0,0.0,0.0,0.0,0.0,0.0,0.0,0.0,0.0,0.0,0.0,0.0,0.0,0.0,0.0,0.0,0.0,0.0,0.0,0.0,0.0,0.0,0.0,0.0,1.7968,1.7654,0.0,0.0,0.0,0.0,0.0,0.0,0.0,0.0,0.0,0.0,0.0,0.0,0.0,1.7069,1.751,1.8129,1.7808,1.6662,1.8265,1.7704,1.5315,1.7472,1.7699,1.6497,1.7382,0.0,1.348,1.34,0.0,0.0,0.0,0.0,0.0,0.0,0.0,0.0,0.0,0.0,0.0,0.0,0.0,0.0,0.0,0.0,0.0,0.0,0.0,0.0,0.0,0.0,2.0207,2.0227,2.0275,2.0284,0.0,1.7916,1.5747,1.5478,1.5061,0.0,0.0,0.0,0.0,0.0,0.0,0.0,1.4462,1.5566,1.6035,1.5092,1.4985,1.495,1.4843,1.4914,1.4866,1.454,1.4527,1.4747,1.5177,1.4475,0.0,0.0,0.0,0.0,0.0,0.0,0.0,0.0,0.0,0.0,0.0,0.0,0.0,0.0,0.0,0.0,0.0,0.0,0.0,0.0,0.0,0.0,0.0,0.0,0.0,0.0,0.0,0.0,0.0,1.8869,1.9572,1.8602,1.9028,1.8771,0.0,0.0,0.0,0.0,0.0,0.0,0.0,0.0,0.0,1.8426,1.8816,1.9461,2.0375,2.086,2.0167,1.8348,1.9113,1.8134,1.5685,1.7506,1.7925,1.7379,1.858,1.8201,1.6672,1.6338,1.5894,1.5418,0.0,0.0,0.0,0.0,1.5217,1.532,1.6726,1.7236,1.7248,1.7403,0.0,0.0,0.0,0.0,0.0,0.0,0.0,0.0,0.0,0.0,2.0264,2.0546,2.0605,2.0605,2.0605,1.9459,1.8183,0.0,1.6926,1.6377,1.5339,0.0,0.0,0.0,0.0,1.574,1.5509,1.6606,1.7035,1.6079,1.6009,1.5755,1.5234,1.5685,1.5931,1.5791,1.58,1.6053,1.6542,1.5728,1.5433,0.0,0.0,0.0,0.0,0.0,0.0,0.0,0.0,0.0,0.0,0.0,0.0,0.0,0.0,0.0,0.0,0.0,0.0,0.0,0.0,0.0,0.0,0.0,0.0,0.0,0.0,0.0,0.0,2.0615,2.1256,1.9843,2.0577,2.0268,0.0,0.0,0.0,0.0,0.0,0.0,1.8298,1.8695,1.9411,2.0471,2.0862,2.1584,2.2623,2.2945,2.2041,1.9943,2.026,1.9123,1.6796,1.8365,1.891,1.8688,1.9906,2.0293,2.0034,1.8888,1.8154,1.7738,1.746,1.7044,1.6701,1.697,1.7017,1.7144,1.8563,1.9027,1.9086,1.9483,1.9463,1.9189,1.8662,0.0,0.0,0.0,0.0,1.9104,1.9883,2.0078,2.0166,2.0527,2.0605,2.0605,2.0605,2.0605,2.0304,0.0,1.8778,1.8119,1.6643,0.0,0.0,0.0,0.0,1.6461,1.6563,1.7412,1.7716,1.7026,1.6957,1.668,1.5983,1.6576,1.6957,1.6957,1.6892,1.709,1.7529,1.6731,1.632,1.6427,0.0,0.0,0.0,0.0,0.0,0.0,0.0,0.0,0.0,0.0,0.0,0.0,0.0,0.0,0.0,0.0,0.0,0.0,0.0,0.0,0.0,0.0,0.0,0.0,0.0,0.0,0.0,0.0,0.0,2.2004,2.2833,0.0,0.0,0.0,0.0,1.9212,2.0333,2.1023,2.1002,2.1787,2.2295,2.2357,2.2765,2.2999,2.3062,2.3081,2.2448,2.1203,2.2359,2.1632,1.9405,2.1774,2.2217,2.1203,2.2403,2.2896,2.2707,2.0131,1.8862,1.8496,1.8096,1.773,1.7567,1.8537,1.8659,1.862,2.0024,2.0489,2.0489,2.0546,1.9989,1.9355,1.9707,1.9212,0.0,0.0,1.9816,1.9961,2.0449,2.0566,2.0576,2.0595,2.0605,2.0605,2.0605,2.0605,2.0595,0.0,2.0138,1.9671,1.9187,0.0,1.7833,1.7804,1.7551,1.7453,1.7852,1.7964,1.7974,1.794,1.794,1.7906,1.7862,1.7896,1.794,1.794,1.7555,1.7539,1.7959,1.7126,1.6894,1.7347,1.6064,0.0,0.0,0.0,0.0,0.0,0.0,0.0,0.0,0.0,0.0,0.0,0.0,0.0,0.0,0.0,0.0,0.0,0.0,0.0,0.0,0.0,0.0,0.0,0.0,0.0,0.0,0.0,0.0,2.3638,2.4196,0.0,2.1161,2.0823,2.082,2.0947,2.1641,2.2136,2.2409,2.2711,2.2877,2.2877,2.3013,2.3091,2.3091,2.3091,2.2492,2.1293,2.1756,2.1078,1.9534,2.1212,2.1712,2.1382,2.2589,2.2945,2.2639,2.1682,2.1074,2.0694,2.0555,2.0073,1.955,1.9883,1.9945,1.9918,2.043,2.0605,2.0605,2.0605,2.04,2.0175,2.0331,2.0117,1.9941,2.0244,2.0332,2.041,2.0566,2.0605,2.0605,2.0605,2.0605,2.0605,2.0605,2.0605,2.0605,2.0605,2.0478,2.0145,1.9404,1.9033,1.8643,1.8086,1.7881,1.7842,1.7988,1.8008,1.8008,1.8008,1.8008,1.8008,1.8008,1.8008,1.79,1.7627,1.7207,1.6999,1.7145,1.6621,1.6641,1.7406,1.7183,1.6668,0.0,0.0,0.0,0.0,0.0,0.0,0.0,0.0,0.0,0.0,0.0,0.0,0.0,0.0,0.0,0.0,0.0,0.0,0.0,0.0,0.0,0.0,0.0,0.0,0.0,2.4978,2.6089,2.5011,2.5651,2.5194,2.269,2.2409,2.2327,2.2122,2.249,2.2799,2.3081,2.3091,2.3091,2.3091,2.3091,2.3091,2.3091,2.3091,2.2677,2.1889,2.1889,2.1489,2.0719,2.1534,2.1889,2.1943,2.2765,2.2857,2.251,2.251,2.2178,2.167,2.167,2.1309,2.0771,2.0664,2.0605,2.0605,2.0605,2.0605,2.0605,2.0605,2.0605,2.0605,2.0605,2.0605,2.0605,2.0605,2.0605,2.0605,2.0605,2.0605,2.0605,2.0605,2.0605,2.0566,2.0419,2.0498,2.0517,2.0224,2.0282,2.0117,1.9404,1.916,1.8828,1.8115,1.8008,1.8008,1.8008,1.8008,1.8008,1.8008,1.8008,1.8008,1.8008,1.8008,1.7891,1.7607,1.7187,1.7039,1.7316,1.6669,1.6678,1.7516,1.7843,1.7736,1.7242,0.0,0.0,0.0,0.0,0.0,0.0,0.0,0.0,0.0,0.0,0.0,0.0,0.0,0.0,0.0,0.0,0.0,0.0,0.0,0.0,0.0,0.0,0.0,2.5598,2.6172,2.6472,2.613,2.7284,2.6769,2.3399,2.4175,2.4239,2.2686,2.2953,2.3135,2.3091,2.3091,2.3091,2.3091,2.3091,2.3091,2.3091,2.3091,2.3091,2.3091,2.3091,2.3091,2.3091,2.3091,2.3091,2.3081,2.3081,2.2828,2.2471,2.2471,2.1931,2.1181,2.119,2.1181,2.1122,2.0723,2.0605,2.0605,2.0605,2.0605,2.0605,2.0605,2.0605,2.0605,2.0605,2.0605,2.0605,2.0605,2.0605,2.0605,2.0644,2.0644,2.0595,2.0624,2.0586,2.0458,1.999,2.0225,2.0321,1.9453,1.9609,1.9746,1.9336,1.8916,1.8461,1.8076,1.8008,0.0,1.8008,1.8008,1.8008,1.8008,1.8008,1.8008,1.8008,1.8008,1.8032,1.8022,1.7674,1.7778,1.85,1.7411,1.7159,1.7873,1.8027,1.8566,1.959,0.0,0.0,0.0,0.0,0.0,0.0,0.0,0.0,0.0,0.0,0.0,0.0,0.0,0.0,0.0,0.0,0.0,0.0,0.0,0.0,0.0,2.5103,2.5598,2.5598,2.713,2.8187,2.8102,2.8089,2.7719,2.6769,2.6296,2.5492,2.4249,2.4267,2.3963,2.3135,2.3091,2.3091,2.3091,2.3091,2.3091,2.3091,2.3091,2.3091,2.3091,2.3091,2.3091,2.3091,2.3091,2.2925,2.2643,2.2643,2.2223,2.1541,2.1541,2.125,2.0781,2.1103,2.1035,2.0732,2.0644,2.0605,2.0605,2.0605,2.0605,2.0605,2.0605,2.0605,2.0605,2.0605,2.0605,2.0605,2.0605,2.0605,2.075,2.1441,2.1116,2.071,2.108,2.0607,1.998,1.9551,1.9551,1.9607,1.9336,1.9121,1.8909,1.8802,1.8676,1.8461,1.8076,1.8008,0.0,1.8008,1.8008,1.8008,1.8008,1.8008,1.8008,1.8008,1.8596,1.881,1.847,1.8924,1.9169,1.9075,1.875,1.911,2.0245,2.0101,2.0438,0.0,0.0,0.0,0.0,0.0,0.0,0.0,0.0,0.0,0.0,0.0,0.0,0.0,0.0,0.0,0.0,0.0,0.0,0.0,0.0,0.0,0.0,2.7315,2.7503,2.7259,2.7997,2.8637,2.8863,2.8642,2.8258,2.7802,2.7405,2.6491,2.4914,2.4787,2.4296,2.3178,2.3091,2.3091,2.3091,2.3091,2.3091,2.3091,2.3091,2.3091,2.3091,2.3091,2.3091,2.3091,2.3091,2.2867,2.251,2.251,2.2021,2.119,2.119,2.0967,0.0,0.0,0.0,0.0,0.0,2.0857,2.1193,2.1193,2.1451,2.1821,2.1821,2.1821,2.1821,2.1821,2.1821,2.1821,2.1821,2.1821,2.1817,2.1769,2.1605,2.1315,2.0687,2.0648,2.0514,1.9727,1.9981,2.018,1.9424,1.9492,0.0,1.9,1.8602,1.8256,1.8047,1.8303,1.8519,1.8519,1.8844,1.9077,1.9077,1.9077,1.9077,1.9077,1.9562,0.0,0.0,0.0,2.0093,1.9946,2.0033,0.0,0.0,0.0,0.0,0.0,0.0,0.0,0.0,2.4821,2.5473,0.0,0.0,0.0,0.0,0.0,0.0,0.0,0.0,0.0,0.0,0.0,0.0,0.0,0.0,0.0,0.0,2.9774,3.0343,2.9707,2.8821,2.8395,2.8775,2.88,2.8461,2.7555,2.7896,2.7371,2.5326,2.5157,2.467,2.356,0.0,0.0,0.0,0.0,2.3091,2.3091,2.3091,2.3091,2.3091,2.3091,2.3071,2.3023,2.3023,2.2769,2.2363,2.2363,2.1914,2.1112,2.1112,2.0997,2.075,2.0644,2.0673,2.075,2.075,2.1375,2.2178,2.2178,0.0,0.0,2.3514,2.3514,2.3514,2.3514,2.3514,2.3503,2.3422,2.3399,2.3142,2.1933,2.2102,2.2125,2.0145,2.0765,2.1493,2.023,2.0899,2.1294,1.9755,2.038,2.0765,1.9626,1.8821,1.8303,1.8303,1.8944,1.9464,1.9464,2.0107,2.059,2.059,0.0,0.0,2.059,2.0687,2.0751,2.0751,2.0903,2.1033,2.1172,2.1445,2.2072,2.3095,2.318,2.4002,2.5598,2.5661,2.6239,2.7291,2.585,2.6276,0.0,0.0,0.0,0.0,0.0,0.0,0.0,0.0,0.0,0.0,0.0,0.0,0.0,0.0,0.0,3.1103,3.1459,3.1229,3.0334,2.9662,2.8986,2.8321,2.826,2.8362,2.8561,2.8698,2.837,2.7527,2.747,2.6982,2.5891,2.4967,2.4457,2.4457,2.3594,2.3091,2.3091,2.3091,2.3091,2.3091,0.0,0.0,2.2637,2.2637,2.2175,2.1444,2.1444,2.1182,2.0732,2.0732,2.1119,2.1669,2.0895,2.1039,2.1735,2.1735,2.2366,2.322,2.322,2.3331,2.3514,2.3514,2.3514,2.3514,2.3514,2.3514,0.0,2.2972,2.2849,2.288,2.2903,2.2503,2.2035,2.2056,2.1686,2.1186,2.0609,2.0673,2.075,2.0399,2.054,2.0638,2.0376,2.0204,2.0107,2.0107,2.0236,2.0365,2.0365,2.0494,2.059,2.059,2.059,2.059,2.059,2.1227,2.1647,2.1647,2.2703,2.3336,2.338,2.3859,2.4208,2.4419,2.4863,2.524,2.5598,2.6097,2.6675,2.7281,2.7406,2.7934,0.0,0.0,0.0,0.0,0.0,0.0,0.0,0.0,0.0,0.0,0.0,2.8382,2.937,0.0,3.1837,3.3084,3.2824,3.2174,3.1411,2.9948,2.8682,2.779,2.7695,2.7795,2.8084,2.8562,2.8558,2.7758,2.7941,2.7643,2.6565,2.5975,2.563,2.563,2.5094,2.4808,2.4808,2.4808,2.451,2.3963,2.4229,2.3686,2.25,2.28,2.2258,2.123,2.172,2.1685,2.1336,2.1859,2.2339,2.2702,2.2226,2.2339,2.2739,2.2739,2.3368,2.4264,2.4264,2.4588,2.4981,2.4981,2.4981,2.4933,2.4624,2.4541,2.4434,2.3902,2.3759,2.3629,2.314,2.2977,2.2749,2.1864,2.1928,2.1985,2.138,2.1585,2.1741,2.1333,2.1585,2.171,2.1333,2.1573,2.1573,2.0719,2.0974,2.1239,2.1239,2.1616,2.1865,2.1865,2.1865,2.1865,2.1865,2.2249,2.2506,2.2506,2.3449,2.4117,2.4406,2.4921,2.5347,2.5636,2.59,2.6059,2.6059,2.6348,2.6776,2.7293,2.7846,2.8398,0.0,0.0,0.0,0.0,0.0,0.0,0.0,0.0,2.6677,2.7764,2.9052,3.0148,3.0776,3.2317,3.3754,3.4547,3.4059,3.326,3.232,3.0488,2.8749,2.7503,2.7258,2.7203,2.7268,2.8084,2.83,2.7659,2.8029,2.7909,2.7168,2.6924,2.6801,2.6801,2.6595,2.6524,2.6524,2.6524,2.5961,2.4977,2.5373,2.4624,2.2843,2.3293,2.2797,2.1669,2.2488,2.2641,2.2366,2.3184,2.3635,2.3781,2.3781,2.3927,2.4061,2.3741,2.4258,2.5096,2.5,2.5497,2.6172,2.6172,2.6172,2.6084,2.5586,2.5448,2.5335,2.4808,2.4625,2.4359,2.3098,2.3304,2.335,2.1521,2.2113,2.2914,2.2261,2.2628,2.2914,2.2261,2.2659,2.2884,2.2249,2.2659,2.2628,2.129,2.1678,2.2137,2.2137,2.2702,2.3108,2.3108,2.3108,2.3108,2.3108,2.3108,2.3108,2.3108,2.3747,2.4356,2.4775,2.5423,2.6021,2.6487,2.6499,2.6499,2.6499,2.6499,2.6725,2.7165,2.7795,2.8398,2.2987,2.2857,2.2721,2.3978,2.4335,2.5073,0.0,0.0,2.9202,2.9352,3.0402,3.1481,3.2138,3.2946,3.3903,3.519,3.5287,3.4534,3.2489,3.1954,3.076,2.798,2.7028,2.6788,2.7231,2.7394,2.7835,2.8662,2.8787,2.8998,2.9392,2.8478,2.7924,2.7924,2.7005,2.6524,2.6524,2.6524,2.6166,2.5507,2.5583,2.5025,2.4013,2.4061,2.3774,2.3235,2.3383,2.3386,2.3331,2.3441,2.4036,2.4826,2.4826,2.537,2.5998,2.462,2.4715,2.5444,2.4995,2.4898,2.5008,2.5008,2.5008,2.4996,2.4888,2.4876,2.4795,2.4243,2.4092,2.3923,2.3255,2.3135,2.3153,2.2866,2.2944,2.3078,2.2987,2.3047,2.3078,2.2975,2.3047,2.3078,2.2975,2.3035,2.3047,2.2854,2.2914,2.2975,2.2975,2.3035,2.3108,2.3108,2.3108,2.3108,2.3108,2.3108,2.3108,2.3108,2.4111,2.4725,2.4788,2.5812,2.6424,2.6499,2.6499,2.6499,2.6499,2.6499,2.6524,2.6612,2.762,2.8398,2.3366,2.4208,2.4913,0.0,2.603,2.7165,2.8325,2.9388,3.0122,3.0111,3.1475,3.2617,3.2511,3.3698,3.4713,0.0,3.4906,3.4467,3.3155,3.2171,3.1014,2.9415,2.846,2.7676,2.6918,2.7128,2.7607,2.8398,2.8712,2.9176,2.9767,2.9365,2.9106,2.9106,2.8661,2.8422,2.8422,2.8422,2.7818,2.6584,2.6887,2.6051,2.4216,2.4531,2.4545,2.4373,2.4373,2.4696,2.524,2.524,2.5499,2.5873,2.5873,2.593,2.5891,2.5237,2.5252,2.5523,2.5008,2.4788,2.4788,2.4788,2.4788,2.4725,2.4443,2.4343,2.4217,2.3622,2.3471,2.3409,2.317,2.3108,2.3108,2.3108,2.3108,2.3108,2.3108,2.3108,2.3108,2.3108,2.3108,2.3108,2.3108,2.3108,2.3108,2.3108,2.3108,2.3108,2.3108,2.3108,2.3108,2.3108,2.3108,2.3108,2.3108,2.3108,2.3108,2.3108,2.4161,2.4788,2.4788,2.5908,2.6499,2.6499,2.6499,2.6714,2.7196,2.7196,2.7451,2.798,2.8737,2.9427,2.3865,2.5028,0.0,2.6328,2.7558,2.8801,2.9046,2.996,3.0742,3.0739,3.2075,3.3134,3.282,3.3957,3.4923,3.4788,3.4614,3.4279,3.3589,3.2532,3.1456,3.0416,2.9735,2.878,2.7317,2.731,2.7614,2.8059,2.8473,2.9026,2.9754,2.9792,2.9792,2.9792,2.9641,2.9628,2.9792,2.9478,2.8709,2.7531,2.7742,2.6822,2.4833,2.5242,2.5406,2.5406,2.5406,2.5838,2.6499,2.6499,2.6499,2.6499,2.6499,2.6135,2.5573,2.5435,2.5285,2.5084,2.4512,2.4324,2.4324,2.4324,2.4324,2.4249,2.3879,2.3753,2.3665,2.3221,2.3108,2.3108,2.3108,2.3108,2.3108,2.3108,2.3108,2.3108,2.3108,2.3108,2.3108,2.3108,2.3108,2.3108,2.3108,2.3108,2.3108,2.3108,2.3108,2.3108,2.3108,2.3108,2.3108,2.3108,2.3108,2.3108,2.3108,2.3108,2.317,2.3333,2.4249,2.4883,2.4988,2.6173,2.685,2.685,2.7061,2.7484,2.8051,2.8051,2.8363,2.9016,2.9559,3.0069,0.0,0.0,2.5742,2.7785,2.8856,2.9537,3.0209,3.0871,3.1357,3.1373,3.1987,3.2704,3.3338,3.3529,3.4001,3.5258,3.491,3.4279,3.3589,3.3439,3.2657,3.0534,3.0269,2.9919,2.9002,2.8163,2.7811,2.8094,2.8122,2.8612,2.9729,2.9792,2.9792,2.9792,2.9252,2.9227,2.9779,2.8699,2.8147,2.8085,2.757,2.7017,2.6443,2.6465,2.6452,2.6452,2.6452,2.6452,2.6499,2.6499,2.6499,2.6499,2.6499,2.6135,2.5536,2.5034,2.4506,2.3966,2.3358,2.3158,2.3158,2.3158,2.3158,2.3158,2.3133,2.3133,2.3133,2.3108,2.3108,2.3108,2.3108,2.3108,2.3108,2.3108,2.3108,2.3108,2.3108,2.3108,2.3108,2.3108,2.3108,2.3108,2.3108,2.3108,2.3108,2.3108,2.3108,2.3108,2.3108,2.3108,2.3108,2.3108,2.3108,2.3108,2.3108,2.3108,2.3346,2.3941,2.4474,2.5046,2.5548,2.6926,2.767,2.767,2.8492,2.8939,2.8971,2.8971,2.8971,2.9016,2.9559,2.9816,2.4374,0.0,2.7208,2.7575,2.8844,2.9957,2.9778,3.0555,3.1232,3.0822,3.1635,3.2383,3.2149,3.3226,3.4342,3.4802,3.5048,3.511,3.4926,3.4485,3.3721,3.2567,3.2403,3.2081,3.1222,2.9568,0.0,2.9832,2.9324,2.9476,3.0668,3.0139,2.9616,2.9239,2.9001,2.885,2.8674,2.8298,2.7921,2.7557,2.704,2.6675,2.6499,2.6499,2.6499,2.6499,2.6499,2.6499,2.6499,2.6499,2.6499,2.6499,2.6499,2.59,2.5124,2.5441,2.4617,2.3358,2.317,2.3108,2.3108,2.3108,2.3108,2.3108,2.3108,2.3108,2.3108,2.3108,2.3108,2.3108,2.3108,2.3108,2.3215,2.3767,2.3884,2.4031,2.4525,2.4639,2.4639,2.4639,2.4639,2.4639,2.4639,2.4639,2.4639,2.4639,2.3754,2.3108,2.3108,2.3108,2.3108,2.3108,2.3108,2.3108,2.3108,2.3953,2.4584,2.4793,2.6219,2.7158,2.7314,2.8116,2.8556,2.8556,2.8844,2.9286,2.9858,2.9858,3.0133,3.0658,3.0832,3.1167,2.4866,2.629,2.7644,2.7866,2.8883,2.9785,2.9681,3.0276,3.0853,3.0718,3.1364,3.1907,3.1759,3.2606,3.3719,3.4787,3.5078,3.5283,3.556,3.5202,3.4545,3.3605,3.3499,3.3285,3.271,3.1421,0.0,3.1148,3.0616,3.0699,3.1665,3.0898,3.0266,2.9876,2.9147,2.8696,2.8579,2.7887,2.7379,2.7014,2.6663,2.6499,2.6499,2.6499,2.6499,2.6499,2.6499,2.6499,2.6499,2.6499,2.6499,2.6521,2.6816,2.6215,2.5281,2.6074,2.5345,2.393,2.393,2.3767,2.3543,2.3543,2.3543,2.3543,2.3543,2.3543,2.359,2.3842,2.393,2.393,2.393,2.393,2.4034,2.4567,2.4681,2.4823,2.5287,2.5398,2.5398,2.5398,2.5398,2.5398,2.5398,2.5398,2.5398,2.5398,2.4553,2.393,2.393,2.3442,2.3215,2.3514,2.3543,2.3543,2.3543,2.481,2.5695,2.591,2.7358,2.8293,2.847,2.9108,2.9473,2.9473,2.9766,3.0178,3.0748,3.0748,3.0999,3.1511,3.1511,3.1735,2.6268,2.6691,2.7114,2.857,2.8976,2.9196,2.9976,3.0129,3.0332,3.1026,3.1162,3.1365,3.2005,3.1733,3.2329,3.5087,3.5098,3.4997,3.5673,3.5728,3.5213,0.0,0.0,0.0,0.0,0.0,0.0,3.2087,0.0,3.2111,3.2636,3.1992,3.1578,3.155,2.9617,2.8818,2.9359,2.7533,2.6624,2.6624,2.6624,2.6624,2.6624,2.6624,2.6624,2.6624,2.6624,2.6624,2.6624,2.6624,2.6624,2.6679,2.7484,2.7042,2.6061,2.6955,2.6462,2.5398,2.5481,2.5007,2.435,2.435,2.435,2.435,2.435,2.435,2.4509,2.5203,2.5398,2.5398,2.5398,2.5398,2.5398,2.5453,2.5453,2.5481,2.5508,2.5508,2.5508,2.5508,2.5508,2.5508,2.5508,2.5508,2.5508,2.5508,2.5508,2.5495,2.5412,2.4121,2.3514,2.4332,2.4419,2.4432,2.4458,2.5732,2.6786,2.7296,2.7966,2.8594,2.9101,2.9919,3.0359,3.0359,3.1117,3.1511,3.1511,3.1511,3.1511,3.1511,3.1511,3.1511,2.5778,2.6674,2.7604,2.801,2.8552,2.927,3.0314,3.054,3.0592,3.0782,3.0833,3.0639,2.9965,3.1493,0.0,3.4583,3.6018,0.0,3.7963,3.7575,0.0,3.676,0.0,3.5815,3.5815,3.5316,0.0,0.0,3.346,3.3043,3.3608,3.234,3.142,3.1012,3.0021,2.9356,2.9103,2.8609,2.8363,2.8363,2.8363,2.8363,2.8363,2.8363,2.8363,2.8363,2.8363,2.8363,2.8363,2.8363,2.8363,2.8363,2.8588,2.7916,2.6941,2.7736,2.6891,2.5563,2.6666,2.6215,2.5119,2.5119,2.5119,2.5119,2.5119,2.5119,2.5147,2.5342,2.5398,2.5398,2.5398,2.5398,2.5536,2.6095,2.6229,2.6363,2.6916,2.7034,2.7034,2.7034,2.7034,2.7034,2.7034,2.7034,2.7034,2.7034,2.7006,2.6592,2.5536,2.5063,2.5085,2.5791,2.5875,2.6039,2.6493,2.7821,2.8698,2.8826,2.9973,3.0734,3.0866,3.1087,3.119,3.119,3.1409,3.1511,3.1511,3.1511,3.1511,3.1511,3.1511,3.1511,2.5998,2.6691,2.7334,2.7334,2.7655,2.8234,2.9196,2.9558,2.9747,2.9918,2.9936,2.976,2.9119,3.0753,3.2681,0.0,0.0,0.0,3.8754,3.8553,3.8161,0.0,3.7397,0.0,3.663,3.5952,3.5392,0.0,3.4499,3.4292,3.4629,3.3244,3.2305,3.1994,3.0711,2.9698,2.9002,2.9002,2.9002,2.9002,2.9002,2.9002,2.9002,2.9002,2.9002,2.9002,0.0,2.9002,2.9002,2.9002,2.9002,2.9006,2.9086,2.8551,2.7723,2.8262,2.7536,2.6481,2.7316,2.706,2.6322,2.5973,2.5864,2.5864,2.5864,2.5864,2.5946,2.6269,2.6375,2.6375,2.6375,2.6375,2.6455,2.6878,2.6982,2.71,2.7524,2.76,2.76,2.76,2.76,2.76,2.76,2.76,2.76,2.76,2.7817,2.7698,2.6917,2.6469,2.6495,2.7187,2.7286,2.7413,2.7738,2.9059,2.9883,2.9883,3.0906,3.1511,3.1511,3.1511,3.1511,3.1511,3.1511,3.1511,3.1511,3.1511,3.1511,3.1511,3.1511,3.1511,2.6353,2.6539,2.6573,2.6674,2.6691,2.6911,2.7708,2.8201,2.8572,2.8867,0.0,2.9031,2.8867,2.9881,3.1587,3.41,0.0,3.7444,3.8858,3.9059,3.8799,3.8177,3.8007,3.7642,3.6839,3.6143,3.5397,3.4572,3.5035,3.5317,3.5235,3.4053,3.332,3.3245,3.1423,3.0103,2.9348,2.9317,2.9317,2.9317,2.9317,2.9317,2.9317,2.9317,2.9317,2.9317,2.9317,2.9317,2.9317,2.9317,2.9317,2.9355,2.9415,2.9059,2.8494,2.8578,2.8173,2.76,2.76,2.76,2.7484,2.6852,2.6642,2.6642,2.6642,2.6642,2.6774,2.7408,2.76,2.76,2.76,2.76,2.76,2.76,2.76,2.76,2.76,2.76,2.76,2.76,2.76,2.76,2.76,2.76,2.76,2.76,2.8259,2.8727,2.8727,2.8078,2.7867,2.8596,2.8667,2.8696,2.8797,2.9919,3.0642,3.0642,3.1182,3.1511,3.1511,3.1511,3.1511,3.1511,3.1511,3.1511,3.1511,3.1511,3.1511,3.1511,3.1511,3.1511,2.5592,2.5795,2.5947,2.6539,2.6691,2.6995,2.8128,2.8699,0.0,0.0,2.9074,2.9176,2.8186,2.9983,3.2221,3.4185,3.6315,3.8212,3.9682,3.9901,3.9833,0.0,3.9113,3.8406,3.7666,3.6954,0.0,0.0,3.4615,3.4439,3.3874,3.311,3.2407,3.1854,3.1499,3.1219,3.1058,3.1058,3.1058,3.1058,3.1058,3.1058,3.1058,3.1058,3.1058,3.1058,3.1058,0.0,3.1058,3.1058,3.1058,3.1013,3.0507,2.9924,2.9312,2.8778,2.8173,2.76,2.76,2.76,2.7575,2.7458,2.7408,2.7408,2.7408,2.7408,2.7433,2.756,2.76,2.76,2.76,2.76,2.76,2.76,2.76,2.76,2.76,2.76,2.76,2.76,2.76,2.76,2.76,2.76,2.76,2.76,2.8648,2.9442,2.9442,2.93,2.9428,3.0073,3.0145,3.0355,3.092,3.1199,3.1331,3.1331,3.1436,3.1511,3.1511,3.1511,3.1511,3.1511,3.1511,3.1511,3.1511,3.1511,3.1511,3.1511,3.1511,3.1511,2.4931,2.5304,2.5677,2.6048,2.6568,2.7106,2.7465,0.0,0.0,0.0,2.8959,2.962,2.865,3.0471,0.0,3.3556,3.5069,3.6789,3.8684,3.8954,3.9225,4.0011,3.9756,3.9059,3.792,3.7175,3.6158,3.4664,3.4215,3.3882,3.3516,3.2871,3.2183,3.1525,3.1511,3.1511,3.1511,3.1511,3.1511,3.1511,3.1511,3.1511,3.1511,3.1511,3.1511,3.1511,3.1511,3.1511,3.1511,3.1511,3.1286,3.0913,3.0283,2.9639,2.9034,2.8677,2.8147,2.7685,2.8328,2.8343,2.8116,2.8424,2.81,2.76,2.76,2.76,2.76,2.76,2.76,2.76,2.76,2.76,2.76,2.76,2.7835,2.8149,2.8472,2.8543,2.8543,2.8543,2.8543,2.8543,2.8543,2.8543,2.8543,2.8543,2.9106,2.9812,3.0504,3.0262,3.0313,3.0943,3.1017,3.1152,3.1481,3.1511,3.1511,3.1511,3.1511,3.1511,3.1511,3.1511,3.1511,3.1511,3.1881,3.2064,3.2064,3.2407,3.2583,3.2583,3.2244,3.2272,2.422,2.4812,2.5406,2.5558,2.6392,2.7083,2.6775,2.7467,0.0,0.0,2.8778,2.9906,2.9436,3.0971,3.254,0.0,3.4091,3.5443,3.7715,3.8095,3.8616,0.0,4.0096,0.0,3.8188,3.7442,0.0,3.4949,3.406,3.3576,3.3527,3.2998,3.244,3.1769,3.1754,3.1668,3.1511,3.1511,3.1511,3.1511,3.1511,3.1511,3.1511,3.1511,3.1511,3.1511,3.1511,3.1511,3.1511,3.1511,3.1177,3.0639,3.0021,2.9463,2.8961,2.8774,2.8391,2.8125,2.9065,2.9088,2.8756,2.9248,2.8764,2.7993,2.7993,2.7993,2.7993,2.7993,2.7993,2.7993,2.7993,2.7993,2.7993,2.7993,2.8343,2.8826,2.9293,2.9406,2.9406,2.9406,2.9406,2.9406,2.9406,2.9406,2.9406,2.9406,2.9572,3.0145,3.1342,3.1177,3.1177,3.1875,3.1824,3.1754,3.1754,3.1866,3.1951,3.1951,3.1951,3.1894,3.1739,3.1866,3.1894,3.1739,3.2449,3.2815,3.2815,3.3339,3.3582,3.3582,3.3066,3.3093,2.3325,2.4051,2.4762,2.5439,2.6183,2.6741,2.6708,0.0,2.7378,2.7301,2.8564,2.9755,3.0044,3.1163,3.2581,3.427,0.0,3.5904,3.8119,3.8723,3.9191,4.0011,0.0,0.0,3.8982,3.8231,3.7198,3.572,3.4367,3.3594,3.3592,3.3545,3.3208,3.252,3.2492,3.2176,3.1511,3.1511,3.1511,3.1511,3.1511,3.1511,3.1511,3.1511,3.1511,3.1511,3.1511,3.1511,0.0,3.1511,3.1429,3.1255,3.0649,3.0332,3.0156,2.9526,2.9271,2.9248,2.9361,2.9361,2.9316,2.9384,2.9316,2.9225,2.9225,2.9225,2.9225,2.9225,2.9225,2.9225,2.9225,2.9225,2.9225,2.9225,2.9271,2.9339,2.9384,2.9406,2.9406,2.9406,2.9406,2.9406,2.9406,2.9406,2.9406,2.9406,2.9929,3.0608,3.1414,3.1987,3.2603,3.3338,3.2853,3.2492,3.2492,3.3066,3.3417,3.3417,3.3417,3.313,3.2504,3.3077,3.3103,3.252,3.3156,3.3521,3.3521,3.3572,3.3582,3.3582,3.3531,3.3531,2.2651,2.3596,2.4558,2.4863,2.6003,2.6987,2.6758,0.0,2.8333,2.8378,2.9797,3.1173,3.1568,3.2231,3.3124,3.4318,3.3987,3.4545,3.7331,3.7512,3.798,3.9648,3.999,0.0,0.0,0.0,3.7263,3.5743,3.5124,3.48,3.48,3.4037,3.3495,3.3209,3.3182,3.305,3.2772,3.2756,3.2756,3.2772,3.2339,3.2176,3.2176,3.2176,3.2176,3.2173,3.2125,3.2344,0.0,3.1804,3.1445,3.1388,3.07,3.0188,2.9813,2.9918,2.9717,2.9496,3.023,3.0251,3.0,3.0372,3.0477,3.0351,2.9629,2.9406,2.9406,2.9406,2.9406,2.9406,2.9406,2.9406,2.9496,2.9848,2.9935,3.0043,3.0414,3.0477,3.0477,3.0477,3.0477,3.0477,3.0477,3.0477,3.0477,3.0477,3.0773,3.1389,3.2486,3.2593,3.2988,3.408,3.3582,3.3182,3.3182,3.3443,3.3582,3.3582,3.3582,3.3495,3.3209,3.3469,3.3453,3.3224,3.3862,3.4211,3.4211,3.4609,3.48,3.4776,3.4382,3.4423,2.2567,2.3528,2.4541,2.4778,2.5984,2.7104,0.0,2.7984,2.8966,2.9346,3.0807,3.2144,3.2517,3.3022,3.3557,0.0,3.3753,3.4317,3.7004,3.7308,3.8028,4.0083,0.0,4.0131,3.9603,3.8567,3.7364,3.6062,3.5718,3.56,3.56,3.4704,3.4087,3.3912,3.3887,3.3811,3.3582,3.3582,3.3582,3.3582,3.3119,3.2895,3.2879,3.2665,3.2571,3.2567,3.2282,3.2476,0.0,3.1829,3.1422,3.1377,3.087,3.037,2.9978,3.0414,3.0293,3.0059,3.0915,3.0918,3.0638,3.1055,3.119,3.1035,3.0187,2.9935,2.9935,2.9935,2.9935,2.9935,2.9935,2.9935,3.0038,3.0477,3.0576,3.0679,3.1112,3.119,3.119,3.119,3.119,3.119,3.119,3.119,3.119,3.119,3.1461,3.2093,3.3242,3.3253,3.362,3.4764,3.4471,3.4112,3.3912,3.4062,3.4202,3.4202,3.4202,3.4087,3.3912,3.4103,3.4087,3.3912,3.4568,3.4894,3.4894,3.5362,3.56,3.56,3.5121,3.5144,2.319,2.3932,2.4677,2.5423,2.615,2.6911,2.7621,2.815,2.8831,2.9962,3.1201,3.22,3.2549,3.3243,3.3807,3.3807,3.473,3.6004,3.7573,3.8752,4.004,0.0,4.1251,4.088,4.0862,3.9067,3.7584,3.6846,3.6045,0.0,3.56,3.56,3.5293,3.46,3.4576,3.4284,3.3608,3.3582,3.3582,3.3582,3.3582,3.3582,3.3566,3.2828,3.2499,3.2467,3.1725,3.1421,0.0,3.1406,3.1345,3.1292,3.1292,3.1249,3.1171,3.119,3.119,3.119,3.119,3.119,3.119,3.119,3.119,3.119,3.119,3.1171,3.1171,3.1171,3.1171,3.1171,3.1171,3.1171,3.119,3.119,3.119,3.119,3.119,3.119,3.119,3.119,3.119,3.119,3.119,3.119,3.119,3.119,3.1816,3.2544,3.3305,3.4032,3.4771,3.5515,3.5577,3.5316,3.4664,3.5207,3.5577,3.5577,3.5577,3.5276,3.4616,3.523,3.527,3.46,3.5253,3.56,3.56,3.56,3.56,3.56,3.56,3.56,2.4085,2.4678,2.5304,2.5541,2.6522,2.7606,2.8149,2.916,3.0291,3.1282,3.222,3.3151,3.4073,3.4454,3.5169,3.6872,3.6988,0.0,0.0,0.0,0.0,4.1396,4.1519,4.1165,0.0,0.0,3.7986,3.6869,3.6062,3.56,3.56,3.56,3.5492,3.5276,3.5276,3.5184,3.4958,3.4958,3.4958,3.4958,3.4496,3.4284,3.4284,3.4056,3.3656,3.3183,3.2894,3.2774,3.2691,3.1694,3.155,3.1938,3.1415,3.1217,3.119,3.119,3.119,3.119,3.119,3.119,3.119,3.119,3.119,3.119,3.119,3.119,3.119,3.119,3.119,3.119,3.119,3.119,3.119,3.119,3.119,3.119,3.119,3.119,3.119,3.119,3.119,3.119,3.119,3.119,3.119,3.119,3.2256,3.3136,3.3372,3.4489,3.5329,3.5566,3.56,3.5515,3.5316,3.547,3.56,3.56,3.56,3.5492,3.5276,3.5492,3.5492,3.5293,3.5492,3.56,3.56,3.56,3.56,3.56,3.56,3.56,0.0,2.5253,2.566,2.5947,2.6911,2.7997,2.8727,2.9982,3.1258,3.2301,3.3241,3.4113,3.4871,3.5261,3.5995,3.7551,3.7881,0.0,0.0,0.0,0.0,4.1809,4.204,0.0,0.0,3.9608,3.8676,3.7892,3.6831,3.6207,3.6207,3.6011,3.5898,3.5898,3.5694,3.56,3.56,3.56,3.56,3.56,3.5184,3.4965,3.4965,3.4682,3.4166,3.345,3.3119,3.2831,0.0,3.1579,3.1461,3.1853,3.1376,3.119,3.119,3.119,3.119,3.119,3.119,3.119,3.123,3.1389,3.1562,3.1694,3.1694,3.1466,3.119,3.119,3.119,3.119,3.119,3.131,3.143,3.143,3.1564,3.1694,3.1694,3.1694,3.1694,3.1694,3.1694,3.1694,3.1694,3.1694,3.1638,3.1449,3.2853,3.3874,3.3724,3.4998,3.5898,3.5898,3.5717,3.56,3.56,3.56,3.56,3.56,3.56,3.56,3.56,3.56,3.56,3.56,3.56,3.56,3.56,3.56,3.56,3.56,3.56,3.56,0.0,2.5743,2.5862,2.659,2.7351,2.8218,2.9452,3.0648,0.0,3.3006,3.4174,3.5041,3.5169,3.5844,3.645,3.6688,3.7936,0.0,0.0,4.1442,0.0,0.0,4.2769,4.2519,4.1916,4.0456,3.9532,3.9512,3.8077,3.7209,3.7209,3.6724,3.6457,3.6457,3.5968,3.5694,3.5667,3.5667,3.5667,3.5667,3.5622,3.56,3.5566,3.4844,3.41,0.0,3.2632,3.1907,3.1249,3.121,3.121,3.1249,3.121,3.121,3.1232,3.1232,3.1252,3.1291,3.1291,3.1291,3.1351,3.1733,3.2144,3.2501,3.2501,3.1932,3.1291,3.1291,3.1291,3.1291,3.1291,3.1565,3.1861,3.1861,3.2179,3.2501,3.2501,3.2501,3.2501,3.2501,3.2501,3.2501,3.2501,3.2501,3.235,3.1933,3.3547,3.4675,3.4283,3.5541,3.6457,3.6457,3.6011,3.5717,3.5717,3.5627,3.56,3.56,3.56,3.56,3.56,3.56,3.56,3.56,3.56,3.56,3.56,3.56,3.56,3.56,3.56,3.56,2.7726,0.0,2.6623,2.735,2.8129,2.9107,0.0,3.1619,3.2513,3.3454,0.0,3.5389,3.667,3.7088,3.8025,4.0487,4.0689,4.1038,4.2451,4.2965,4.3243,4.3303,4.3303,4.3087,4.2539,4.1044,3.9941,3.9532,3.8077,3.7209,3.7209,3.7078,3.7001,3.7001,3.6884,3.6623,3.6224,3.6224,3.6224,3.6203,3.5805,3.56,3.5566,3.4844,3.41,3.3372,3.2632,3.2054,3.164,3.1332,3.1389,3.164,3.1312,3.1389,3.166,3.166,3.1896,3.2179,3.2179,3.2179,3.2196,3.2316,3.2417,3.2501,3.2501,3.235,3.2179,3.2179,3.2179,3.2179,3.2179,3.2265,3.235,3.235,3.2417,3.2501,3.2501,3.2501,3.2501,3.2501,3.2501,3.2501,3.2501,3.2501,3.2467,3.235,3.374,3.4765,3.4658,3.6032,3.7001,3.7001,3.6902,3.6825,3.6825,3.6075,3.56,3.56,3.56,3.56,3.56,3.56,3.56,3.56,3.56,3.56,3.56,3.56,3.56,3.56,3.56,3.56,2.8319,2.8199,2.8118,2.8706,2.9615,3.0609,3.1661,0.0,0.0,0.0,0.0,3.5881,3.6795,3.786,3.9182,4.091,4.146,0.0,4.3331,4.3515,4.3515,4.3515,4.3515,4.3246,0.0,4.1395,4.0399,3.9734,3.8581,3.7878,3.7878,3.7649,3.7524,3.7524,3.7524,3.7285,3.6764,3.6764,3.6764,3.6764,3.646,3.6125,3.5721,3.5327,3.4533,3.346,3.3064,3.2609,3.2092,3.1896,3.1914,3.2109,3.1878,3.1932,3.2109,3.2109,3.2282,3.2501,3.2501,3.2632,3.2809,3.2809,3.295,3.3087,3.3087,3.3087,3.3011,3.2616,3.2501,3.2501,3.2501,3.2665,3.2809,3.2809,3.2965,3.3087,3.3087,3.3087,3.3087,3.3087,3.3087,3.3087,3.3087,3.3087,3.3027,3.284,3.4327,3.5416,3.5198,3.6541,3.7524,3.7524,3.7323,3.7209,3.7209,3.6684,3.6316,3.6316,3.6316,3.6316,3.6316,3.6316,3.6316,3.6316,3.6316,3.6316,3.6316,3.6316,3.6316,3.6316,3.6316,3.6207,2.8802,2.9495,3.0057,3.0164,3.105,3.2003,3.2484,0.0,0.0,0.0,0.0,0.0,0.0,3.8505,0.0,0.0,0.0,4.2792,4.3404,4.3515,4.3515,4.3515,4.3515,0.0,4.2378,4.1572,4.0781,3.9955,3.9148,3.8707,3.8707,3.8267,3.8013,3.8013,3.8013,3.7771,3.7254,3.7288,3.7304,3.7304,3.7229,3.6729,3.5914,3.5773,3.4942,3.3599,0.0,0.0,3.2599,3.2534,3.2534,3.2599,3.2534,3.2534,3.2599,3.2599,3.2648,3.2697,3.2697,3.2968,3.3288,3.3288,3.3522,3.3807,3.3807,3.3807,3.3648,3.2903,3.2697,3.2697,3.2697,3.2981,3.3288,3.3288,3.355,3.3807,3.3807,3.3807,3.3807,3.3807,3.3807,3.3807,3.3807,3.3807,3.3694,3.3332,3.5016,3.6164,3.5755,3.7053,3.8013,3.8013,3.7667,3.7433,3.7433,3.7433,3.7433,3.7433,3.7267,3.7209,3.7209,3.7209,3.7209,3.7209,3.7209,3.7209,3.7209,3.7209,3.7209,3.7209,3.7209,3.696,3.097,3.2002,3.223,3.0924,3.1217,3.2039,3.2905,0.0,0.0,0.0,0.0,0.0,0.0,3.9643,4.0651,0.0,0.0,4.3688,4.3529,4.3515,4.3515,4.3515,4.3515,4.3167,4.2378,4.1572,4.0781,3.9955,3.9148,3.8707,3.8707,3.8627,3.8596,3.8596,3.8596,3.8217,3.746,3.7671,3.779,3.779,3.7378,3.6729,3.5879,3.5261,3.4465,3.3563,0.0,3.282,3.306,3.2665,3.2729,3.3045,3.2648,3.2745,3.309,3.309,3.3317,3.3606,3.3606,3.3648,3.3707,3.3707,3.3748,3.3807,3.3807,3.3807,3.3762,3.3634,3.3606,3.3606,3.3606,3.3648,3.3707,3.3707,3.3748,3.3807,3.3807,3.3807,3.3807,3.3807,3.3807,3.3807,3.3807,3.3807,3.3793,3.3721,3.5192,3.627,3.6194,3.7589,3.8596,3.8596,3.8515,3.8483,3.8483,3.8483,3.8483,3.8483,3.7685,3.7209,3.7209,3.7209,3.7209,3.7209,3.7209,3.7209,3.7209,3.7209,3.7209,3.7209,3.7209,3.7171,3.0925,3.1899,3.2493,3.2661,3.3912,3.5224,3.5629,0.0,0.0,0.0,0.0,0.0,0.0,0.0,4.2092,4.4018,4.4318,4.428,4.4125,4.4095,4.4095,4.4095,4.3688,4.3077,4.2257,4.1423,4.0518,3.9548,3.9127,3.884,3.8707,3.8707,3.8505,3.8065,3.8046,3.7661,3.6868,3.697,3.7241,3.7676,3.7466,3.6915,3.6087,3.5291,3.4478,3.3686,0.0,3.3314,3.3508,3.3284,3.3328,3.3508,3.3284,3.3328,3.3522,3.3522,3.3634,3.3807,3.3807,3.3807,3.3807,3.3807,3.3807,3.3807,3.3807,3.3807,3.3807,3.3807,3.3807,3.3807,3.3807,3.3807,3.3807,3.3807,3.3807,3.3807,3.3807,3.3807,3.3807,3.3807,3.3807,3.3935,3.4362,3.4454,3.4601,3.5073,3.6174,3.696,3.696,3.7973,3.8707,3.8707,3.8707,3.8707,3.8707,3.8707,3.8707,3.8707,3.8269,3.8016,3.8016,3.8016,3.8016,3.8016,3.8016,3.8016,3.8016,3.8016,3.8016,3.8016,3.8016,3.7861,3.0585,3.1486,3.2463,3.4132,0.0,3.7188,3.7703,0.0,0.0,0.0,0.0,0.0,0.0,4.2102,4.3552,4.4195,4.4525,4.4682,4.4606,4.4593,4.4517,4.4316,4.3718,4.2894,4.1888,4.1185,4.0353,3.93,3.9212,3.9131,3.8931,3.8718,3.8329,3.7715,3.7498,3.7017,3.6204,3.6325,3.6665,3.7217,3.7217,3.678,3.5973,3.5298,3.4564,3.3807,3.3807,3.3807,3.3807,3.3807,3.3807,3.3807,3.3807,3.3807,3.3807,3.3807,3.3807,3.382,3.3863,3.3889,3.3889,3.3889,3.3889,3.3876,3.3815,3.3807,3.3807,3.3807,3.3807,3.3807,3.3807,3.3807,3.3807,3.3807,3.3807,3.3807,3.3807,3.3807,3.3807,3.3807,3.4015,3.4373,3.4908,3.522,3.5611,3.6207,3.6978,3.7492,3.7492,3.8193,3.8707,3.8707,3.8707,3.8707,3.8707,3.8707,3.8707,3.8707,3.8707,3.8707,3.8707,3.8707,3.8707,3.8707,3.8707,3.8707,3.8707,3.8707,3.8707,3.8707,3.8707,3.8481,3.0937,3.1952,3.2947,3.4559,0.0,0.0,3.7064,3.7569,0.0,0.0,0.0,0.0,0.0,4.3876,4.4608,4.3548,4.4317,4.4954,4.4631,4.4593,4.4297,4.3479,4.3347,4.2668,4.1053,4.0846,4.0469,3.9621,3.9564,3.9564,3.9529,3.8771,3.8289,3.8232,3.7525,3.6735,3.5929,3.6428,3.6586,3.6376,3.6376,3.5936,3.5096,3.5041,3.4564,3.3807,3.3807,3.3807,3.3807,3.3807,3.3807,3.3807,3.3807,3.3807,3.3807,3.3807,3.3807,3.3842,3.4074,3.4183,3.4183,3.4183,3.4183,3.4123,3.3881,3.3807,3.3807,3.3807,3.3807,3.3807,3.3807,3.3807,3.3807,3.3807,3.3807,3.3807,3.3807,3.3807,3.3807,3.3807,3.466,3.5293,3.5055,3.5874,3.6512,3.6323,3.6978,3.7492,3.7492,3.8193,3.8707,3.8707,3.8707,3.8707,3.8707,3.8707,3.8707,3.8707,3.8707,3.8707,3.8707,3.8707,3.8707,3.8707,3.8707,3.8707,3.8707,3.8707,3.8707,3.8707,3.8707,3.8692,3.0643,3.2216,3.387,3.5013,0.0,0.0,0.0,0.0,0.0,0.0,4.2553,0.0,0.0,0.0,4.4832,4.4055,4.4748,4.5362,4.5243,4.4763,4.4285,4.395,4.3004,4.2125,4.1476,4.0922,4.0425,3.9941,3.9912,3.9819,3.9611,3.8765,3.8067,3.7569,3.6767,3.5964,3.5155,3.534,3.5417,3.5301,3.5425,3.5316,3.4986,3.4472,3.41,3.3807,3.3807,3.3807,3.3807,3.3807,3.3807,3.3815,3.3986,3.4177,3.4353,3.4353,3.4353,3.4364,3.4475,3.4518,3.4518,3.4518,3.4518,3.4497,3.4386,3.4353,3.4353,3.4353,3.4353,3.426,3.3908,3.3807,3.3807,3.3807,3.3807,3.3807,3.3807,3.3923,3.4056,3.4056,3.4976,3.5859,3.6227,3.7108,3.7894,3.8297,3.8608,3.8814,3.8814,3.9063,3.9268,3.9268,3.9268,3.9176,3.8975,3.8947,3.8884,3.8704,3.8707,3.8707,3.8707,3.8707,3.8707,3.8707,3.8707,3.8707,3.8707,3.8707,3.8707,3.8707,3.8707,3.8707,3.0985,3.2909,3.4966,0.0,0.0,0.0,0.0,0.0,0.0,0.0,4.3901,0.0,0.0,0.0,0.0,4.4367,4.5037,4.5498,4.5229,4.4682,4.4105,4.3566,4.2508,4.1692,4.1412,4.0854,4.0414,4.0232,4.0223,4.0129,3.9894,3.8819,3.7945,3.7395,3.6331,3.5514,3.4954,3.4879,3.4832,3.4832,3.4874,3.4914,3.4895,3.4352,3.4074,3.4074,3.4074,3.4074,3.4074,3.4074,3.4074,3.4099,3.4295,3.4508,3.4694,3.4694,3.4694,3.4704,3.4812,3.4832,3.4832,3.4832,3.4832,3.4803,3.4743,3.4694,3.4694,3.4694,3.4694,3.4601,3.4196,3.4074,3.4074,3.4074,3.4074,3.4074,3.4074,3.4237,3.4357,3.4357,3.5482,3.6583,3.7028,3.8121,3.9099,3.9528,3.9599,3.9599,3.9599,3.9599,3.9599,3.9599,3.9599,3.9517,3.9276,3.9251,3.9184,3.8998,3.8984,3.8888,3.8707,3.8707,3.8707,3.8707,3.8707,3.8707,3.8707,3.8707,3.8707,3.8707,3.8707,3.8707,3.2184,3.4065,3.6202,0.0,0.0,0.0,0.0,0.0,0.0,0.0,0.0,4.3798,4.3808,4.4068,0.0,4.4278,4.5017,4.5267,4.4412,4.4278,4.3662,4.2,4.1788,4.145,4.0573,4.0496,4.0496,4.0496,4.0496,4.0496,4.0496,3.8911,3.8007,3.7988,3.6365,3.55,3.55,3.5231,3.5105,3.5105,3.4822,3.4694,3.4694,3.4694,3.4694,3.4694,3.4694,3.4694,3.4694,3.4694,3.4694,3.4694,3.4694,3.4723,3.4704,3.4704,3.4704,3.4753,3.5008,3.5105,3.5105,3.5105,3.5105,3.5043,3.4784,3.4704,3.4704,3.4704,3.4704,3.4704,3.4704,3.4704,3.4723,3.4694,3.4694,3.4694,3.4694,3.4694,3.4694,3.4694,3.6274,3.7499,3.7184,3.8781,3.9992,3.9656,3.9611,3.9611,3.9611,3.9611,3.9611,3.9611,3.9611,3.9611,3.9611,3.9611,3.9599,3.9599,3.9599,3.9327,3.8719,3.8707,3.8707,3.8707,3.8707,3.8707,3.8707,3.8707,3.8707,3.8707,3.8707,3.8707,3.1615,3.3812,0.0,3.7271,0.0,0.0,0.0,0.0,0.0,0.0,4.4821,4.4425,4.3483,4.3841,0.0,4.2739,4.3278,4.3739,4.3489,4.2931,4.2354,4.1865,4.1258,4.0785,4.0535,4.0496,4.0496,4.0496,4.0496,4.0246,3.9688,3.8604,3.7719,3.7103,3.6058,3.55,3.55,3.5424,3.5376,3.5376,3.5297,3.507,3.4694,3.4694,3.4694,3.4694,3.4694,3.4694,3.4694,3.4694,3.4803,3.4981,3.4981,3.5096,3.5254,3.5254,3.5254,3.5281,3.5361,3.5376,3.5376,3.5376,3.5376,3.5369,3.5289,3.5254,3.5254,3.5254,3.5254,3.5254,3.5254,3.5254,3.5174,3.4784,3.4694,3.4694,3.4694,3.486,3.4981,3.4981,3.6553,3.7843,3.774,3.9207,4.0356,4.0248,4.022,4.022,4.022,4.022,4.022,4.022,4.022,4.0167,3.9982,3.9943,3.984,3.9611,3.9599,3.942,3.8999,3.9197,3.9127,3.8707,3.8898,3.8898,3.8707,3.8707,3.8707,3.8707,3.8707,3.8707,3.3307,3.5399,0.0,3.9385,4.1263,4.3005,4.4051,0.0,0.0,0.0,4.4029,4.3656,4.3195,4.322,4.3085,4.2431,4.2758,4.2989,4.2624,4.2143,4.1681,4.1316,4.0823,4.0496,4.0496,4.0496,4.0496,4.0496,4.0208,3.9804,3.9323,3.8142,3.7238,3.6712,3.5923,3.55,3.55,3.55,3.55,3.55,3.55,3.532,3.5008,3.5008,3.5008,3.5008,3.5008,3.5008,3.5008,3.5008,3.5113,3.5266,3.5266,3.5361,3.55,3.55,3.55,3.55,3.55,3.55,3.55,3.55,3.55,3.55,3.55,3.55,3.55,3.55,3.55,3.55,3.55,3.55,3.5424,3.5096,3.5008,3.5008,3.5008,3.5138,3.5266,3.5266,3.6466,3.7584,3.795,3.9123,4.0131,4.0458,4.0496,4.0496,4.0496,4.0496,4.0496,4.0496,4.0496,4.0422,4.0267,4.025,4.0167,3.9974,3.9964,3.9821,3.9498,3.9564,3.9439,3.9064,3.9223,3.9223,3.9064,3.9064,3.9064,3.9064,3.9064,3.9064,3.6047,0.0,0.0,4.2244,4.3011,0.0,4.3951,4.4105,4.3904,4.3247,0.0,4.2143,4.2854,4.2335,4.2027,4.2758,4.2854,4.2585,4.1797,4.1673,4.1393,4.0593,4.0496,4.0496,4.0496,4.0496,4.0477,4.04,3.9708,3.9227,3.9073,3.7565,3.6673,3.6596,3.5885,3.55,3.55,3.55,3.55,3.55,3.55,3.55,3.55,3.55,3.55,3.55,3.55,3.55,3.55,3.55,3.55,3.55,3.55,3.55,3.55,3.55,3.55,3.55,3.55,3.55,3.55,3.55,3.55,3.55,3.55,3.5494,3.5508,3.5508,3.5515,3.5509,3.5509,3.5509,3.5509,3.5509,3.5508,3.55,3.55,3.55,3.55,3.55,3.6154,3.6942,3.7757,3.8661,3.9573,4.0381,4.0496,4.0496,4.0496,4.0496,4.0496,4.0496,4.0496,4.0496,4.0496,4.0496,4.0496,4.0496,4.0496,4.0389,4.0148,3.984,3.9656,3.9599,3.9634,3.9634,3.9599,3.9599,3.9599,3.9599,3.9599,3.9599,3.4536,3.6016,0.0,0.0,4.2282,4.3199,4.2694,4.2577,4.2668,4.3034,4.2951,4.2662,4.2181,4.1923,4.1643,4.115,4.1054,4.0997,4.0804,4.0785,4.0708,4.0516,4.0496,4.0496,4.0496,4.0496,4.0246,3.9611,3.94,3.87,3.7334,3.6904,3.6404,3.5788,3.5596,3.55,3.55,3.55,3.55,3.55,3.55,3.55,3.55,3.55,3.55,3.55,3.55,3.55,3.55,3.55,3.55,3.55,3.55,3.55,3.55,3.55,3.55,3.55,3.55,3.55,3.55,3.55,3.55,3.55,3.55,3.554,3.5582,3.5582,3.5621,3.5659,3.5659,3.5659,3.5659,3.5659,3.5577,3.55,3.55,3.55,3.55,3.55,3.6154,3.675,3.6942,3.8277,3.9573,4.0381,4.0496,4.0496,4.0496,4.0496,4.0496,4.0496,4.0496,4.0496,4.0496,4.0496,4.0496,4.0496,4.0496,4.0473,4.0425,4.0345,4.0082,3.9611,3.987,3.9851,3.9599,3.9599,3.9599,3.9599,3.9599,3.9599,3.4514,0.0,0.0,4.0606,0.0,4.2657,4.219,4.1785,4.1576,4.1935,4.2002,4.1866,4.1402,4.1324,4.117,4.0711,4.0318,4.0066,4.0066,3.9712,3.9454,3.9454,3.9454,3.9454,3.9454,3.9454,3.928,3.8855,3.8435,3.7787,3.6845,3.6427,3.5999,3.5526,3.5562,3.5588,3.5552,3.5582,3.56,3.56,3.56,3.56,3.5595,3.5522,3.55,3.55,3.55,3.55,3.55,3.55,3.55,3.55,3.55,3.5515,3.5546,3.5546,3.5579,3.56,3.56,3.56,3.56,3.56,3.56,3.56,3.56,3.5611,3.5642,3.5642,3.5667,3.5707,3.5707,3.5707,3.5707,3.5707,3.5642,3.56,3.56,3.56,3.56,3.56,3.5929,3.6491,3.7323,3.8891,4.0145,4.0545,4.0589,4.0581,4.0504,4.0496,4.0496,4.0496,4.0496,4.0496,4.0496,4.0496,4.0496,4.0496,4.0496,4.0496,4.0496,4.0496,4.0353,4.0034,4.0194,4.0203,4.0034,4.0034,4.0034,4.0034,4.0034,4.0034,0.0,0.0,3.7952,4.0933,4.1824,0.0,4.1932,4.1273,4.0633,4.0633,4.0726,4.0758,4.0622,4.0583,4.0544,4.0389,3.9817,3.9385,3.9385,3.8758,3.8307,3.8307,3.8307,3.8307,3.8307,3.8307,3.823,3.8097,3.7405,3.6907,3.6692,3.6068,3.5646,3.554,3.5633,3.5667,3.5626,3.5663,3.5707,3.5707,3.5707,3.5707,3.57,3.5599,3.5534,3.5534,3.5534,3.5534,3.5534,3.5534,3.5534,3.5534,3.5534,3.5579,3.5626,3.5626,3.565,3.5707,3.5707,3.5707,3.5707,3.5707,3.5707,3.5707,3.5707,3.5717,3.5726,3.5726,3.5738,3.5747,3.5747,3.5747,3.5747,3.5747,3.5747,3.5741,3.5713,3.5707,3.5707,3.5707,3.5824,3.6427,3.8035,3.9572,4.0613,4.0696,4.0718,4.0672,4.0575,4.0545,4.0523,4.0523,4.0519,4.0496,4.0496,4.0496,4.0496,4.0496,4.0496,4.0496,4.0496,4.0496,4.0496,4.0496,4.0496,4.0496,4.0496,4.0496,4.0496,4.0496,4.0496,4.0496,0.0,0.0,3.8502,0.0,4.0683,4.1325,0.0,0.0,4.0017,0.0,4.043,4.0583,3.9894,3.9758,3.9505,3.8758,3.8545,3.8463,3.8463,3.8366,3.8307,3.8307,3.8307,3.8307,3.8307,3.8307,3.7981,3.7233,3.7074,3.6662,3.59,3.5755,3.5693,3.5667,3.5693,3.57,3.5686,3.57,3.5707,3.5707,3.5707,3.5707,3.5703,3.5678,3.5667,3.5667,3.5667,3.5667,3.5667,3.5667,3.5667,3.5667,3.5667,3.5675,3.5686,3.5686,3.5693,3.5707,3.5707,3.5707,3.5707,3.5707,3.5707,3.5707,3.5707,3.5772,3.5873,3.5873,3.5919,3.5954,3.5954,3.5954,3.5954,3.5954,3.5954,3.5907,3.5738,3.5707,3.5707,3.5707,3.6313,3.7134,3.8139,3.9112,3.998,4.0684,4.0796,4.0773,4.0755,4.071,4.0667,4.0667,4.0574,4.0496,4.0496,4.0496,4.0496,4.0496,4.0496,4.0496,4.0496,4.0496,4.0496,4.0496,4.0496,4.0496,4.0496,4.0496,4.0496,4.0496,4.0496,4.0496,3.2159,3.4841,3.7441,0.0,4.0135,4.0469,4.0469,4.0176,3.9766,3.9277,3.9385,3.946,3.9109,3.9031,3.8914,3.8521,3.8053,3.7741,3.7741,3.7329,3.7017,3.7017,3.7017,3.7017,3.7017,3.7017,3.6843,3.6474,3.6435,3.6269,3.5829,3.5859,3.5828,3.571,3.5806,3.5841,3.5807,3.5841,3.5872,3.5872,3.5872,3.5872,3.5872,3.5872,3.5804,3.5707,3.5707,3.5707,3.5707,3.5707,3.5707,3.5707,3.5707,3.5752,3.5807,3.5807,3.5849,3.5872,3.5872,3.5872,3.5872,3.5872,3.5872,3.5872,3.5872,3.5902,3.597,3.597,3.5975,3.5996,3.5996,3.5996,3.5996,3.5996,3.5996,3.5976,3.5899,3.5872,3.5872,3.5872,3.6576,3.7298,3.7668,3.8468,3.9121,3.9413,3.9466,3.9624,4.0062,4.0105,4.0267,4.0704,4.0707,4.0674,4.0674,4.0674,4.0674,4.0674,4.0674,4.0674,4.0674,4.0674,4.0653,4.0616,4.053,4.0496,4.0496,4.0496,4.0496,4.0496,4.0496,4.0496,0.0,0.0,3.5539,3.8219,3.9217,3.9608,0.0,0.0,3.9394,3.873,3.8242,3.7949,3.7949,3.8125,3.8203,3.7988,3.7383,3.6973,3.6973,3.6406,3.5996,3.5996,3.5996,3.5996,3.5996,3.5996,3.5996,3.5996,3.5996,3.5975,3.5939,3.5974,3.593,3.5788,3.5928,3.5974,3.5938,3.5974,3.5996,3.5996,3.5996,3.5996,3.5996,3.5996,3.5927,3.5785,3.5785,3.5785,3.5785,3.5785,3.5785,3.5785,3.5785,3.5832,3.5938,3.5938,3.595,3.5996,3.5996,3.5996,3.5996,3.5996,3.5996,3.5996,3.5996,3.5996,3.5996,3.5996,3.5996,3.5996,3.5996,3.5996,3.5996,3.5996,3.5996,3.5996,3.5996,3.5996,3.5996,3.5996,3.6699,3.7305,3.7305,3.8027,3.8573,3.8477,3.8453,3.8674,3.9271,3.952,3.9857,4.0464,4.0696,4.0797,4.0797,4.0797,4.0797,4.0797,4.0797,4.0797,4.0797,4.0797,4.0779,4.074,4.0629,4.0554,4.0496,4.0496,4.0496,4.0496,4.053,4.0552,0.0,3.1451,0.0,3.544,3.7343,0.0,0.0,0.0,3.8652,3.8613,3.7285,3.6133,3.6133,3.6816,3.7109,3.6269,3.6094,3.6074,3.6074,3.6035,3.5996,3.5996,3.5996,3.5996,3.5996,3.5996,3.5996,3.5996,3.5996,3.5996,3.5996,3.5996,3.5996,3.5976,3.5996,3.5996,3.5996,3.5996,3.5996,3.5996,3.5996,3.5996,3.5996,3.5996,3.5996,3.5976,3.5976,3.5976,3.5976,3.5976,3.5976,3.5976,3.5976,3.5996,3.5996,3.5996,3.5996,3.5996,3.5996,3.5996,3.5996,3.5996,3.5996,3.5996,3.5996,3.5996,3.5996,3.5996,3.5996,3.5996,3.5996,3.5996,3.5996,3.5996,3.5996,3.5996,3.5996,3.5996,3.5996,3.5996,3.6699,3.7305,3.7305,3.8027,3.8594,3.8594,3.8594,3.8593,3.8652,3.9259,3.97,3.9759,4.0383,4.0797,4.0797,4.0797,4.0797,4.0797,4.0797,4.0797,4.0797,4.0797,4.0797,4.0789,4.0785,4.0687,4.0496,4.0496,4.0496,4.0496,4.0636,4.0686,0.0,0.0,0.0,3.379,3.5478,3.6865,3.7195,3.7431,3.7407,3.6842,3.6235,3.5834,3.5919,3.6227,3.6367,3.6055,3.5996,3.5996,3.5996,3.5996,3.5996,3.5996,3.5996,3.5996,3.5996,3.5996,3.5996,3.5996,3.5996,3.5996,3.5996,3.5996,3.5996,3.5996,3.5996,3.5996,3.5996,3.5996,3.5996,3.5996,3.5996,3.5996,3.5996,3.5996,3.5996,3.5996,3.5996,3.5996,3.5996,3.5996,3.5996,3.5996,3.5996,3.5996,3.5996,3.5996,3.5996,3.5996,3.5996,3.5996,3.5996,3.5996,3.5996,3.5996,3.5996,3.5996,3.5996,3.5996,3.5996,3.5996,3.5996,3.5996,3.5996,3.5996,3.5996,3.5996,3.5996,3.5996,3.5996,3.5996,3.625,3.6465,3.6465,3.6719,3.6934,3.6934,3.6934,3.7129,3.7695,3.8475,3.9213,3.976,4.0573,4.1054,4.1054,4.1054,4.1054,4.1054,4.1054,4.1054,4.1054,4.1054,4.1021,4.0925,4.0922,4.0847,4.0687,4.0687,4.0687,4.0687,4.0738,4.0757,2.7986,0.0,0.0,0.0,0.0,3.5125,3.6005,3.6421,3.6521,3.6251,3.5921,3.5758,3.5893,3.5948,3.5974,3.5996,3.5996,3.5996,3.5996,3.5996,3.5996,3.5996,3.5996,3.5996,3.5996,3.5996,3.5996,3.5996,3.5996,0.0,3.5996,3.5996,3.5996,3.5996,3.5996,3.5996,3.5996,3.5996,3.5859,3.5566,3.5566,3.541,3.5137,3.543,3.5566,3.5586,3.5879,3.5996,3.5996,3.5996,3.5996,3.5996,3.5996,3.5996,3.5996,3.5996,3.5996,3.5996,3.5996,3.5996,3.5996,3.5996,3.5996,3.5996,3.5996,3.5996,3.5996,3.5996,3.5996,3.5996,3.5996,3.5996,3.5996,3.5996,3.5996,3.5996,3.5996,3.5996,3.5996,3.5996,3.5996,3.5996,3.5996,3.5996,3.5996,3.5996,3.5996,3.6211,3.6797,3.7617,3.8496,3.9375,4.0234,4.0879,4.1172,4.1191,4.1191,4.1191,4.1191,4.1191,4.1191,4.1191,4.1151,4.1077,4.1076,4.1023,4.0925,4.0831,4.0797,4.0801,4.0854,4.0883,0.0,0.0,0.0,0.0,0.0,0.0,3.6277,3.6255,3.5988,3.6924,3.634,3.5733,3.5954,3.5946,3.5916,3.5996,3.5996,3.5996,3.5996,3.5996,3.5996,3.5996,3.5996,3.5996,3.5996,3.5996,3.5996,3.5996,3.5996,3.5996,3.5996,3.5976,3.5957,3.5957,3.5937,3.5918,3.5918,3.5918,3.5508,3.4668,3.4668,3.4219,3.3437,3.4277,3.4687,3.4746,3.5586,3.5976,3.5996,3.5996,3.5996,3.5996,3.5996,3.5996,3.5996,3.5996,3.5996,3.5996,3.5996,3.5996,3.5996,3.5996,3.5996,3.5996,3.5996,3.5996,3.5996,3.5996,3.5996,3.5996,3.5996,3.5996,3.5996,3.5996,3.5996,3.5996,3.5996,3.5996,3.5996,3.5996,3.5996,3.5996,3.5996,3.5996,3.5996,3.5996,3.5996,3.5996,3.5996,3.6758,3.7637,3.8516,3.9375,4.0254,4.1133,4.1191,4.1191,4.1191,4.1191,4.1191,4.1191,4.1191,4.1191,4.1191,4.1191,4.1191,4.1191,4.0947,4.0809,4.0809,4.0952,4.1078,2.7253,0.0,0.0,0.0,0.0,0.0,0.0,3.3443,3.3956,3.4844,3.4856,3.4917,3.5655,3.5849,3.5916,3.5996,3.5996,3.5996,3.5996,3.5996,3.5996,3.5996,3.5996,3.5996,3.5996,3.5996,3.5996,0.0,3.5996,3.5996,3.5996,3.5391,3.5059,3.5059,3.4453,3.4121,3.4121,3.4121,3.4004,3.3769,3.3769,3.3633,3.3418,3.3652,3.4101,3.4707,3.4941,3.543,3.5996,3.5996,3.5996,3.5996,3.5996,3.5996,3.5996,3.5996,3.5996,3.5996,3.5996,3.5996,3.5996,3.5996,3.5996,3.5996,3.5996,3.5996,3.5996,3.5996,3.5996,3.5996,3.5996,3.5996,3.5996,3.5996,3.5996,3.5996,3.5996,3.5996,3.5996,3.5996,3.5996,3.5996,3.5996,3.5996,3.5996,3.5996,3.5996,3.5996,3.5996,3.6758,3.7637,3.8516,3.9375,4.0254,4.1133,4.1191,4.1191,4.1191,4.1191,4.1191,4.1191,4.1191,4.1191,4.1191,4.1191,4.1191,4.1191,4.1127,4.1082,4.1082,4.1127,4.1151,0.0,0.0,0.0,0.0,0.0,0.0,3.2045,3.2295,3.2646,3.3566,3.373,3.3921,3.4583,3.5047,3.5352,3.5448,3.5762,3.5996,3.5996,3.5996,3.5996,3.5996,3.5996,3.5996,3.5996,3.5996,3.5996,3.5996,3.5996,3.5996,3.5996,3.5176,3.4707,3.4707,3.3848,3.3398,3.3398,3.3398,3.3223,3.2891,3.2891,3.2715,3.2363,3.2734,3.3359,3.418,3.4531,3.5195,3.5996,3.5996,3.5996,3.5996,3.5996,3.5996,3.5996,3.5996,3.5996,3.5996,3.5996,3.5996,3.5996,3.5996,3.5996,3.5996,3.5996,3.5996,3.5996,3.5996,3.5996,3.5996,3.5996,3.5996,3.5996,3.5996,3.5996,3.5996,3.5996,3.5975,3.5972,3.5996,3.5996,3.5996,3.5996,3.5996,3.5996,3.5996,3.5996,3.5996,3.5996,3.6445,3.7226,3.8476,3.9043,3.9863,4.1094,4.1191,4.1191,4.1191,4.1191,4.1191,4.1191,4.1191,4.1191,4.1191,4.1191,4.1191,4.1191,4.1191,4.1191,4.1191,4.1191,4.1191,2.9146,2.9813,0.0,0.0,3.1115,0.0,3.2199,3.2006,3.1759,3.2508,3.2571,3.2627,3.3059,3.3712,3.4279,3.4507,3.5273,3.5879,3.5996,3.5996,3.5996,3.5996,3.5996,3.5996,3.5996,3.5996,3.5996,3.5996,3.5996,3.5996,3.5996,3.5078,3.4551,3.4551,3.3613,3.3125,3.3125,3.3125,3.2754,3.2051,3.2051,3.1641,3.0937,3.1699,3.25,3.3301,3.418,3.5059,3.5859,3.5957,3.5996,3.5996,3.5996,3.5996,3.5996,3.5996,3.5996,3.5996,3.5996,3.5996,3.5996,3.5996,3.5996,3.5996,3.5996,3.5996,3.5996,3.5996,3.5996,3.5995,3.5995,3.5975,3.5975,3.5975,3.5975,3.5975,3.5975,3.5921,3.5907,3.5953,3.5975,3.5975,3.5975,3.5975,3.5975,3.5995,3.5995,3.5996,3.5996,3.5996,3.668,3.8418,3.8594,3.9316,4.1055,4.1191,4.1191,4.1191,4.1191,4.1191,4.1191,4.1191,4.1191,4.1191,4.1191,4.1191,4.1191,4.1191,4.1191,4.1191,4.1191,4.1191,2.9473,3.0256,3.1308,3.0788,3.1538,0.0,3.0223,3.0256,3.0512,2.9998,2.9946,3.0434,3.1833,3.2263,3.2658,3.3363,3.4263,3.5147,3.5898,3.5996,3.5996,3.5996,3.5996,3.5996,3.5996,3.5996,3.5996,3.5996,3.5996,3.5996,3.5996,3.4512,3.3652,3.3652,3.2187,3.1387,3.1387,3.1387,3.1309,3.1152,3.1152,3.1055,3.0918,3.1074,3.1621,3.248,3.3301,3.4141,3.5019,3.5703,3.5996,3.5996,3.5996,3.5996,3.5996,3.5996,3.5996,3.5996,3.5996,3.5996,3.5996,3.5996,3.5996,3.5996,3.5996,3.5996,3.5996,3.5996,3.5951,3.5914,3.5914,3.5849,3.5752,3.5752,3.5752,3.5752,3.5752,3.5741,3.5735,3.5769,3.5752,3.5752,3.5752,3.5752,3.579,3.589,3.5914,3.5944,3.5996,3.5996,3.668,3.8418,3.8594,3.9316,4.1055,4.1191,4.1191,4.1191,4.1191,4.1191,4.1191,4.1191,4.1191,4.1191,4.1191,4.1191,4.1191,4.1191,4.1191,4.1191,4.1191,4.1191,3.0102,3.039,3.1058,3.1058,0.0,0.0,0.0,3.041,3.0404,3.039,2.9769,2.9728,3.1486,3.1476,3.1495,3.2402,3.3343,3.4096,3.4544,3.5405,3.5996,3.5996,3.5996,3.5996,3.5996,3.5996,3.5995,3.5949,3.5975,3.5995,3.5948,3.4745,3.3848,3.3418,3.2207,3.1348,3.0898,3.0898,3.0898,3.0898,3.0898,3.0898,3.0898,3.0898,3.1387,3.2226,3.2637,3.3516,3.4726,3.5176,3.5605,3.5996,3.5996,3.5996,3.5996,3.5996,3.5996,3.5996,3.5996,3.5996,3.5996,3.5996,3.5996,3.5996,3.5951,3.59,3.5845,3.5845,3.5828,3.5802,3.5802,3.5755,3.5707,3.5707,3.5707,3.5707,3.5707,3.5667,3.5646,3.5646,3.5616,3.5611,3.5689,3.5707,3.572,3.5797,3.5802,3.5814,3.5843,3.6292,3.7081,3.8351,3.8944,3.9785,4.1094,4.1191,4.1191,4.1191,4.1191,4.1191,4.1191,4.1191,4.1191,4.1191,4.1191,4.1191,4.1191,4.1191,4.1191,4.1191,4.1191,4.1191,0.0,3.0635,3.0962,3.1346,0.0,3.1135,0.0,0.0,0.0,3.0891,2.9852,2.9357,3.0989,3.0577,3.0346,3.1448,3.2255,3.2807,0.0,3.4399,0.0,3.5699,3.5878,3.5996,3.5975,3.5975,3.5951,3.5905,3.5948,3.5951,3.5903,3.5132,3.4297,3.3437,3.2617,3.1777,3.0918,3.0898,3.0898,3.0898,3.0898,3.0898,3.0898,3.0898,3.1289,3.1953,3.2129,3.3066,3.4453,3.4629,3.5215,3.5996,3.5996,3.5996,3.5996,3.5995,3.5995,3.5996,3.5954,3.5954,3.5975,3.5953,3.5933,3.593,3.588,3.5794,3.5707,3.5707,3.5693,3.5678,3.5678,3.5663,3.5667,3.5667,3.5667,3.5667,3.5667,3.5626,3.5588,3.5588,3.554,3.5534,3.5633,3.5667,3.5675,3.5675,3.5678,3.5686,3.5703,3.6559,3.7468,3.8289,3.9259,4.0189,4.1049,4.1149,4.1151,4.1151,4.1191,4.1191,4.1191,4.1191,4.1191,4.1191,4.1191,4.1191,4.1191,4.1191,4.1191,4.1191,4.1191,4.1191,0.0,0.0,0.0,0.0,3.2179,0.0,0.0,0.0,3.0,2.8621,0.0,2.8324,2.9245,0.0,0.0,0.0,0.0,0.0,3.1844,3.285,3.3799,3.4573,3.5453,3.5974,3.5913,3.591,3.5908,3.5901,3.5907,3.5907,3.5901,3.5132,3.4297,3.3437,3.2617,3.1777,3.0918,3.0898,3.0898,3.0898,3.0898,3.0898,3.0898,3.0898,3.0957,3.1094,3.1855,3.2715,3.3613,3.4375,3.5215,3.5996,3.5996,3.5996,3.5996,3.5922,3.5948,3.5975,3.5797,3.5814,3.5884,3.5775,3.5735,3.5732,3.5723,3.5713,3.5707,3.5707,3.5659,3.5611,3.5611,3.5574,3.5522,3.5522,3.5522,3.5522,3.5522,3.5528,3.5515,3.5515,3.5514,3.5494,3.5515,3.5522,3.5534,3.5596,3.5611,3.5635,3.5693,3.6466,3.7345,3.8228,3.9107,3.9951,4.0772,4.0957,4.1023,4.1023,4.1129,4.1191,4.1191,4.1191,4.1191,4.1191,4.1191,4.1191,4.1191,4.1191,4.1191,4.1191,4.1191,4.1191,0.0,0.0,0.0,0.0,0.0,0.0,3.0814,0.0,3.0346,0.0,0.0,0.0,0.0,0.0,0.0,0.0,3.0462,0.0,0.0,0.0,3.2778,3.3634,0.0,0.0,3.5843,3.5437,3.5328,3.5758,3.5383,3.5314,3.5705,3.5545,3.5038,3.4129,3.3807,3.3008,3.168,3.1641,3.1406,3.0898,3.0898,3.0898,3.0898,3.0898,3.0898,3.0918,3.1289,3.1874,3.2667,3.3524,3.4372,3.5174,3.5641,3.5869,3.5922,3.5819,3.5792,3.5808,3.5729,3.5749,3.5769,3.5717,3.5667,3.5633,3.5633,3.5602,3.5574,3.5574,3.5568,3.5534,3.5534,3.5522,3.55,3.55,3.55,3.55,3.55,3.55,3.55,3.55,3.55,3.55,3.55,3.55,3.5508,3.554,3.5534,3.5558,3.5588,3.6387,3.7287,3.8141,3.9053,3.9926,4.0719,4.0857,4.0877,4.0877,4.0947,4.0996,4.108,4.1081,4.1126,4.1191,4.1191,4.1191,4.1191,4.1191,4.1191,4.1191,4.1191,4.1191,3.0577,0.0,0.0,0.0,0.0,0.0,0.0,0.0,0.0,0.0,0.0,0.0,0.0,0.0,0.0,0.0,0.0,3.0255,0.0,3.1067,0.0,0.0,0.0,0.0,0.0,3.5034,3.4848,3.5613,3.4956,3.485,3.5596,3.5817,3.5515,3.4648,3.4661,3.3983,3.2539,3.2539,3.2109,3.1269,3.1269,3.1133,3.0898,3.0898,3.0898,3.0898,3.0898,3.1324,3.2062,3.2934,3.3763,3.4581,3.5367,3.5726,3.5808,3.5709,3.5682,3.5696,3.5659,3.5657,3.5657,3.5657,3.5616,3.5566,3.5566,3.5547,3.55,3.55,3.55,3.55,3.55,3.55,3.55,3.55,3.55,3.55,3.55,3.55,3.55,3.55,3.55,3.55,3.55,3.55,3.55,3.55,3.55,3.55,3.55,3.6279,3.7174,3.8057,3.8965,3.9835,4.0645,4.0752,4.0784,4.0797,4.0797,4.0831,4.095,4.0952,4.0992,4.1082,4.1082,4.1105,4.1149,4.1149,4.1151,4.1191,4.1191,4.1191,0.0,0.0,0.0,3.0654,0.0,0.0,0.0,0.0,3.1274,0.0,0.0,0.0,0.0,0.0,0.0,0.0,0.0,0.0,0.0,0.0,0.0,0.0,0.0,0.0,0.0,3.4865,3.4677,0.0,3.4807,3.4727,3.5658,3.571,3.5407,3.4726,3.4633,3.4203,3.3379,3.3359,3.2969,3.2168,3.2168,3.1719,3.0898,3.0898,3.0898,3.0898,3.0898,3.1324,3.2062,3.2934,3.3763,3.4575,3.532,3.5616,3.5601,3.5596,3.5638,3.5678,3.5558,3.552,3.552,3.552,3.5494,3.5507,3.5507,3.5507,3.55,3.55,3.55,3.55,3.55,3.55,3.55,3.55,3.55,3.55,3.55,3.55,3.55,3.55,3.55,3.55,3.55,3.55,3.55,3.55,3.55,3.55,3.55,3.6219,3.7033,3.7899,3.8799,3.9646,4.0435,4.0636,4.0726,4.0793,4.0797,4.0801,4.0805,4.0805,4.0805,4.0809,4.0809,4.0874,4.1017,4.1017,4.1078,4.1191,4.1191,4.1191,0.0,0.0,3.0769,3.0462,0.0,0.0,0.0,0.0,0.0,0.0,0.0,0.0,0.0,0.0,0.0,0.0,0.0,0.0,0.0,0.0,0.0,0.0,0.0,0.0,0.0,0.0,0.0,3.4686,3.4597,0.0,3.5532,3.628,3.6287,3.539,3.5426,3.5062,3.4277,3.4258,3.3574,3.2207,3.2207,3.1738,3.0898,3.0898,3.0858,3.0769,3.0769,3.0851,3.1077,3.1944,3.2755,3.3517,3.4349,3.5039,3.5534,3.5534,3.5552,3.5562,3.5521,3.55,3.55,3.55,3.55,3.55,3.55,3.55,3.55,3.55,3.55,3.55,3.55,3.55,3.55,3.55,3.55,3.55,3.55,3.55,3.55,3.55,3.55,3.55,3.55,3.55,3.55,3.55,3.55,3.55,3.55,3.5731,3.6212,3.7046,3.7911,3.8777,3.9631,4.0248,4.0582,4.0604,4.0604,4.0635,4.0731,4.0736,4.0757,4.0797,4.0797,4.0816,4.0867,4.0867,4.0883,4.0947,4.0947,4.1026,2.95,2.95,0.0,2.95,2.9313,0.0,2.8777,0.0,3.0027,0.0,0.0,0.0,0.0,0.0,0.0,0.0,0.0,0.0,0.0,3.0551,0.0,0.0,0.0,0.0,0.0,0.0,3.3557,3.4686,3.487,0.0,0.0,3.6966,3.7109,3.6291,3.6285,3.5924,3.5176,3.5135,3.4295,3.2637,3.2595,3.2009,3.0898,3.0857,3.0771,3.0695,3.0679,3.0609,3.0576,3.1447,3.224,3.2987,3.3859,3.4737,3.55,3.55,3.55,3.55,3.55,3.55,3.55,3.55,3.55,3.55,3.55,3.55,3.55,3.55,3.55,3.55,3.55,3.55,3.55,3.55,3.55,3.55,3.55,3.55,3.55,3.55,3.55,3.55,3.55,3.55,3.55,3.55,3.55,3.55,3.55,3.575,3.6231,3.7065,3.795,3.8815,3.965,4.0208,4.0496,4.0496,4.0496,4.053,4.063,4.063,4.0648,4.0687,4.0687,4.0713,4.0757,4.0757,4.0779,4.0797,4.0797,4.0883]}]]